Date StartTime U_cm/s V_cm/s W_cm/s Ustd_cm/s Vstd_cm/s Wstd_cm/s Uvar_(cm/s)^2 Vvar_(cm/s)^2 Wvar_(cm/s)^2 KE_(m/s)^2 TurbulentKE_(m/s)^2 HorizWindSpeed_cm/s FrictionSpeec_cm/s DragCoef SpeedOfSound_m/s SonicTemperature_C Pressure_mb 
12/25/2013  00:00:00      -94.302       -8.260      -11.126       20.097       13.285       12.510      403.890      176.493      156.490        0.491        0.037       94.664        8.277        0.008      332.226        0.753      874.281
12/25/2013  00:01:00      -84.394      -15.196      -12.487       19.417       13.918       11.643      377.007      193.705      135.561        0.411        0.035       85.751       10.103        0.014      332.246        0.785      874.290
12/25/2013  00:02:00      -87.345      -26.090       -6.637       15.582       20.423       11.603      242.790      417.085      134.623        0.457        0.040       91.159       10.025        0.012      332.189        0.692      874.280
12/25/2013  00:03:00      -83.665      -33.319      -10.131       17.161       22.310       12.661      294.509      497.720      160.296        0.458        0.048       90.055        9.920        0.012      332.175        0.667      874.266
12/25/2013  00:04:00     -102.671      -26.225       -8.543       19.360       13.666       11.771      374.796      186.751      138.551        0.600        0.035      105.968       10.485        0.010      332.174        0.666      874.254
12/25/2013  00:05:00      -96.280      -24.037      -16.760       17.168       16.859       19.028      294.757      284.231      362.065        0.553        0.047       99.235       16.247        0.027      332.217        0.736      874.260
12/25/2013  00:06:00      -77.409      -17.038        0.395       37.499       23.556       19.692     1406.202      554.906      387.785        0.432        0.117       79.262       23.908        0.091      332.143        0.615      874.261
12/25/2013  00:07:00     -107.328      -42.217       -8.487       30.620       23.580       18.538      937.595      556.004      343.653        0.761        0.092      115.333       15.947        0.019      332.129        0.591      874.253
12/25/2013  00:08:00      -91.957      -49.332       -7.733       27.672       30.322       17.940      765.719      919.428      321.838        0.648        0.100      104.353        9.005        0.007      332.136        0.603      874.254
12/25/2013  00:09:00      -50.016      -53.218        1.168       30.378       25.666       19.880      922.822      658.744      395.229        0.366        0.099       73.033       15.710        0.046      332.138        0.606      874.257
12/25/2013  00:10:00      -83.176      -46.725       -9.321       23.407       28.252       15.150      547.872      798.180      229.534        0.538        0.079       95.402       10.820        0.013      332.103        0.548      874.257
12/25/2013  00:11:00     -110.989      -39.666       -7.120       19.178       21.368       14.562      367.809      456.596      212.049        0.749        0.052      117.864        8.044        0.005      332.091        0.528      874.256
12/25/2013  00:12:00     -109.919      -23.881      -11.053       31.934       25.555       19.073     1019.781      653.083      363.771        0.741        0.102      112.483       17.265        0.024      332.106        0.555      874.255
12/25/2013  00:13:00      -85.362      -18.206       -4.646       44.667       29.372       20.351     1995.134      862.706      414.181        0.546        0.164       87.282       19.484        0.050      332.100        0.544      874.252
12/25/2013  00:14:00      -99.115      -33.553       -5.718       26.730       25.259       17.630      714.486      638.001      310.829        0.632        0.083      104.640       15.668        0.022      332.102        0.546      874.243
12/25/2013  00:15:00     -120.654       -4.836       -7.967       41.843       33.540       23.366     1750.820     1124.954      545.975        0.903        0.171      120.751       20.929        0.030      332.107        0.555      874.226
12/25/2013  00:16:00     -145.374        1.921      -11.481       58.029       43.647       26.701     3367.334     1905.070      712.941        1.363        0.299      145.387       25.284        0.030      332.161        0.643      874.210
12/25/2013  00:17:00     -129.602       -7.869       -4.914       45.589       38.075       25.750     2078.375     1449.704      663.041        1.054        0.210      129.841       20.471        0.025      332.147        0.621      874.198
12/25/2013  00:18:00     -108.189       16.332       -2.790       44.274       37.820       24.049     1960.172     1430.318      578.373        0.797        0.198      109.415       18.376        0.028      332.218        0.739      874.203
12/25/2013  00:19:00     -104.545       26.335       -9.740       45.316       33.307       24.177     2053.523     1109.378      584.546        0.773        0.187      107.811       18.279        0.029      332.248        0.788      874.218
12/25/2013  00:20:00      -82.017       -4.814      -16.525       28.514       27.954       21.946      813.033      781.420      481.606        0.455        0.104       82.158       14.131        0.030      332.295        0.864      874.225
12/25/2013  00:21:00     -125.137       -9.273       -7.379       52.540       37.338       26.347     2760.470     1394.102      694.156        1.032        0.242      125.480       26.316        0.044      332.274        0.829      874.214
12/25/2013  00:22:00     -112.208      -37.104       -0.520       37.169       36.008       20.852     1381.510     1296.602      434.812        0.854        0.156      118.184       17.978        0.023      332.201        0.711      874.199
12/25/2013  00:23:00      -73.894      -64.670       -1.417       44.945       33.696       26.819     2020.051     1135.402      719.281        0.676        0.194       98.196       28.897        0.087      332.207        0.720      874.194
12/25/2013  00:24:00     -102.952      -54.655       -6.143       31.267       25.757       17.102      977.609      663.421      292.492        0.778        0.097      116.560       15.158        0.017      332.144        0.618      874.194
12/25/2013  00:25:00      -56.676      -43.081       -1.152       20.804       13.031       14.593      432.812      169.820      212.967        0.294        0.041       71.190        9.580        0.018      332.164        0.651      874.219
12/25/2013  00:26:00      -61.136      -40.073       -6.142       15.818       21.848       11.520      250.211      477.337      132.715        0.312        0.043       73.099        9.637        0.017      332.246        0.786      874.241
12/25/2013  00:27:00      -79.040      -37.011      -10.742        8.617       13.169        6.978       74.260      173.432       48.686        0.401        0.015       87.276        5.228        0.004      332.294        0.862      874.234
12/25/2013  00:28:00      -81.941      -37.298      -10.701        8.857        5.481        5.062       78.444       30.044       25.620        0.418        0.007       90.031        1.835        0.000      332.260        0.809      874.227
12/25/2013  00:29:00      -70.537      -38.477       -4.595        9.068        8.470        7.339       82.220       71.738       53.865        0.334        0.010       80.349        4.447        0.003      332.335        0.929      874.219
12/25/2013  00:30:00      -68.576      -43.471       -6.424       10.890       14.028       11.313      118.589      196.778      127.984        0.354        0.022       81.194        7.447        0.008      332.341        0.939      874.212
12/25/2013  00:31:00      -58.806      -46.111      -10.713       18.767       19.696       13.026      352.196      387.925      169.670        0.330        0.045       74.728        9.485        0.016      332.322        0.908      874.206
12/25/2013  00:32:00      -64.203      -43.190       -9.588       25.365       17.306       17.806      643.376      299.506      317.054        0.367        0.063       77.378       11.737        0.023      332.289        0.854      874.201
12/25/2013  00:33:00      -81.536      -51.001      -15.020       24.762       19.231       13.300      613.153      369.835      176.881        0.532        0.058       96.173        6.174        0.004      332.220        0.742      874.211
12/25/2013  00:34:00      -62.255      -32.886       -5.921       18.049       18.665       11.505      325.760      348.371      132.369        0.290        0.040       70.408        7.939        0.013      332.198        0.705      874.218
12/25/2013  00:35:00      -81.855       -1.455       -5.517       17.947       11.320       11.517      322.093      128.142      132.653        0.366        0.029       81.868        8.717        0.011      332.248        0.788      874.216
12/25/2013  00:36:00      -31.626      -15.589       -0.450       23.358       16.650       13.427      545.585      277.211      180.294        0.112        0.050       35.259       13.939        0.156      332.207        0.719      874.214
12/25/2013  00:37:00      -79.873      -13.746       -6.880       15.180       13.908       11.361      230.438      193.434      129.077        0.358        0.028       81.047        8.732        0.012      332.241        0.777      874.208
12/25/2013  00:38:00      -61.517      -33.746       -7.379        9.333       11.803        8.736       87.100      139.300       76.318        0.264        0.015       70.165        5.254        0.006      332.253        0.795      874.198
12/25/2013  00:39:00      -71.538      -36.310       -9.458       11.901        7.424        7.166      141.635       55.114       51.359        0.339        0.012       80.225        7.210        0.008      332.232        0.762      874.186
12/25/2013  00:40:00      -86.667      -43.168      -12.257       13.893       12.391       10.278      193.006      153.533      105.627        0.499        0.023       96.823        5.730        0.004      332.208        0.722      874.169
12/25/2013  00:41:00      -95.342      -38.411      -10.312        6.942        7.830        7.079       48.196       61.305       50.110        0.542        0.008      102.788        3.110        0.001      332.145        0.619      874.148
12/25/2013  00:42:00     -102.119      -44.493      -11.130       10.459       10.271        5.514      109.381      105.493       30.409        0.639        0.012      111.391        4.129        0.001      332.135        0.599      874.138
12/25/2013  00:43:00      -93.464      -49.092      -16.368        9.261        9.032        8.205       85.763       81.574       67.315        0.582        0.012      105.572        4.277        0.002      332.086        0.519      874.131
12/25/2013  00:44:00      -97.392      -55.046      -14.141       13.324       14.056       12.321      177.522      197.571      151.811        0.662        0.026      111.872        7.163        0.004      332.076        0.503      874.134
12/25/2013  00:45:00      -88.439      -46.082      -11.962        7.838        8.882        7.620       61.435       78.896       58.066        0.514        0.010       99.725        4.870        0.002      332.070        0.493      874.148
12/25/2013  00:46:00      -97.071      -35.171      -11.575        6.050        6.618        6.405       36.597       43.799       41.024        0.546        0.006      103.246        2.393        0.001      332.052        0.465      874.156
12/25/2013  00:47:00     -101.310      -36.155      -17.202        8.479        9.293        5.522       71.899       86.363       30.495        0.603        0.009      107.569        2.737        0.001      332.081        0.512      874.168
12/25/2013  00:48:00     -119.837      -42.321      -17.166       10.211       10.296        8.044      104.273      106.015       64.712        0.836        0.014      127.091        5.265        0.002      332.011        0.396      874.172
12/25/2013  00:49:00     -119.846      -42.320      -10.013       12.116       18.948       11.972      146.786      359.026      143.340        0.845        0.032      127.099        6.263        0.002      331.953        0.298      874.171
12/25/2013  00:50:00     -105.544      -36.265       -9.695       22.079       14.841       12.486      487.467      220.251      155.901        0.671        0.043      111.600       10.427        0.009      331.926        0.255      874.158
12/25/2013  00:51:00     -122.466      -61.437       -9.774       23.175       22.800       18.234      537.086      519.845      332.478        1.013        0.069      137.012        7.279        0.003      331.913        0.234      874.157
12/25/2013  00:52:00     -113.137      -54.077       -8.464       21.467       25.283       15.990      460.842      639.220      255.695        0.858        0.068      125.397        7.796        0.004      331.948        0.293      874.158
12/25/2013  00:53:00     -111.246      -36.969      -15.956       12.322       14.106        9.238      151.826      198.975       85.340        0.722        0.022      117.227        4.829        0.002      331.956        0.304      874.161
12/25/2013  00:54:00     -112.152      -41.977      -18.522       12.055        9.211        8.655      145.334       84.837       74.910        0.749        0.015      119.750        3.021        0.001      331.995        0.370      874.165
12/25/2013  00:55:00     -131.421      -56.369       -9.622       19.549       21.916       14.939      382.160      480.300      223.181        1.081        0.054      143.000        9.821        0.005      331.989        0.360      874.155
12/25/2013  00:56:00     -132.175      -54.516       -7.090       24.727       25.494       14.918      611.434      649.956      222.538        1.099        0.074      142.976       12.575        0.008      331.951        0.296      874.136
12/25/2013  00:57:00     -111.525      -53.410      -12.643       25.138       21.601       14.175      631.913      466.623      200.931        0.837        0.065      123.655        7.923        0.004      331.909        0.227      874.128
12/25/2013  00:58:00     -107.020      -64.537       -9.044       33.091       25.202       14.861     1094.987      635.155      220.853        0.883        0.098      124.974        7.030        0.003      331.882        0.183      874.117
12/25/2013  00:59:00     -108.092      -61.641       -0.336       37.889       24.369       21.111     1435.605      593.854      445.654        0.898        0.124      124.433       20.983        0.028      331.810        0.064      874.112
12/25/2013  01:00:00     -107.083      -62.978       -6.574       25.674       27.208       19.133      659.137      740.256      366.080        0.862        0.088      124.229       14.491        0.014      331.810        0.065      874.116
12/25/2013  01:01:00      -63.001      -46.935       -2.256       38.217       30.620       17.375     1460.539      937.612      301.905        0.444        0.135       78.562       21.225        0.073      331.839        0.114      874.125
12/25/2013  01:02:00      -36.386      -57.878       12.508       46.671       38.684       26.480     2178.187     1496.473      701.187        0.460        0.219       68.366       27.680        0.164      331.862        0.150      874.134
12/25/2013  01:03:00      -88.040      -81.931        1.726       48.260       35.947       23.846     2329.025     1292.192      568.629        0.933        0.209      120.265       27.751        0.053      331.973        0.333      874.139
12/25/2013  01:04:00      -92.518      -45.133       -0.986       32.830       22.594       18.986     1077.815      510.479      360.452        0.627        0.097      102.940        8.576        0.007      331.940        0.278      874.135
12/25/2013  01:05:00     -107.109      -58.081       -2.796       35.728       23.293       18.568     1276.509      542.553      344.760        0.851        0.108      121.843       17.846        0.021      331.883        0.185      874.120
12/25/2013  01:06:00      -68.974      -45.147        2.049       36.353       30.385       21.459     1321.532      923.255      460.502        0.475        0.135       82.436       14.836        0.032      331.834        0.105      874.118
12/25/2013  01:07:00      -64.400      -40.663       -1.631       33.150       19.100       17.753     1098.907      364.802      315.158        0.379        0.089       76.163       11.906        0.024      331.851        0.131      874.129
12/25/2013  01:08:00     -126.651      -65.773       -5.130       24.481       16.182       15.352      599.299      261.858      235.680        1.074        0.055      142.711       12.871        0.008      331.892        0.200      874.135
12/25/2013  01:09:00     -127.465      -64.566       -2.311       27.999       26.600       21.448      783.960      707.543      460.006        1.119        0.098      142.885       16.202        0.013      331.896        0.206      874.130
12/25/2013  01:10:00     -111.334      -64.604       -2.234       40.315       30.734       22.425     1625.307      944.561      502.883        0.982        0.154      128.721       20.090        0.024      331.843        0.120      874.135
12/25/2013  01:11:00      -72.438      -45.915        6.575       47.990       32.023       23.329     2303.001     1025.446      544.238        0.564        0.194       85.764       26.145        0.093      331.779        0.013      874.133
12/25/2013  01:12:00     -107.670      -57.246       -4.733       35.872       21.947       22.344     1286.803      481.657      499.253        0.858        0.113      121.942       15.503        0.016      331.765       -0.009      874.139
12/25/2013  01:13:00     -122.640      -59.150      -11.905       26.064       26.939       17.450      679.307      725.720      304.504        1.019        0.085      136.159       16.654        0.015      331.808        0.061      874.147
12/25/2013  01:14:00     -112.364      -66.712        1.086       36.041       27.162       25.098     1298.949      737.798      629.908        0.987        0.133      130.676       23.214        0.032      331.847        0.127      874.137
12/25/2013  01:15:00     -116.828      -73.326        1.493       31.700       24.592       18.041     1004.884      604.779      325.476        1.048        0.097      137.933       17.975        0.017      331.931        0.264      874.143
12/25/2013  01:16:00     -120.777      -71.278       -1.676       28.342       24.371       21.163      803.285      593.951      447.867        1.076        0.092      140.241       16.164        0.013      331.934        0.269      874.152
12/25/2013  01:17:00     -114.445      -58.900        2.922       40.870       22.199       18.703     1670.381      492.776      349.792        0.954        0.126      128.712       19.102        0.022      331.939        0.277      874.156
12/25/2013  01:18:00     -119.166      -67.532       -2.145       32.237       28.227       21.099     1039.201      796.763      445.161        1.052        0.114      136.971       18.685        0.019      331.967        0.323      874.149
12/25/2013  01:19:00     -124.930      -59.721       -1.417       22.540       21.023       14.992      508.052      441.973      224.769        1.018        0.059      138.471       11.813        0.007      331.898        0.209      874.141
12/25/2013  01:20:00     -127.835      -53.990        3.153       30.485       25.855       18.895      929.327      668.484      357.007        1.061        0.098      138.768       14.018        0.010      331.879        0.178      874.139
12/25/2013  01:21:00     -143.413      -55.005        1.533       26.003       24.224       15.719      676.176      586.806      247.099        1.255        0.076      153.600       14.032        0.008      331.954        0.301      874.145
12/25/2013  01:22:00     -120.510      -39.796       -6.098       53.318       32.936       22.327     2842.833     1084.793      498.514        1.028        0.221      126.911       23.975        0.036      331.979        0.344      874.153
12/25/2013  01:23:00     -146.762      -47.997        0.222       24.522       26.593       16.021      601.315      707.196      256.667        1.270        0.078      154.411       14.701        0.009      331.947        0.290      874.148
12/25/2013  01:24:00     -131.576      -56.714       -3.310       32.758       19.356       18.156     1073.115      374.649      329.657        1.116        0.089      143.278       19.476        0.018      331.958        0.308      874.145
12/25/2013  01:25:00     -110.104      -68.452      -10.608       22.399       19.462       14.107      501.732      378.768      199.002        0.900        0.054      129.648       10.241        0.006      331.907        0.225      874.146
12/25/2013  01:26:00     -146.933      -61.653      -14.169       22.162       19.717       13.847      491.141      388.741      191.745        1.333        0.054      159.344        8.435        0.003      331.962        0.314      874.158
12/25/2013  01:27:00     -121.630      -45.010       -6.325       23.552       23.389       15.879      554.694      547.055      252.129        0.911        0.068      129.691       13.073        0.010      331.946        0.288      874.173
12/25/2013  01:28:00     -111.065      -44.977        1.370       28.378       21.437       14.298      805.286      459.541      204.436        0.791        0.073      119.827       10.656        0.008      331.901        0.215      874.183
12/25/2013  01:29:00     -118.178      -30.777       -8.116       27.047       16.852       13.030      731.556      283.984      169.792        0.808        0.059      122.120       15.153        0.015      331.838        0.110      874.185
12/25/2013  01:30:00     -127.981      -37.067      -11.631       12.733       14.791       10.595      162.133      218.787      112.258        0.919        0.025      133.241        3.309        0.001      331.778        0.014      874.180
12/25/2013  01:31:00     -109.935      -40.002       -8.437       17.122       19.969       14.904      293.150      398.749      222.126        0.734        0.046      116.987        9.039        0.006      331.747       -0.038      874.177
12/25/2013  01:32:00     -101.129      -41.432       -8.790       26.870       22.968       17.293      722.013      527.534      299.055        0.678        0.077      109.287        9.244        0.007      331.809        0.064      874.176
12/25/2013  01:33:00     -127.907      -28.390      -20.764       44.307       25.390       14.520     1963.073      644.630      210.819        1.021        0.141      131.020       11.670        0.008      331.698       -0.117      874.182
12/25/2013  01:34:00      -54.384       -6.223      -15.925       30.863       47.419       16.430      952.495     2248.585      269.949        0.336        0.174       54.739       17.354        0.101      331.751       -0.031      874.185
12/25/2013  01:35:00      -56.957       -7.706        3.064       37.716       30.741       22.957     1422.520      945.027      527.005        0.310        0.145       57.476       18.932        0.109      331.794        0.039      874.189
12/25/2013  01:36:00      -43.565        8.322        1.413       42.473       22.775       19.796     1803.976      518.681      391.873        0.234        0.136       44.352       19.249        0.188      331.758       -0.019      874.204
12/25/2013  01:37:00      -29.668       -7.456        6.567       23.112       22.047       14.556      534.176      486.090      211.881        0.111        0.062       30.591       10.200        0.111      331.770       -0.000      874.216
12/25/2013  01:38:00      -45.737       -9.541       -6.366       26.051       15.007       14.672      678.677      225.203      215.260        0.167        0.056       46.721       12.095        0.067      331.797        0.043      874.210
12/25/2013  01:39:00      -17.932      -25.233        3.704       26.129       22.774       12.500      682.699      518.660      156.260        0.116        0.068       30.956       12.150        0.154      331.858        0.143      874.204
12/25/2013  01:40:00      -15.419       -3.244       -6.924       10.400        7.789        7.933      108.163       60.667       62.939        0.026        0.012       15.756        7.126        0.205      331.878        0.175      874.201
12/25/2013  01:41:00      -19.164       -4.325       -8.826        8.929        7.981        8.988       79.729       63.699       80.780        0.034        0.011       19.646        7.540        0.147      331.906        0.224      874.198
12/25/2013  01:42:00      -17.121       -7.995       -9.020        8.097        7.592        6.568       65.569       57.637       43.138        0.030        0.008       18.896        1.815        0.009      331.915        0.240      874.199
12/25/2013  01:43:00      -32.708      -22.489       -6.746       10.396       14.485        9.749      108.086      209.804       95.049        0.102        0.021       39.694        5.468        0.019      331.952        0.300      874.197
12/25/2013  01:44:00      -34.744      -25.216        0.284       21.161       10.106       11.239      447.772      102.135      126.323        0.126        0.034       42.930        7.596        0.031      331.849        0.129      874.195
12/25/2013  01:45:00      -97.891      -22.650      -13.896       10.385       10.821        7.025      107.843      117.084       49.349        0.528        0.014      100.477        4.370        0.002      331.725       -0.074      874.207
12/25/2013  01:46:00      -95.644      -37.452      -16.894       13.383       13.169        9.766      179.097      173.413       95.382        0.564        0.022      102.715        5.368        0.003      331.651       -0.194      874.223
12/25/2013  01:47:00     -105.555      -45.406      -12.006       11.554       14.751        9.221      133.495      217.595       85.020        0.689        0.022      114.906        4.217        0.001      331.670       -0.164      874.241
12/25/2013  01:48:00     -114.739      -49.933      -10.852       16.913       15.442       10.383      286.061      238.445      107.811        0.820        0.032      125.133        5.977        0.002      331.714       -0.091      874.242
12/25/2013  01:49:00     -110.765      -41.109       -9.569       16.633       15.128       10.654      276.661      228.854      113.498        0.733        0.031      118.148        5.644        0.002      331.685       -0.140      874.236
12/25/2013  01:50:00     -106.439      -27.749      -15.623       17.134       18.231       16.344      293.579      332.382      267.118        0.662        0.045      109.997       12.411        0.013      331.659       -0.182      874.229
12/25/2013  01:51:00      -97.021      -43.423      -12.872       14.710       17.078       10.488      216.396      291.649      110.003        0.604        0.031      106.295        8.974        0.007      331.617       -0.252      874.232
12/25/2013  01:52:00      -60.105      -34.970        4.303       34.291       24.369       15.689     1175.890      593.851      246.135        0.343        0.101       69.537       16.109        0.054      331.611       -0.263      874.238
12/25/2013  01:53:00     -100.064      -48.592      -10.198       27.311       18.284       13.425      745.916      334.302      180.238        0.687        0.063      111.239       15.484        0.019      331.585       -0.305      874.258
12/25/2013  01:54:00      -99.613      -51.164       -5.549       19.171       19.697       17.701      367.541      387.959      313.330        0.682        0.053      111.985       11.238        0.010      331.515       -0.420      874.257
12/25/2013  01:55:00     -106.800      -56.675       -7.720       19.042       22.336       14.646      362.590      498.881      214.519        0.788        0.054      120.906       10.660        0.008      331.498       -0.448      874.249
12/25/2013  01:56:00      -92.546      -27.914       -9.956       15.015       15.798       12.061      225.439      249.572      145.478        0.503        0.031       96.664        8.451        0.008      331.529       -0.398      874.257
12/25/2013  01:57:00      -76.534      -40.436       -2.012       22.286       15.091       16.928      496.673      227.745      286.571        0.425        0.051       86.559       13.897        0.026      331.551       -0.360      874.280
12/25/2013  01:58:00      -87.999      -36.930       -6.902       22.663       18.212       15.358      513.610      331.664      235.858        0.512        0.054       95.434       10.451        0.012      331.546       -0.370      874.296
12/25/2013  01:59:00     -110.194      -41.867      -10.534       13.227       14.858       11.842      174.945      220.767      140.228        0.727        0.027      117.879        5.893        0.002      331.673       -0.160      874.282
12/25/2013  02:00:00      -95.220      -37.849      -16.744        8.997        8.668        8.717       80.945       75.135       75.990        0.551        0.012      102.466        3.927        0.001      331.561       -0.346      874.274
12/25/2013  02:01:00      -95.874      -18.023       -9.660       10.409       11.068        8.989      108.347      122.509       80.809        0.496        0.016       97.554        5.237        0.003      331.631       -0.229      874.269
12/25/2013  02:02:00      -96.982      -25.581      -16.194        9.846       10.061        8.698       96.939      101.225       75.647        0.530        0.014      100.299        4.823        0.002      331.578       -0.318      874.280
12/25/2013  02:03:00      -92.422      -14.147      -15.015        9.870       12.814        8.718       97.415      164.188       76.006        0.465        0.017       93.499        4.449        0.002      331.552       -0.361      874.274
12/25/2013  02:04:00      -74.197      -16.585      -11.511       13.474       13.610       14.021      181.537      185.223      196.578        0.324        0.028       76.028        8.586        0.013      331.553       -0.358      874.257
12/25/2013  02:05:00      -87.030       -2.781       -9.291       25.531       16.341       18.315      651.853      267.013      335.432        0.446        0.063       87.075       16.886        0.038      331.514       -0.422      874.244
12/25/2013  02:06:00      -86.335       -2.578      -14.499       12.085       10.275        8.877      146.036      105.567       78.808        0.400        0.017       86.374        4.436        0.003      331.502       -0.443      874.242
12/25/2013  02:07:00      -67.794       -8.783      -13.543        9.782        7.651        9.402       95.680       58.538       88.390        0.255        0.012       68.361        5.473        0.006      331.582       -0.310      874.249
12/25/2013  02:08:00      -65.784      -22.688      -10.280        8.916        9.820        8.680       79.493       96.429       75.349        0.260        0.013       69.587        5.838        0.007      331.548       -0.367      874.262
12/25/2013  02:09:00      -63.072      -17.687      -14.031       13.445       12.990        6.612      180.761      168.741       43.719        0.244        0.020       65.505        8.101        0.015      331.515       -0.420      874.263
12/25/2013  02:10:00      -69.889      -18.424       -8.652       18.454       12.337        8.500      340.538      152.204       72.250        0.293        0.028       72.276        5.685        0.006      331.485       -0.470      874.264
12/25/2013  02:11:00      -67.697      -23.828       -9.524       22.318       17.100       10.774      498.111      292.418      116.083        0.307        0.045       71.768       11.908        0.028      331.484       -0.472      874.269
12/25/2013  02:12:00      -53.031      -31.733       -9.939       22.653       12.300       12.126      513.153      151.281      147.047        0.236        0.041       61.801        9.639        0.024      331.508       -0.432      874.285
12/25/2013  02:13:00      -78.498       -5.494      -17.437        9.909       11.022        9.442       98.185      121.482       89.157        0.340        0.015       78.690        6.706        0.007      331.510       -0.430      874.303
12/25/2013  02:14:00      -89.557       -7.681      -14.354       13.229       12.078       11.740      175.015      145.873      137.832        0.437        0.023       89.886        7.859        0.008      331.466       -0.502      874.314
12/25/2013  02:15:00      -84.952      -16.136      -12.983        8.960        8.358        7.264       80.289       69.863       52.760        0.392        0.010       86.471        3.930        0.002      331.416       -0.583      874.310
12/25/2013  02:16:00      -66.673      -24.883      -11.710       15.391       19.364       11.229      236.896      374.974      126.097        0.297        0.037       71.165        9.012        0.016      331.434       -0.555      874.316
12/25/2013  02:17:00      -58.788      -24.176      -12.237       13.473       10.875        7.231      181.518      118.265       52.294        0.227        0.018       63.565        1.220        0.000      331.515       -0.420      874.334
12/25/2013  02:18:00      -66.678      -24.117      -10.569       15.085       12.137        7.596      227.543      147.304       57.693        0.279        0.022       70.906        5.693        0.006      331.509       -0.430      874.353
12/25/2013  02:19:00      -95.583      -10.092      -12.898       17.088        9.656       11.093      292.013       93.240      123.053        0.496        0.025       96.114       10.111        0.011      331.521       -0.411      874.354
12/25/2013  02:20:00      -97.420      -15.257      -16.696       16.597        9.477        9.089      275.457       89.811       82.601        0.522        0.022       98.607        7.157        0.005      331.551       -0.363      874.360
12/25/2013  02:21:00      -96.735      -33.747      -13.338        8.554        8.685        6.722       73.168       75.432       45.186        0.543        0.010      102.452        2.766        0.001      331.558       -0.350      874.364
12/25/2013  02:22:00      -90.558      -36.589      -13.223       11.366       12.212       10.440      129.176      149.144      108.995        0.505        0.019       97.670        4.813        0.002      331.531       -0.393      874.367
12/25/2013  02:23:00      -97.620      -31.680      -11.476        8.374       12.821        8.210       70.117      164.368       67.404        0.548        0.015      102.632        5.114        0.002      331.589       -0.298      874.363
12/25/2013  02:24:00      -99.014      -30.018      -14.919       14.267       13.095        7.128      203.546      171.487       50.815        0.568        0.021      103.464        5.266        0.003      331.618       -0.251      874.348
12/25/2013  02:25:00      -92.812      -22.478      -13.516       11.761       11.135        9.253      138.325      123.998       85.619        0.482        0.017       95.496        5.650        0.004      331.576       -0.317      874.330
12/25/2013  02:26:00      -94.162      -30.090       -8.964       15.472       11.983       11.421      239.377      143.603      130.435        0.518        0.026       98.853        7.490        0.006      331.512       -0.425      874.319
12/25/2013  02:27:00      -97.812      -37.902      -10.656       13.651       12.432       11.300      186.345      154.548      127.684        0.579        0.023      104.899        7.601        0.005      331.492       -0.459      874.317
12/25/2013  02:28:00      -98.399      -44.064       -7.303       11.585       16.808        8.961      134.202      282.493       80.304        0.609        0.025      107.814        6.016        0.003      331.483       -0.473      874.323
12/25/2013  02:29:00     -117.021      -47.283      -12.255       11.464       12.620        7.588      131.426      159.275       57.575        0.821        0.017      126.212        4.876        0.001      331.514       -0.421      874.337
12/25/2013  02:30:00     -124.682      -42.881      -13.340        9.766        8.637       10.232       95.382       74.601      104.700        0.892        0.014      131.850        5.921        0.002      331.486       -0.470      874.342
12/25/2013  02:31:00     -111.314      -51.737      -15.880        8.260       10.424        9.311       68.231      108.669       86.703        0.779        0.013      122.750        5.321        0.002      331.400       -0.610      874.345
12/25/2013  02:32:00     -103.707      -42.938      -16.571       10.242       10.762        9.709      104.890      115.828       94.262        0.659        0.016      112.245        5.645        0.003      331.428       -0.564      874.353
12/25/2013  02:33:00     -107.044      -36.915      -16.511       10.079       14.231        8.601      101.591      202.507       73.975        0.674        0.019      113.230        4.782        0.002      331.455       -0.518      874.353
12/25/2013  02:34:00     -104.304      -21.461      -15.231        9.942       13.168       12.589       98.842      173.402      158.476        0.600        0.022      106.489        6.436        0.004      331.486       -0.468      874.357
12/25/2013  02:35:00     -106.462      -41.435      -14.624       10.240       13.231        8.303      104.854      175.048       68.932        0.681        0.017      114.241        3.889        0.001      331.476       -0.484      874.363
12/25/2013  02:36:00     -117.659      -54.899       -7.915       16.339       16.400       14.021      266.978      268.965      196.600        0.883        0.037      129.836        8.068        0.004      331.432       -0.557      874.368
12/25/2013  02:37:00     -137.221      -64.461       -2.554       28.467       20.364       18.561      810.362      414.699      344.520        1.228        0.078      151.608       16.716        0.012      331.411       -0.592      874.368
12/25/2013  02:38:00      -68.306      -43.575       10.191       49.737       27.755       25.758     2473.740      770.339      663.472        0.529        0.195       81.021       28.198        0.121      331.338       -0.710      874.376
12/25/2013  02:39:00      -79.136      -64.544        4.414       53.582       29.021       25.002     2870.996      842.239      625.075        0.739        0.217      102.120       24.416        0.057      331.383       -0.636      874.388
12/25/2013  02:40:00      -90.707      -85.804       -7.321       35.908       36.046       18.206     1289.396     1299.344      331.476        0.928        0.146      124.860       15.938        0.016      331.449       -0.529      874.404
12/25/2013  02:41:00      -93.166      -48.379       -2.275       28.792       24.963       19.579      828.996      623.176      383.337        0.643        0.092      104.979       10.931        0.011      331.416       -0.584      874.415
12/25/2013  02:42:00      -63.235      -36.890        8.833       46.716       27.697       20.276     2182.430      767.109      411.133        0.440        0.168       73.209       20.794        0.081      331.424       -0.570      874.418
12/25/2013  02:43:00      -59.906      -26.505        8.647       39.558       34.937       25.074     1564.863     1220.621      628.698        0.389        0.171       65.508       21.789        0.111      331.413       -0.588      874.407
12/25/2013  02:44:00      -54.288      -42.235        6.393       39.315       35.384       25.201     1545.661     1252.056      635.076        0.410        0.172       68.782       21.900        0.101      331.355       -0.684      874.388
12/25/2013  02:45:00      -84.109      -55.302       -2.407       37.179       26.919       20.275     1382.268      724.639      411.087        0.633        0.126      100.661       20.427        0.041      331.365       -0.667      874.371
12/25/2013  02:46:00      -83.206      -63.898       -4.468       27.411       19.007       16.029      751.346      361.252      256.922        0.620        0.068      104.911        8.126        0.006      331.422       -0.574      874.355
12/25/2013  02:47:00     -104.961      -60.286       -8.531       28.024       21.801       19.129      785.349      475.304      365.933        0.817        0.081      121.042       14.651        0.015      331.332       -0.720      874.340
12/25/2013  02:48:00      -71.973      -46.059        6.446       49.816       33.528       21.611     2481.604     1124.136      467.055        0.571        0.204       85.449       22.670        0.070      331.305       -0.764      874.331
12/25/2013  02:49:00      -74.014      -45.045        7.919       47.782       26.726       23.799     2283.072      714.273      566.403        0.557        0.178       86.644       23.598        0.074      331.288       -0.794      874.342
12/25/2013  02:50:00      -80.913      -43.087        8.162       57.902       31.009       27.810     3352.612      961.531      773.375        0.678        0.254       91.670       30.592        0.111      331.356       -0.681      874.350
12/25/2013  02:51:00     -110.132      -58.300        8.742       38.266       31.443       24.038     1464.295      988.640      577.805        0.932        0.152      124.611       23.146        0.035      331.275       -0.814      874.351
12/25/2013  02:52:00     -105.443      -68.896      -11.533       24.100       23.746       13.806      580.799      563.875      190.603        0.867        0.067      125.956       11.666        0.009      331.271       -0.821      874.354
12/25/2013  02:53:00     -110.551      -60.037       -5.653       21.922       20.481       16.398      480.575      419.459      268.878        0.851        0.058      125.801       13.156        0.011      331.291       -0.790      874.355
12/25/2013  02:54:00     -100.064      -45.813       -0.990       34.475       26.936       18.450     1188.531      725.555      340.417        0.718        0.113      110.053       13.667        0.015      331.370       -0.659      874.353
12/25/2013  02:55:00     -109.637      -52.324       -0.959       41.503       23.866       14.923     1722.499      569.601      222.710        0.864        0.126      121.483       16.894        0.019      331.384       -0.636      874.350
12/25/2013  02:56:00     -105.389      -43.268       -2.394       21.294       19.006       15.021      453.450      361.230      225.639        0.701        0.052      113.926       11.202        0.010      331.367       -0.663      874.347
12/25/2013  02:57:00      -92.068      -30.758        1.373       30.585       22.443       12.221      935.416      503.694      149.353        0.551        0.079       97.070        8.923        0.008      331.342       -0.705      874.351
12/25/2013  02:58:00      -62.721      -49.533       -0.674       35.616       26.702       16.033     1268.490      712.981      257.064        0.431        0.112       79.922        9.033        0.013      331.352       -0.687      874.340
12/25/2013  02:59:00     -104.995      -54.453       -6.284       18.394       18.530       13.633      338.326      343.360      185.852        0.745        0.043      118.275        3.425        0.001      331.341       -0.706      874.330
12/25/2013  03:00:00     -104.750      -48.786       -3.413       19.648       18.516       16.202      386.030      342.824      262.515        0.718        0.050      115.554       10.630        0.008      331.309       -0.758      874.318
12/25/2013  03:01:00      -90.141      -47.545        5.124       33.188       32.642       21.371     1101.431     1065.502      456.700        0.652        0.131      101.911       18.046        0.031      331.315       -0.748      874.314
12/25/2013  03:02:00      -84.913      -47.320        1.162       34.611       24.273       21.903     1197.892      589.188      479.736        0.586        0.113       97.208       14.895        0.023      331.338       -0.711      874.295
12/25/2013  03:03:00     -112.040      -44.468      -12.401       22.444       20.612       13.101      503.739      424.844      171.648        0.789        0.055      120.542        6.984        0.003      331.291       -0.787      874.291
12/25/2013  03:04:00     -103.175      -34.090      -10.019       18.261       21.396       13.048      333.475      457.777      170.250        0.643        0.048      108.661        9.648        0.008      331.295       -0.781      874.282
12/25/2013  03:05:00     -108.618      -34.903        0.096       40.850       28.943       20.466     1668.757      837.692      418.847        0.797        0.146      114.088       13.332        0.014      331.283       -0.801      874.273
12/25/2013  03:06:00     -110.698      -29.258       -5.387       36.851       34.716       16.872     1358.004     1205.206      284.658        0.799        0.142      114.499       15.197        0.018      331.328       -0.727      874.271
12/25/2013  03:07:00      -65.733      -12.719        1.402       33.538       35.622       21.844     1124.780     1268.949      477.158        0.368        0.144       66.952       16.982        0.064      331.313       -0.751      874.273
12/25/2013  03:08:00     -103.075      -11.066       -1.585       36.599       44.371       21.881     1339.474     1968.773      478.793        0.727        0.189      103.667       19.947        0.037      331.400       -0.609      874.289
12/25/2013  03:09:00     -111.770       -1.400      -12.853       34.815       32.112       19.558     1212.080     1031.181      382.521        0.764        0.131      111.779       15.499        0.019      331.430       -0.562      874.303
12/25/2013  03:10:00      -95.250      -19.673       -3.750       54.238       41.802       21.642     2941.801     1747.403      468.358        0.731        0.258       97.260       23.457        0.058      331.365       -0.667      874.307
12/25/2013  03:11:00     -144.480      -36.091      -10.578       37.521       37.055       19.312     1407.859     1373.066      372.951        1.272        0.158      148.920       16.000        0.012      331.374       -0.651      874.312
12/25/2013  03:12:00     -110.624      -19.549       -8.883       42.713       39.863       21.980     1824.412     1589.067      483.130        0.830        0.195      112.338       23.013        0.042      331.338       -0.710      874.309
12/25/2013  03:13:00      -77.773      -25.067       -3.250       33.845       25.211       16.057     1145.501      635.601      257.840        0.436        0.102       81.713       16.157        0.039      331.318       -0.744      874.318
12/25/2013  03:14:00     -146.286      -13.225      -10.368       35.787       23.169       14.689     1280.687      536.826      215.755        1.186        0.102      146.882       13.860        0.009      331.398       -0.613      874.323
12/25/2013  03:15:00     -137.131      -11.990      -13.862       31.076       26.838       14.412      965.735      720.290      207.708        1.052        0.095      137.655       11.608        0.007      331.420       -0.576      874.316
12/25/2013  03:16:00     -155.846       -0.639      -18.091       23.947       21.404       15.934      573.448      458.123      253.888        1.295        0.064      155.847       11.277        0.005      331.438       -0.548      874.298
12/25/2013  03:17:00     -141.483       -6.530      -21.987       19.921       18.049       15.690      396.836      325.762      246.180        1.076        0.048      141.634        9.481        0.004      331.404       -0.604      874.284
12/25/2013  03:18:00     -103.531      -11.296       -4.939       41.353       24.944       17.116     1710.088      622.226      292.961        0.675        0.131      104.145       17.651        0.029      331.419       -0.577      874.269
12/25/2013  03:19:00     -104.999      -33.261       -4.983       40.870       26.915       14.169     1670.368      724.406      200.767        0.738        0.130      110.141       18.775        0.029      331.397       -0.615      874.259
12/25/2013  03:20:00     -101.412      -66.250       -6.544       27.756       16.147       12.039      770.374      260.725      144.949        0.795        0.059      121.134       10.101        0.007      331.387       -0.632      874.253
12/25/2013  03:21:00     -104.358      -54.897       -7.652       22.274       26.360       14.453      496.134      694.867      208.903        0.768        0.070      117.916        8.491        0.005      331.369       -0.661      874.241
12/25/2013  03:22:00      -70.816      -51.963      -10.403       23.937       18.661       14.880      572.982      348.239      221.416        0.448        0.057       87.835        7.203        0.007      331.352       -0.689      874.239
12/25/2013  03:23:00      -51.042      -43.690       -1.657       31.151       22.678       15.643      970.409      514.312      244.693        0.312        0.086       67.187       13.444        0.040      331.422       -0.575      874.248
12/25/2013  03:24:00      -91.814      -42.225      -12.561       16.594       11.208       12.806      275.361      125.627      163.987        0.547        0.028      101.058       11.430        0.013      331.387       -0.631      874.247
12/25/2013  03:25:00      -82.230      -48.910       -9.651       26.251       17.368        9.008      689.105      301.661       81.151        0.516        0.054       95.676        4.267        0.002      331.401       -0.607      874.235
12/25/2013  03:26:00      -75.637      -34.620       -2.026       28.858       16.671       15.658      832.797      277.931      245.179        0.414        0.068       83.183       15.734        0.036      331.323       -0.736      874.218
12/25/2013  03:27:00      -93.011      -49.859      -10.427       18.560       15.836       11.005      344.468      250.773      121.106        0.598        0.036      105.532        9.383        0.008      331.325       -0.732      874.199
12/25/2013  03:28:00     -119.495      -42.624      -15.791        9.184        9.986        6.692       84.344       99.719       44.780        0.829        0.011      126.870        2.908        0.001      331.305       -0.765      874.183
12/25/2013  03:29:00     -106.367      -46.274      -13.601       14.750       14.685       11.641      217.566      215.635      135.520        0.710        0.028      115.996        3.335        0.001      331.311       -0.756      874.172
12/25/2013  03:30:00      -95.095      -39.967      -12.246       12.639       12.919        8.483      159.733      166.889       71.957        0.559        0.020      103.153        4.912        0.002      331.279       -0.808      874.172
12/25/2013  03:31:00     -101.069      -41.511       -5.445       10.254       11.500        9.568      105.138      132.255       91.543        0.615        0.016      109.261        7.302        0.004      331.287       -0.794      874.178
12/25/2013  03:32:00      -74.069      -46.337        0.180       33.113       15.256       15.071     1096.447      232.734      227.140        0.459        0.078       87.369       16.567        0.036      331.251       -0.854      874.184
12/25/2013  03:33:00      -23.581      -13.671        8.293       27.466       19.249       14.885      754.405      370.518      221.573        0.108        0.067       27.258       15.978        0.344      331.249       -0.857      874.184
12/25/2013  03:34:00      -36.619      -48.739       -0.379       34.922       22.949       15.201     1219.567      526.649      231.085        0.285        0.099       60.963       14.188        0.054      331.225       -0.897      874.175
12/25/2013  03:35:00      -32.991      -27.331        5.058       32.397       20.996       17.603     1049.539      440.841      309.849        0.183        0.090       42.841       15.625        0.133      331.146       -1.027      874.163
12/25/2013  03:36:00      -61.336      -47.961        0.132       37.899       23.709       15.643     1436.322      562.135      244.703        0.415        0.112       77.861       12.551        0.026      331.163       -0.999      874.163
12/25/2013  03:37:00      -10.906      -32.695       13.775       38.425       23.574       20.737     1476.443      555.739      430.043        0.192        0.123       34.466       19.280        0.313      331.210       -0.921      874.171
12/25/2013  03:38:00      -60.741      -64.780       -3.263       39.296       29.797       20.695     1544.172      887.877      428.276        0.538        0.143       88.803       19.012        0.046      331.227       -0.894      874.182
12/25/2013  03:39:00      -94.739      -81.102      -10.232       22.589       28.474       18.308      510.264      810.765      335.169        0.866        0.083      124.712        5.736        0.002      331.256       -0.845      874.175
12/25/2013  03:40:00      -74.103      -65.079       -3.210       24.406       33.252       19.211      595.642     1105.726      369.068        0.590        0.104       98.623       13.114        0.018      331.174       -0.982      874.168
12/25/2013  03:41:00     -111.805      -93.139       -6.859       38.635       43.380       24.926     1492.656     1881.859      621.284        1.261        0.200      145.517       17.304        0.014      331.154       -1.015      874.145
12/25/2013  03:42:00      -99.750      -91.866        2.165       36.926       53.254       24.398     1363.497     2836.005      595.282        1.159        0.240      135.607       16.007        0.014      331.085       -1.126      874.131
12/25/2013  03:43:00     -104.927      -52.828       -1.139       33.406       44.573       24.368     1115.970     1986.731      593.806        0.875        0.185      117.475       15.791        0.018      331.097       -1.109      874.122
12/25/2013  03:44:00     -103.383      -90.105       -3.475       43.224       48.782       24.176     1868.338     2379.654      584.460        1.182        0.242      137.138       18.826        0.019      331.043       -1.198      874.114
12/25/2013  03:45:00      -76.211      -74.641       -4.258       29.866       34.689       16.451      891.965     1203.337      270.630        0.688        0.118      106.674       17.086        0.026      331.123       -1.066      874.102
12/25/2013  03:46:00      -45.300      -42.788        5.983       34.364       31.481       17.390     1180.919      991.061      302.411        0.320        0.124       62.313       18.726        0.090      331.052       -1.181      874.094
12/25/2013  03:47:00      -75.565      -53.477       -7.436       21.587       27.167       14.142      466.007      738.036      200.008        0.501        0.070       92.573       12.067        0.017      331.077       -1.142      874.093
12/25/2013  03:48:00      -56.177      -42.784       -1.121       32.388       18.749       15.628     1048.984      351.519      244.250        0.332        0.082       70.615       14.195        0.040      331.142       -1.035      874.079
12/25/2013  03:49:00      -70.623      -31.889        3.022       32.923       18.025       10.958     1083.946      324.911      120.084        0.377        0.076       77.489       13.138        0.029      331.081       -1.135      874.061
12/25/2013  03:50:00      -27.890      -22.479        1.426       31.886       20.411       14.946     1016.743      416.622      223.393        0.147        0.083       35.822       17.770        0.246      331.139       -1.037      874.057
12/25/2013  03:51:00      -78.320      -21.903       -4.025       23.280       14.996       10.741      541.950      224.871      115.366        0.376        0.044       81.325        5.404        0.004      331.109       -1.088      874.043
12/25/2013  03:52:00      -72.037      -23.418       -3.546       30.995       21.778       13.271      960.703      474.300      176.121        0.368        0.081       75.748       13.414        0.031      331.066       -1.159      874.028
12/25/2013  03:53:00     -118.675      -33.475       -7.361       13.638       15.066       10.839      185.991      226.993      117.478        0.789        0.027      123.306        6.263        0.003      331.047       -1.191      874.020
12/25/2013  03:54:00      -95.007      -41.657        1.323       19.067       18.186       14.564      363.534      330.734      212.113        0.583        0.045      103.738       12.404        0.014      331.066       -1.159      874.020
12/25/2013  03:55:00      -90.825      -34.099       -3.276       22.565       20.645       12.670      509.200      426.219      160.525        0.526        0.055       97.015       10.338        0.011      331.020       -1.236      874.015
12/25/2013  03:56:00     -119.978      -40.899      -11.036       15.721       13.097        9.576      247.165      171.544       91.704        0.835        0.026      126.757        4.724        0.001      331.064       -1.162      874.017
12/25/2013  03:57:00      -99.655      -38.089       -2.071       21.385       21.481       12.988      457.333      461.444      168.685        0.624        0.054      106.686       10.114        0.009      331.049       -1.187      874.029
12/25/2013  03:58:00      -62.907      -24.595        5.919       31.482       23.738       14.879      991.140      563.497      221.377        0.319        0.089       67.544       14.865        0.048      331.043       -1.196      874.027
12/25/2013  03:59:00      -98.506      -32.440       -3.940       24.696       17.351       14.160      609.879      301.048      200.519        0.594        0.056      103.710       13.345        0.017      331.021       -1.231      874.011
12/25/2013  04:00:00     -100.147      -24.962       -9.490       24.927       21.044       14.563      621.363      442.849      212.080        0.601        0.064      103.211       14.862        0.021      331.044       -1.195      874.004
12/25/2013  04:01:00     -106.137      -43.393       -5.132       15.506       20.177       12.905      240.440      407.109      166.532        0.699        0.041      114.665        8.055        0.005      331.027       -1.223      873.995
12/25/2013  04:02:00      -90.954      -27.216       -5.214       22.742       26.117       12.385      517.182      682.092      153.381        0.520        0.068       94.938        8.589        0.008      331.012       -1.248      873.989
12/25/2013  04:03:00      -81.409      -22.972       -2.070       41.959       16.180       18.010     1760.543      261.786      324.376        0.475        0.117       84.588       23.230        0.075      331.012       -1.248      873.981
12/25/2013  04:04:00      -55.166      -21.419        5.250       32.010       24.854       18.516     1024.647      617.722      342.850        0.276        0.099       59.178       17.731        0.090      330.938       -1.368      873.987
12/25/2013  04:05:00      -73.124      -12.319        2.870       26.422       16.818       13.076      698.134      282.830      170.976        0.333        0.058       74.155       13.470        0.033      330.925       -1.389      873.994
12/25/2013  04:06:00      -94.479      -20.460       -6.734       18.294       15.300       12.177      334.659      234.082      148.283        0.505        0.036       96.669       11.475        0.014      330.937       -1.368      873.999
12/25/2013  04:07:00     -109.998      -17.922       -9.843       14.006       16.545       12.529      196.161      273.740      156.974        0.657        0.031      111.449       10.828        0.009      330.915       -1.406      874.002
12/25/2013  04:08:00     -108.733      -27.978       -8.615        8.989        9.699        7.806       80.793       94.062       60.941        0.646        0.012      112.275        4.167        0.001      330.942       -1.362      874.002
12/25/2013  04:09:00      -85.461      -21.412       -9.072       14.484       14.668       11.875      209.788      215.161      141.024        0.421        0.028       88.103        7.299        0.007      330.922       -1.394      874.001
12/25/2013  04:10:00      -65.842       -3.468       -6.544       23.748       13.590       14.211      563.950      184.681      201.941        0.267        0.048       65.933       13.662        0.043      330.864       -1.490      874.005
12/25/2013  04:11:00      -75.117      -11.642       -8.015       19.246        9.259        9.805      370.398       85.721       96.144        0.320        0.028       76.014       10.003        0.017      330.833       -1.541      874.007
12/25/2013  04:12:00      -75.334      -11.828       -7.812       12.657       11.481       10.407      160.200      131.807      108.311        0.314        0.020       76.257        9.041        0.014      330.895       -1.440      874.007
12/25/2013  04:13:00      -71.899      -15.630       -6.835       23.381       18.578       11.169      546.684      345.146      124.739        0.324        0.051       73.578       13.364        0.033      330.928       -1.384      874.016
12/25/2013  04:14:00      -82.461       -3.632       -6.966       16.703       11.779       11.103      278.979      138.736      123.279        0.370        0.027       82.541        9.333        0.013      330.861       -1.494      874.015
12/25/2013  04:15:00      -71.872       -7.268      -10.473        9.352       13.507        8.676       87.462      182.440       75.275        0.284        0.017       72.239        6.158        0.007      330.875       -1.471      874.012
12/25/2013  04:16:00      -58.327      -22.541       -6.625        8.913        6.978        6.525       79.450       48.697       42.572        0.206        0.009       62.531        3.739        0.004      330.965       -1.326      874.020
12/25/2013  04:17:00      -74.869      -24.343      -12.788        9.454        7.582        7.664       89.378       57.488       58.741        0.328        0.010       78.727        4.352        0.003      330.969       -1.319      874.029
12/25/2013  04:18:00      -82.921      -37.277      -13.828       10.472        8.396        6.122      109.671       70.490       37.477        0.434        0.011       90.914        4.020        0.002      330.975       -1.308      874.034
12/25/2013  04:19:00      -81.192      -50.286       -5.755       20.683       11.717       12.489      427.786      137.295      155.966        0.494        0.036       95.503        8.237        0.007      330.953       -1.344      874.032
12/25/2013  04:20:00      -91.521      -45.929       -8.250       13.855       16.584       10.200      191.961      275.030      104.045        0.556        0.029      102.400        6.591        0.004      330.822       -1.560      874.027
12/25/2013  04:21:00     -102.586      -53.288      -11.025       16.888       13.881       13.127      285.190      192.678      172.325        0.707        0.033      115.600        7.647        0.004      330.851       -1.512      874.008
12/25/2013  04:22:00      -97.533      -65.644       -8.744       29.327       20.650       15.691      860.088      426.417      246.197        0.772        0.077      117.566        7.814        0.004      330.819       -1.563      873.994
12/25/2013  04:23:00      -80.292      -46.310       -0.437       50.492       27.811       20.377     2549.436      773.432      415.234        0.616        0.187       92.690       20.751        0.050      330.739       -1.697      873.982
12/25/2013  04:24:00      -83.772      -44.042        4.384       26.717       25.934       20.273      713.780      672.596      411.010        0.539        0.090       94.644       16.828        0.032      330.832       -1.542      873.969
12/25/2013  04:25:00      -80.639      -36.891        1.182       26.279       26.118       17.406      690.601      682.166      302.958        0.477        0.084       88.678       17.270        0.038      330.828       -1.549      873.953
12/25/2013  04:26:00      -60.941      -35.033       -2.588       34.208       17.182       12.805     1170.185      295.206      163.979        0.329        0.081       70.293        9.235        0.017      330.849       -1.515      873.960
12/25/2013  04:27:00      -50.253      -43.820       -0.205       39.018       23.014       17.391     1522.429      529.625      302.440        0.340        0.118       66.675       16.509        0.061      330.844       -1.522      873.971
12/25/2013  04:28:00      -43.201      -28.533        0.193       30.521       20.954       16.993      931.522      439.081      288.775        0.217        0.083       51.773       15.619        0.091      330.785       -1.621      873.990
12/25/2013  04:29:00      -30.245      -31.800        2.239       25.974       25.720       13.969      674.653      661.524      195.129        0.173        0.077       43.886        6.863        0.024      330.845       -1.521      873.989
12/25/2013  04:30:00      -27.728      -24.747        6.332       27.225       15.623       13.425      741.182      244.068      180.229        0.129        0.058       37.165       13.298        0.128      330.877       -1.469      873.990
12/25/2013  04:31:00      -20.103      -17.665       12.892       28.691       16.133       11.806      823.193      260.280      139.370        0.105        0.061       26.761       15.647        0.342      330.884       -1.458      873.976
12/25/2013  04:32:00      -50.516      -38.935       -1.027       22.490       18.654       14.390      505.790      347.959      207.071        0.256        0.053       63.779        8.577        0.018      330.853       -1.507      873.953
12/25/2013  04:33:00      -54.072      -34.145        1.912       30.757       18.509       14.818      946.000      342.568      219.574        0.280        0.075       63.951       17.761        0.077      330.790       -1.610      873.941
12/25/2013  04:34:00      -49.388      -34.793        0.258       29.808       22.334       15.806      888.520      498.811      249.814        0.264        0.082       60.413       13.748        0.052      330.782       -1.625      873.933
12/25/2013  04:35:00      -93.260      -37.794       -3.821       21.739       17.865       11.888      472.600      319.142      141.316        0.554        0.047      100.627        8.144        0.007      330.761       -1.659      873.927
12/25/2013  04:36:00      -64.897      -33.821        4.960       33.089       27.547       14.793     1094.855      758.847      218.846        0.373        0.104       73.181       14.159        0.037      330.732       -1.708      873.923
12/25/2013  04:37:00      -42.618      -26.993        6.903       36.787       18.705       15.908     1353.294      349.886      253.058        0.227        0.098       50.447       16.402        0.106      330.748       -1.682      873.908
12/25/2013  04:38:00      -60.325      -31.872        6.162       31.132       21.015       14.026      969.211      441.632      196.737        0.315        0.080       68.227       13.080        0.037      330.751       -1.675      873.904
12/25/2013  04:39:00      -70.491      -31.535       -3.123       27.439       20.867       15.089      752.901      435.440      227.692        0.369        0.071       77.223       15.687        0.041      330.703       -1.754      873.881
12/25/2013  04:40:00      -77.771      -35.871       -0.534       39.270       15.388       16.104     1542.155      236.797      259.333        0.469        0.102       85.645       19.705        0.053      330.744       -1.688      873.875
12/25/2013  04:41:00      -77.844      -33.746        0.271       27.731       15.090       12.883      769.000      227.702      165.973        0.418        0.058       84.844       13.406        0.025      330.750       -1.676      873.880
12/25/2013  04:42:00      -44.288      -15.737        2.858       22.385       16.724        9.937      501.109      279.676       98.748        0.155        0.044       47.001       10.169        0.047      330.772       -1.641      873.874
12/25/2013  04:43:00      -54.495      -21.979       -4.226       17.933       14.878        9.900      321.587      221.364       98.018        0.206        0.032       58.760       10.337        0.031      330.760       -1.662      873.874
12/25/2013  04:44:00      -28.108      -27.141        3.199       18.094       14.879       10.899      327.377      221.375      118.791        0.110        0.033       39.073        7.270        0.035      330.778       -1.634      873.887
12/25/2013  04:45:00      -30.662      -11.138        0.585       20.091       10.590       11.036      403.658      112.155      121.804        0.085        0.032       32.622        8.487        0.068      330.789       -1.615      873.904
12/25/2013  04:46:00      -61.910       -8.012       -5.018       16.042       11.772       12.100      257.344      138.571      146.417        0.223        0.027       62.426        5.385        0.007      330.786       -1.618      873.908
12/25/2013  04:47:00      -76.486      -20.621       -8.618       13.365       16.888       13.158      178.630      285.200      173.142        0.349        0.032       79.217        5.943        0.006      330.802       -1.592      873.898
12/25/2013  04:48:00      -11.785      -18.409        3.909       25.500       15.845       15.758      650.244      251.063      248.315        0.082        0.057       21.858       13.075        0.358      330.866       -1.487      873.901
12/25/2013  04:49:00      -24.661      -19.421        0.380       17.852       10.785       10.852      318.690      116.326      117.775        0.077        0.028       31.390        6.146        0.038      330.866       -1.486      873.907
12/25/2013  04:50:00      -81.777      -28.119       -9.793       20.876       16.574        9.008      435.812      274.698       81.135        0.418        0.040       86.476        9.448        0.012      330.792       -1.608      873.898
12/25/2013  04:51:00      -98.322      -32.005       -6.585       23.025       17.366       15.368      530.162      301.584      236.164        0.590        0.053      103.400       12.534        0.015      330.771       -1.644      873.876
12/25/2013  04:52:00     -103.184      -42.898       -7.673       21.633       15.850       11.418      467.999      251.218      130.361        0.670        0.042      111.746       11.330        0.010      330.732       -1.708      873.864
12/25/2013  04:53:00      -71.340      -38.422       -2.202       20.926       13.876       10.506      437.911      192.538      110.370        0.366        0.037       81.029        8.363        0.011      330.714       -1.737      873.876
12/25/2013  04:54:00      -36.203      -21.236        1.912       33.181       21.206       13.996     1100.998      449.701      195.893        0.176        0.087       41.972       10.680        0.065      330.737       -1.699      873.889
12/25/2013  04:55:00      -76.586      -35.878       -8.218       14.316       12.333        9.085      204.946      152.092       82.533        0.383        0.022       84.573        5.093        0.004      330.752       -1.674      873.897
12/25/2013  04:56:00      -90.102      -22.889      -11.279       13.719       20.043       11.661      188.202      401.733      135.985        0.475        0.036       92.964        9.281        0.010      330.759       -1.664      873.893
12/25/2013  04:57:00      -94.519      -21.458      -10.098       14.790       12.249        8.074      218.753      150.027       65.190        0.497        0.022       96.924        5.538        0.003      330.749       -1.678      873.894
12/25/2013  04:58:00      -76.793      -19.278       -4.047       21.596       15.862       12.849      466.405      251.589      165.100        0.358        0.044       79.176       12.645        0.026      330.747       -1.684      873.891
12/25/2013  04:59:00      -80.364      -20.508       -1.211       20.458       15.456       10.611      418.539      238.895      112.587        0.383        0.039       82.939       11.766        0.020      330.722       -1.725      873.883
12/25/2013  05:00:00      -76.731      -15.429       -1.847       16.035       11.623        9.512      257.111      135.103       90.476        0.331        0.024       78.267        9.060        0.013      330.728       -1.713      873.878
12/25/2013  05:01:00     -112.132       -7.471      -12.717       16.508       12.704        9.120      272.512      161.381       83.182        0.665        0.026      112.381        7.395        0.004      330.736       -1.702      873.877
12/25/2013  05:02:00     -127.517      -18.538      -15.508        8.912       12.136        7.603       79.430      147.291       57.802        0.856        0.014      128.858        3.457        0.001      330.776       -1.635      873.870
12/25/2013  05:03:00      -93.360       -8.389       -7.556       24.459       14.085       12.025      598.255      198.389      144.590        0.489        0.047       93.736       11.406        0.015      330.713       -1.738      873.860
12/25/2013  05:04:00      -84.730       -5.981       -8.288       12.071       10.361        7.829      145.707      107.359       61.298        0.380        0.016       84.941        5.042        0.004      330.716       -1.734      873.856
12/25/2013  05:05:00      -88.462      -17.703      -11.695       10.098        9.647       10.299      101.972       93.057      106.069        0.429        0.015       90.216        5.434        0.004      330.739       -1.696      873.849
12/25/2013  05:06:00      -93.207      -31.106      -10.708       12.555       15.280       12.233      157.632      233.482      149.648        0.516        0.027       98.261        4.969        0.003      330.755       -1.670      873.846
12/25/2013  05:07:00      -85.416      -24.643       -5.640       15.157       15.844       14.848      229.735      251.047      220.463        0.432        0.035       88.900       10.591        0.014      330.763       -1.657      873.841
12/25/2013  05:08:00      -25.544      -21.744        6.033       21.722       17.619       12.205      471.835      310.434      148.953        0.105        0.047       33.545       10.109        0.091      330.791       -1.611      873.844
12/25/2013  05:09:00      -63.326      -15.560       -5.371       20.842       11.025       10.234      434.391      121.540      104.742        0.247        0.033       65.210       10.400        0.025      330.768       -1.650      873.853
12/25/2013  05:10:00      -86.128      -37.610       -3.288       15.213       14.733       10.595      231.447      217.073      112.249        0.470        0.028       93.982        5.538        0.003      330.723       -1.722      873.864
12/25/2013  05:11:00      -72.820      -43.801       -6.283       22.498       19.325       12.051      506.150      373.461      145.238        0.414        0.051       84.978       10.434        0.015      330.655       -1.832      873.878
12/25/2013  05:12:00      -63.085      -47.341       -6.889       23.133       20.092       11.419      535.120      403.669      130.389        0.367        0.053       78.872        7.316        0.009      330.659       -1.825      873.896
12/25/2013  05:13:00      -56.124      -20.897       -4.205       17.835       15.184        8.359      318.095      230.554       69.875        0.211        0.031       59.888        5.469        0.008      330.673       -1.804      873.914
12/25/2013  05:14:00      -60.064      -30.908       -4.334       16.295       16.678       10.309      265.541      278.164      106.273        0.262        0.032       67.550        5.204        0.006      330.698       -1.762      873.912
12/25/2013  05:15:00      -65.565      -23.182       -2.002       19.297       13.218       11.623      372.359      174.727      135.104        0.276        0.034       69.542        9.174        0.017      330.671       -1.807      873.913
12/25/2013  05:16:00      -48.225      -18.386       -3.607       17.681       12.891       13.494      312.629      166.177      182.075        0.167        0.033       51.611       12.291        0.057      330.639       -1.859      873.916
12/25/2013  05:17:00      -41.276       -6.588        4.813       25.898       15.586        9.991      670.728      242.934       99.821        0.139        0.051       41.799        9.825        0.055      330.651       -1.840      873.919
12/25/2013  05:18:00      -45.212      -29.777        1.290       14.044       16.804        9.033      197.242      282.377       81.600        0.175        0.028       54.137        6.032        0.012      330.676       -1.797      873.909
12/25/2013  05:19:00      -57.748      -20.914        2.838       18.478       17.036       10.952      341.421      290.226      119.945        0.227        0.038       61.419       10.906        0.032      330.674       -1.800      873.896
12/25/2013  05:20:00      -78.855      -11.937       -9.794       15.138        7.976        8.094      229.165       63.621       65.509        0.341        0.018       79.754        4.723        0.004      330.616       -1.898      873.878
12/25/2013  05:21:00      -97.440      -31.268      -10.682       11.004       13.828        8.466      121.090      191.207       71.680        0.549        0.019      102.334        2.281        0.000      330.646       -1.849      873.887
12/25/2013  05:22:00      -86.682      -27.223       -8.516       13.298       12.945        9.763      176.840      167.565       95.310        0.438        0.022       90.857        8.451        0.009      330.609       -1.908      873.905
12/25/2013  05:23:00      -49.686      -25.797       -4.228       18.202       14.721        7.095      331.320      216.709       50.335        0.188        0.030       55.983        6.048        0.012      330.618       -1.893      873.932
12/25/2013  05:24:00      -30.772      -13.485       -6.505       11.635        9.489        7.084      135.378       90.042       50.180        0.072        0.014       33.598        4.783        0.020      330.678       -1.793      873.956
12/25/2013  05:25:00      -41.566      -17.695       -4.038       10.760       12.569        6.373      115.774      157.970       40.621        0.119        0.016       45.176        3.255        0.005      330.639       -1.860      873.980
12/25/2013  05:26:00      -68.730      -15.452       -1.429       20.820       17.450       10.088      433.473      304.515      101.767        0.290        0.042       70.446        9.294        0.017      330.595       -1.932      873.995
12/25/2013  05:27:00      -80.926      -38.661       -4.124       16.748       15.823        9.160      280.492      250.363       83.906        0.434        0.031       89.687        8.049        0.008      330.563       -1.983      874.010
12/25/2013  05:28:00      -64.432      -39.884        4.586       42.628       19.585       16.636     1817.187      383.555      276.740        0.412        0.124       75.777       18.268        0.058      330.531       -2.037      874.016
12/25/2013  05:29:00      -70.724      -22.498        4.194       37.829       17.894       11.599     1431.031      320.185      134.543        0.371        0.094       74.217       17.503        0.056      330.468       -2.140      874.022
12/25/2013  05:30:00      -91.807      -38.686        0.201       20.952       21.909       15.250      438.991      479.991      232.550        0.554        0.058       99.625        9.757        0.010      330.470       -2.136      874.029
12/25/2013  05:31:00      -77.971      -29.812        0.035       32.385       24.753       20.126     1048.801      612.695      405.049        0.452        0.103       83.476       19.340        0.054      330.552       -2.001      874.033
12/25/2013  05:32:00     -107.487      -32.657       -0.185       21.474       19.589       14.302      461.142      383.746      204.548        0.683        0.052      112.339       11.229        0.010      330.585       -1.948      874.036
12/25/2013  05:33:00      -95.530      -33.535        4.365       37.185       18.135       19.020     1382.687      328.895      361.743        0.617        0.104      101.245       20.734        0.042      330.584       -1.949      874.043
12/25/2013  05:34:00     -116.342      -50.764       -7.891       18.599       19.520       14.803      345.906      381.012      219.140        0.856        0.047      126.935       10.811        0.007      330.639       -1.859      874.036
12/25/2013  05:35:00     -116.860      -58.317       -0.558       21.730       30.192       14.145      472.181      911.553      200.095        0.932        0.079      130.603       13.245        0.010      330.637       -1.864      874.040
12/25/2013  05:36:00      -61.355      -44.140        2.946       39.011       21.805       16.601     1521.824      475.440      275.606        0.400        0.114       75.583       15.225        0.041      330.594       -1.931      874.052
12/25/2013  05:37:00      -77.849      -35.321        3.642       43.756       26.049       17.576     1914.615      678.565      308.911        0.511        0.145       85.487       19.199        0.050      330.543       -2.017      874.062
12/25/2013  05:38:00     -112.610      -51.177       -9.524       23.175       25.512       17.694      537.069      650.853      313.064        0.845        0.075      123.694       10.846        0.008      330.583       -1.951      874.051
12/25/2013  05:39:00     -109.208      -56.788       -6.133       26.711       32.181       21.421      713.492     1035.628      458.847        0.870        0.110      123.091       12.482        0.010      330.620       -1.891      874.028
12/25/2013  05:40:00     -117.269      -45.089       -2.715       28.818       28.786       14.541      830.456      828.629      211.441        0.883        0.094      125.639       13.690        0.012      330.615       -1.900      874.012
12/25/2013  05:41:00     -105.628      -53.602       -2.485       29.765       25.147       18.292      885.943      632.348      334.593        0.794        0.093      118.450       14.843        0.016      330.532       -2.034      874.024
12/25/2013  05:42:00      -97.920      -44.776       -3.615       22.936       17.010       14.220      526.052      289.336      202.221        0.631        0.051      107.672       11.800        0.012      330.555       -1.997      874.047
12/25/2013  05:43:00      -91.010      -27.960       -6.212       21.964       20.169       13.736      482.418      406.773      188.677        0.509        0.054       95.208       10.414        0.012      330.555       -1.998      874.054
12/25/2013  05:44:00      -96.516      -24.624       -5.356       30.215       17.410       11.496      912.946      303.092      132.150        0.565        0.067       99.608       11.286        0.013      330.532       -2.036      874.044
12/25/2013  05:45:00      -92.425      -14.725       -5.993       21.670       16.457       12.066      469.606      270.843      145.588        0.484        0.044       93.591       10.821        0.013      330.411       -2.233      874.039
12/25/2013  05:46:00      -80.799      -14.301       -4.511       25.354       13.294       12.417      642.837      176.734      154.180        0.386        0.049       82.055       11.018        0.018      330.409       -2.236      874.042
12/25/2013  05:47:00      -54.611      -27.175        0.462       14.857       12.761        8.241      220.743      162.854       67.916        0.209        0.023       60.999        8.131        0.018      330.545       -2.012      874.048
12/25/2013  05:48:00      -30.884      -20.131        1.391       21.730       12.104       12.523      472.208      146.509      156.830        0.107        0.039       36.865       10.743        0.085      330.636       -1.864      874.061
12/25/2013  05:49:00      -83.056      -21.416       -4.378       21.641       12.425       16.742      468.337      154.369      280.297        0.414        0.045       85.773       14.222        0.027      330.540       -2.021      874.054
12/25/2013  05:50:00      -86.745      -36.996      -10.469       11.790       15.340        9.991      139.009      235.325       99.830        0.474        0.024       94.305        5.659        0.004      330.500       -2.087      874.062
12/25/2013  05:51:00      -95.923      -13.120      -10.131       11.690        9.901        7.992      136.663       98.039       63.871        0.489        0.015       96.816        5.288        0.003      330.467       -2.142      874.066
12/25/2013  05:52:00      -92.944      -20.614       -9.091       19.442       12.294       12.475      377.993      151.139      155.631        0.492        0.034       95.202       11.745        0.015      330.500       -2.087      874.063
12/25/2013  05:53:00      -68.154      -32.004       -8.161       14.982       10.063        9.226      224.473      101.259       85.127        0.307        0.021       75.294        8.252        0.012      330.548       -2.008      874.074
12/25/2013  05:54:00      -16.782      -24.683       -2.638       18.351       13.182        9.159      336.746      173.771       83.896        0.075        0.030       29.848        4.289        0.021      330.597       -1.927      874.090
12/25/2013  05:55:00      -18.065      -25.378        6.442       20.445       10.636        9.224      418.001      113.131       85.083        0.081        0.031       31.151       10.871        0.122      330.703       -1.754      874.099
12/25/2013  05:56:00      -72.632      -33.699       -8.891        9.816        9.459        7.104       96.346       89.465       50.473        0.336        0.012       80.069        4.643        0.003      330.624       -1.884      874.089
12/25/2013  05:57:00      -68.332      -41.378       -6.221       13.746       10.194        6.679      188.948      103.922       44.614        0.338        0.017       79.883        3.356        0.002      330.562       -1.987      874.089
12/25/2013  05:58:00      -49.090      -30.724       -9.321       16.101       12.864        7.974      259.249      165.493       63.583        0.196        0.024       57.912        5.527        0.009      330.502       -2.084      874.099
12/25/2013  05:59:00      -58.142      -19.067       -3.891       25.174       13.143        7.218      633.728      172.738       52.105        0.231        0.043       61.189        5.953        0.009      330.547       -2.010      874.097
12/25/2013  06:00:00      -96.202      -19.301      -13.758       15.505       16.108        9.821      240.408      259.467       96.447        0.521        0.030       98.120        7.691        0.006      330.494       -2.097      874.082
12/25/2013  06:01:00      -76.748      -14.046       -2.168       22.271       17.145       13.593      496.014      293.948      184.767        0.353        0.049       78.022        8.147        0.011      330.441       -2.184      874.067
12/25/2013  06:02:00      -67.055      -16.319        2.341       25.176       18.233       16.317      633.815      332.426      266.249        0.300        0.062       69.012       12.864        0.035      330.432       -2.197      874.071
12/25/2013  06:03:00     -104.536       -5.330       -9.728       28.310       14.500       15.328      801.461      210.236      234.934        0.615        0.062      104.672       17.120        0.027      330.372       -2.298      874.070
12/25/2013  06:04:00     -100.251      -18.299      -10.457       23.920       15.102       15.399      572.177      228.078      237.138        0.577        0.052      101.907       13.651        0.018      330.317       -2.388      874.065
12/25/2013  06:05:00     -103.418      -15.914       -7.443       19.605       14.728       13.986      384.371      216.920      195.597        0.590        0.040      104.636       10.445        0.010      330.284       -2.441      874.054
12/25/2013  06:06:00     -100.736      -19.791       -8.516       26.125       23.769       15.617      682.513      564.965      243.885        0.605        0.075      102.661       10.551        0.011      330.250       -2.498      874.043
12/25/2013  06:07:00      -93.117      -34.824       -6.686       20.854       17.545       14.317      434.905      307.814      204.988        0.544        0.047       99.416        6.308        0.004      330.235       -2.522      874.060
12/25/2013  06:08:00      -65.939      -24.515       -8.139       30.951       19.175       13.197      957.994      367.679      174.167        0.326        0.075       70.349       12.815        0.033      330.216       -2.553      874.072
12/25/2013  06:09:00     -105.274      -13.040       -9.059       16.063       16.675       14.653      258.019      278.054      214.701        0.604        0.038      106.078        8.827        0.007      330.245       -2.504      874.070
12/25/2013  06:10:00      -83.788      -24.491      -12.370       18.356       15.816       14.521      336.944      250.153      210.846        0.429        0.040       87.294        5.667        0.004      330.296       -2.421      874.076
12/25/2013  06:11:00      -57.711      -17.187       -7.694       29.132       15.295       13.312      848.645      233.928      177.216        0.247        0.063       60.216       14.917        0.061      330.277       -2.451      874.086
12/25/2013  06:12:00      -72.994      -15.038       -8.604       15.698       18.179       11.268      246.423      330.469      126.967        0.317        0.035       74.527        7.801        0.011      330.238       -2.516      874.089
12/25/2013  06:13:00      -75.630      -19.239      -10.516       16.243       19.101       11.798      263.847      364.842      139.187        0.348        0.038       78.038        7.285        0.009      330.190       -2.595      874.093
12/25/2013  06:14:00      -94.955       -8.067      -16.488       12.846       12.977       13.381      165.027      168.392      179.049        0.493        0.026       95.297        5.652        0.004      330.325       -2.373      874.092
12/25/2013  06:15:00      -70.675      -40.294       -9.622       12.172       16.933        8.766      148.164      286.742       76.843        0.361        0.026       81.355        4.698        0.003      330.370       -2.300      874.088
12/25/2013  06:16:00      -88.881       -4.270      -13.043       19.530       15.339       11.188      381.426      235.297      125.183        0.441        0.037       88.984        9.450        0.011      330.307       -2.404      874.079
12/25/2013  06:17:00     -101.062      -15.432      -17.478       16.059       13.065       13.321      257.904      170.702      177.444        0.568        0.030      102.233        8.739        0.007      330.313       -2.393      874.074
12/25/2013  06:18:00      -95.876      -17.788      -12.556       17.006       15.356       12.557      289.191      235.792      157.671        0.517        0.034       97.512        7.322        0.006      330.272       -2.460      874.071
12/25/2013  06:19:00      -83.769      -18.343      -15.101       17.825       12.536       13.414      317.714      157.147      179.936        0.412        0.033       85.754        7.148        0.007      330.238       -2.517      874.071
12/25/2013  06:20:00      -90.533      -12.771      -16.620       15.397       15.668       11.046      237.056      245.495      122.020        0.462        0.030       91.430        7.259        0.006      330.275       -2.456      874.081
12/25/2013  06:21:00      -92.150      -25.785      -13.112       19.980       15.817       16.073      399.211      250.184      258.333        0.512        0.045       95.690        8.564        0.008      330.289       -2.433      874.081
12/25/2013  06:22:00      -92.395      -20.752       -8.605       25.207       15.735       14.027      635.407      247.578      196.751        0.506        0.054       94.697       14.476        0.023      330.247       -2.502      874.089
12/25/2013  06:23:00      -85.278      -30.506      -17.034       26.390       27.246       11.923      696.455      742.322      142.159        0.504        0.079       90.570        6.307        0.005      330.227       -2.536      874.090
12/25/2013  06:24:00      -83.236      -25.636      -15.359       17.513       12.682       15.328      306.689      160.823      234.933        0.426        0.035       87.094        6.512        0.006      330.269       -2.464      874.101
12/25/2013  06:25:00      -60.622      -18.448       -7.859       31.049       23.090       18.268      964.067      533.157      333.732        0.295        0.092       63.367       18.043        0.081      330.341       -2.348      874.131
12/25/2013  06:26:00      -48.907      -13.531       -4.681       33.198       22.771       14.548     1102.128      518.507      211.640        0.221        0.092       50.744       13.533        0.071      330.318       -2.384      874.138
12/25/2013  06:27:00      -74.737      -20.781      -10.008       16.187       21.426       14.538      262.007      459.082      211.361        0.352        0.047       77.572        9.126        0.014      330.380       -2.285      874.137
12/25/2013  06:28:00      -83.932      -18.792      -12.160       17.104       14.612       11.784      292.563      213.524      138.868        0.410        0.032       86.010        7.661        0.008      330.360       -2.317      874.140
12/25/2013  06:29:00      -88.568      -12.163      -11.189       18.766       14.313       14.300      352.174      204.857      204.489        0.444        0.038       89.399       12.020        0.018      330.358       -2.321      874.142
12/25/2013  06:30:00      -69.891      -10.887      -14.376       20.963       17.362       11.997      439.435      301.442      143.924        0.305        0.044       70.733        8.348        0.014      330.357       -2.321      874.150
12/25/2013  06:31:00      -37.917      -17.386       -4.977       14.316       11.322       13.272      204.948      128.189      176.159        0.114        0.025       41.713        2.950        0.005      330.426       -2.209      874.162
12/25/2013  06:32:00      -19.121      -20.409        3.075       24.030       15.052       11.977      577.445      226.572      143.454        0.087        0.047       27.967       11.714        0.175      330.476       -2.127      874.174
12/25/2013  06:33:00      -14.516      -18.119       10.561       22.221       15.780       13.662      493.784      249.020      186.637        0.079        0.046       23.217       13.405        0.333      330.448       -2.173      874.184
12/25/2013  06:34:00        4.002      -16.430        2.623        8.908       13.380        9.917       79.356      179.025       98.356        0.032        0.018       16.911        6.877        0.165      330.514       -2.065      874.200
12/25/2013  06:35:00      -21.448      -34.650       -2.744        6.914       11.670        7.737       47.802      136.195       59.856        0.096        0.012       40.751        5.106        0.016      330.606       -1.912      874.202
12/25/2013  06:36:00      -33.644      -15.699        1.400       11.905       11.610        7.422      141.731      134.794       55.081        0.086        0.017       37.127        3.383        0.008      330.636       -1.863      874.203
12/25/2013  06:37:00      -45.471      -11.753        0.422        7.466       12.630        6.628       55.734      159.510       43.929        0.123        0.013       46.965        2.421        0.003      330.564       -1.984      874.203
12/25/2013  06:38:00      -60.529      -34.259       -7.055       23.119       18.173       13.358      534.492      330.264      178.430        0.297        0.052       69.551        9.003        0.017      330.417       -2.225      874.208
12/25/2013  06:39:00      -31.125      -25.612       -3.204       24.732       18.183       15.760      611.689      330.629      248.363        0.141        0.060       40.308        7.176        0.032      330.488       -2.107      874.207
12/25/2013  06:40:00      -33.240      -17.029       -1.737       29.123       20.642       17.561      848.176      426.105      308.391        0.149        0.079       37.348        8.840        0.056      330.497       -2.091      874.209
12/25/2013  06:41:00      -25.417      -35.990        5.717       40.643       35.551       19.883     1651.877     1263.904      395.334        0.264        0.166       44.060       11.521        0.068      330.425       -2.210      874.207
12/25/2013  06:42:00       -9.118      -24.738       10.154       29.512       27.619       22.122      870.965      762.826      489.370        0.146        0.106       26.365       14.090        0.286      330.448       -2.174      874.217
12/25/2013  06:43:00      -39.981      -24.115       -4.990       23.451       24.983       23.384      549.955      624.173      546.797        0.196        0.086       46.690       18.323        0.154      330.470       -2.138      874.217
12/25/2013  06:44:00      -23.759      -37.448       -2.949       29.423       23.944       15.843      865.698      573.310      250.998        0.183        0.085       44.349       11.549        0.068      330.476       -2.127      874.203
12/25/2013  06:45:00      -33.214      -24.597        4.697       26.391       15.729       13.671      696.502      247.398      186.893        0.143        0.057       41.330        7.805        0.036      330.448       -2.171      874.203
12/25/2013  06:46:00       -6.263      -15.746        7.782       18.787       13.810       13.928      352.939      190.729      193.987        0.054        0.037       16.946        9.180        0.293      330.441       -2.184      874.201
12/25/2013  06:47:00       -1.916      -11.727        0.405       10.861       14.000        9.256      117.966      195.991       85.678        0.027        0.020       11.883        8.079        0.462      330.508       -2.074      874.198
12/25/2013  06:48:00      -74.541      -12.190       -3.418       28.378       23.225       15.742      805.314      539.389      247.800        0.365        0.080       75.531        7.209        0.009      330.462       -2.150      874.195
12/25/2013  06:49:00      -67.628      -24.511        4.484       25.596       18.925       12.252      655.137      358.168      150.109        0.318        0.058       71.933        8.469        0.014      330.504       -2.082      874.194
12/25/2013  06:50:00      -72.279      -44.791        3.254       38.620       34.028       18.982     1491.538     1157.905      360.315        0.512        0.150       85.032       15.880        0.035      330.507       -2.077      874.195
12/25/2013  06:51:00     -101.152      -47.451        1.784       21.171       22.844       14.213      448.208      521.836      202.004        0.683        0.059      111.729       10.026        0.008      330.382       -2.281      874.202
12/25/2013  06:52:00      -75.909      -43.665       -4.683       20.802       16.674       15.061      432.743      278.021      226.842        0.431        0.047       87.572        7.947        0.008      330.373       -2.295      874.217
12/25/2013  06:53:00      -42.829      -20.409       -1.998       14.626       19.487       12.820      213.907      379.756      164.353        0.151        0.038       47.443       11.351        0.057      330.375       -2.292      874.233
12/25/2013  06:54:00      -88.128        4.834       -9.346       15.063        9.151        9.947      226.882       83.746       98.949        0.414        0.020       88.261        7.188        0.007      330.293       -2.426      874.246
12/25/2013  06:55:00     -104.933        3.834      -11.866       12.661        9.277        8.691      160.312       86.067       75.540        0.574        0.016      105.003        6.471        0.004      330.287       -2.436      874.266
12/25/2013  06:56:00      -99.013       -8.507       -8.118       23.847       15.167       15.689      568.659      230.041      246.158        0.549        0.052       99.378       12.457        0.016      330.227       -2.534      874.283
12/25/2013  06:57:00      -98.468       -9.057       -9.723       34.392       22.038       16.914     1182.807      485.661      286.081        0.591        0.098       98.884       18.618        0.035      330.199       -2.582      874.287
12/25/2013  06:58:00      -76.872      -25.097       -2.747       18.119       17.990       12.920      328.294      323.630      166.915        0.368        0.041       80.865        5.785        0.005      330.200       -2.579      874.284
12/25/2013  06:59:00      -81.184      -24.436       -3.161       33.386       20.245       14.748     1114.658      409.850      217.510        0.447        0.087       84.782       15.662        0.034      330.163       -2.640      874.291
12/25/2013  07:00:00      -67.576      -12.466       -0.572       26.785       23.865       18.713      717.442      569.530      350.165        0.318        0.082       68.716       18.132        0.070      330.141       -2.677      874.298
12/25/2013  07:01:00      -63.083      -16.089       -2.373       22.915       17.076       10.611      525.108      291.604      112.597        0.259        0.046       65.102       11.267        0.030      330.185       -2.604      874.292
12/25/2013  07:02:00      -86.539      -30.966       -7.654       12.863       13.100        8.774      165.451      171.612       76.978        0.446        0.021       91.913        5.075        0.003      330.211       -2.562      874.292
12/25/2013  07:03:00      -84.712      -26.470       -9.859       19.148       17.173       12.731      366.645      294.897      162.082        0.440        0.041       88.752        9.600        0.012      330.183       -2.608      874.287
12/25/2013  07:04:00      -72.582      -22.530       -5.535       13.091       15.467       11.394      171.384      239.216      129.833        0.317        0.027       75.999        3.728        0.002      330.143       -2.673      874.283
12/25/2013  07:05:00     -100.067      -29.283      -13.808       21.412       16.809       13.098      458.468      282.545      171.555        0.599        0.046      104.264        9.877        0.009      330.144       -2.671      874.285
12/25/2013  07:06:00     -112.813      -43.953      -13.222       26.393       23.203       12.493      696.615      538.402      156.072        0.811        0.070      121.073        8.657        0.005      330.121       -2.710      874.284
12/25/2013  07:07:00     -103.952      -17.077      -10.937       32.087       25.139       15.280     1029.598      631.947      233.463        0.656        0.095      105.345       16.479        0.024      330.068       -2.796      874.290
12/25/2013  07:08:00      -89.498      -14.142       -7.830       32.563       24.864       17.447     1060.332      618.216      304.399        0.513        0.099       90.608       15.452        0.029      330.021       -2.873      874.305
12/25/2013  07:09:00     -115.906      -22.002      -10.038       25.237       23.496       15.797      636.931      552.078      249.543        0.773        0.072      117.976       12.283        0.011      329.984       -2.932      874.307
12/25/2013  07:10:00      -75.793      -27.061        3.171       30.778       28.435       19.395      947.277      808.532      376.156        0.431        0.107       80.479       14.971        0.035      330.015       -2.882      874.312
12/25/2013  07:11:00      -88.312      -44.283       -8.546       20.210       24.828       13.244      408.446      616.433      175.407        0.552        0.060       98.792       10.181        0.011      330.068       -2.796      874.317
12/25/2013  07:12:00      -97.486      -38.379      -10.763       25.073       23.170       13.820      628.662      536.854      191.005        0.622        0.068      104.769       10.219        0.010      330.081       -2.774      874.321
12/25/2013  07:13:00      -78.091      -37.953       -0.568       25.762       23.179       13.246      663.671      537.263      175.451        0.446        0.069       86.826        7.434        0.007      330.104       -2.739      874.318
12/25/2013  07:14:00      -74.430      -18.114       -8.406       20.087       16.702       12.945      403.499      278.955      167.570        0.339        0.043       76.603        9.447        0.015      330.125       -2.704      874.317
12/25/2013  07:15:00      -73.473       -9.778      -10.970       23.009       14.576        8.640      529.424      212.465       74.642        0.322        0.041       74.120        7.390        0.010      330.079       -2.779      874.317
12/25/2013  07:16:00      -68.499      -16.063       -7.247       26.126       15.846       12.989      682.577      251.101      168.716        0.305        0.055       70.357       13.639        0.038      330.110       -2.729      874.328
12/25/2013  07:17:00      -57.601      -17.344       -9.767       21.132       10.144        8.967      446.560      102.893       80.407        0.217        0.031       60.156        4.791        0.006      330.092       -2.758      874.336
12/25/2013  07:18:00      -82.825      -19.983       -8.467       11.344       14.667       12.464      128.686      215.134      155.345        0.392        0.025       85.202        4.521        0.003      330.073       -2.788      874.344
12/25/2013  07:19:00      -90.470      -11.458       -6.634       24.799       17.527       15.850      615.014      307.180      251.230        0.477        0.059       91.192        9.594        0.011      330.061       -2.807      874.348
12/25/2013  07:20:00      -91.557      -14.853      -10.265       18.824       15.142       11.692      354.324      229.266      136.694        0.471        0.036       92.754        8.450        0.008      330.038       -2.844      874.350
12/25/2013  07:21:00      -66.187      -19.830       -8.577       32.689       18.670       13.366     1068.590      348.555      178.644        0.322        0.080       69.094        6.838        0.010      330.117       -2.715      874.366
12/25/2013  07:22:00      -61.041      -27.489       -8.402       27.010       20.224       15.654      729.542      409.003      245.038        0.297        0.069       66.945       14.446        0.047      330.182       -2.610      874.374
12/25/2013  07:23:00      -14.819      -28.729        3.108       16.303       14.594       15.604      265.790      212.976      243.483        0.089        0.036       32.326       11.687        0.131      330.239       -2.515      874.377
12/25/2013  07:24:00      -44.741      -30.693      -13.771       13.041       14.017       11.423      170.059      196.482      130.475        0.182        0.025       54.257        5.606        0.011      330.270       -2.466      874.374
12/25/2013  07:25:00      -61.529      -16.720       -7.676        7.748       10.125       10.945       60.034      102.521      119.792        0.220        0.014       63.760        6.292        0.010      330.211       -2.560      874.377
12/25/2013  07:26:00      -65.195      -19.259      -15.070       10.319       11.375        8.521      106.474      129.396       72.602        0.258        0.015       67.980        2.341        0.001      330.204       -2.572      874.382
12/25/2013  07:27:00      -58.067      -30.752      -14.483       13.291       10.200        5.966      176.659      104.037       35.596        0.242        0.016       65.708        4.051        0.004      330.193       -2.591      874.395
12/25/2013  07:28:00      -65.689      -32.123      -13.367        7.104        9.638        8.261       50.472       92.894       68.246        0.287        0.011       73.122        4.290        0.003      330.229       -2.531      874.412
12/25/2013  07:29:00      -70.831      -37.176      -13.106        9.404       13.322        6.545       88.429      177.477       42.839        0.344        0.015       79.994        4.907        0.004      330.318       -2.385      874.426
12/25/2013  07:30:00      -57.395      -33.852      -11.133       11.833       10.167        7.789      140.029      103.374       60.675        0.243        0.015       66.635        5.335        0.006      330.322       -2.378      874.431
12/25/2013  07:31:00      -62.341      -28.263       -4.793       17.123       12.566        8.795      293.203      157.914       77.349        0.262        0.026       68.449        7.341        0.012      330.239       -2.515      874.444
12/25/2013  07:32:00      -54.019      -29.005       -7.952       23.170       13.775        9.935      536.862      189.757       98.700        0.232        0.041       61.313        5.020        0.007      330.222       -2.544      874.451
12/25/2013  07:33:00      -70.813      -22.512      -11.881       10.127       11.068        7.750      102.546      122.501       60.061        0.297        0.014       74.305        4.984        0.004      330.151       -2.662      874.463
12/25/2013  07:34:00      -72.853      -31.089      -10.293       11.308       11.001        9.161      127.866      121.015       83.933        0.336        0.017       79.209        4.424        0.003      330.243       -2.508      874.475
12/25/2013  07:35:00      -78.763      -29.177       -9.356       10.247       10.287        8.514      104.992      105.826       72.490        0.371        0.014       83.993        4.832        0.003      330.259       -2.483      874.495
12/25/2013  07:36:00      -46.140      -34.966       -7.519       23.625       10.973        9.998      558.148      120.402       99.963        0.209        0.039       57.892        5.750        0.010      330.245       -2.506      874.514
12/25/2013  07:37:00      -59.655      -39.762       -5.201       15.187       14.135        9.220      230.649      199.805       85.007        0.284        0.026       71.692        6.602        0.008      330.213       -2.558      874.528
12/25/2013  07:38:00      -80.935      -36.492      -10.117       17.231        9.334        9.081      296.918       87.115       82.471        0.423        0.023       88.782        2.730        0.001      330.203       -2.575      874.535
12/25/2013  07:39:00     -105.515      -41.777      -13.695       11.689       15.456        8.656      136.640      238.898       74.922        0.676        0.023      113.485        6.509        0.003      330.201       -2.580      874.542
12/25/2013  07:40:00     -106.878      -38.044       -8.902       12.477       15.143        9.858      155.680      229.323       97.180        0.672        0.024      113.447        6.153        0.003      330.252       -2.494      874.547
12/25/2013  07:41:00      -97.109      -34.117       -7.787       19.840       13.888       13.227      393.634      192.874      174.949        0.571        0.038      102.927        8.314        0.007      330.237       -2.519      874.558
12/25/2013  07:42:00     -103.033      -33.804       -4.897       26.444       22.024       12.665      699.279      485.035      160.402        0.656        0.067      108.437       11.207        0.011      330.242       -2.509      874.568
12/25/2013  07:43:00      -86.080      -37.406       -5.777       24.823       18.083       12.702      616.167      326.991      161.333        0.497        0.055       93.856        9.882        0.011      330.247       -2.501      874.572
12/25/2013  07:44:00      -82.838      -46.028       -7.260       21.618       17.806       11.163      467.344      317.065      124.623        0.497        0.045       94.767        7.922        0.007      330.284       -2.440      874.588
12/25/2013  07:45:00      -85.070      -41.523       -3.563       14.156       13.210       11.824      200.383      174.494      139.797        0.474        0.026       94.663        9.164        0.009      330.318       -2.386      874.617
12/25/2013  07:46:00      -67.897      -22.470       -6.652       15.306       17.705       11.164      234.278      313.459      124.631        0.292        0.034       71.518        8.474        0.014      330.371       -2.299      874.619
12/25/2013  07:47:00      -81.568      -26.642      -15.333       14.299       13.122        9.120      204.467      172.192       83.171        0.403        0.023       85.809        4.372        0.003      330.331       -2.362      874.623
12/25/2013  07:48:00      -61.329      -28.894       -6.373       14.388       16.033       13.454      207.015      257.058      181.003        0.264        0.032       67.794        9.043        0.018      330.341       -2.348      874.646
12/25/2013  07:49:00      -59.468      -35.825       -6.137       13.256        9.518        7.974      175.724       90.588       63.592        0.259        0.016       69.425        3.938        0.003      330.384       -2.278      874.649
12/25/2013  07:50:00      -64.772      -26.857       -7.836       13.141        9.659        7.461      172.686       93.300       55.673        0.265        0.016       70.119        5.810        0.007      330.362       -2.315      874.670
12/25/2013  07:51:00      -60.119      -17.035      -11.831       11.951       12.159        9.398      142.823      147.848       88.322        0.221        0.019       62.486        8.267        0.018      330.400       -2.251      874.684
12/25/2013  07:52:00      -60.293      -25.391      -12.620       14.076       14.585        8.840      198.141      212.727       78.141        0.246        0.024       65.421        7.427        0.013      330.420       -2.220      874.683
12/25/2013  07:53:00      -56.062      -24.369      -13.143       15.066       10.492        8.148      226.997      110.080       66.393        0.216        0.020       61.130        5.316        0.008      330.396       -2.258      874.689
12/25/2013  07:54:00      -73.769      -36.471      -13.394        9.963        7.309        7.319       99.257       53.422       53.569        0.358        0.010       82.292        4.649        0.003      330.397       -2.257      874.693
12/25/2013  07:55:00      -77.129      -44.637      -11.586        9.881        9.305        6.206       97.635       86.585       38.519        0.415        0.011       89.114        4.202        0.002      330.386       -2.276      874.715
12/25/2013  07:56:00      -87.367      -49.064      -11.943       13.744       12.455       11.557      188.898      155.120      133.570        0.533        0.024      100.201        4.025        0.002      330.348       -2.337      874.721
12/25/2013  07:57:00      -79.442      -46.496       -8.244       17.369       13.921       13.995      301.682      193.800      195.857        0.462        0.035       92.049       10.765        0.014      330.413       -2.229      874.726
12/25/2013  07:58:00      -90.819      -40.491      -11.437        8.580       11.338        8.774       73.621      128.555       76.978        0.515        0.014       99.436        3.271        0.001      330.493       -2.098      874.718
12/25/2013  07:59:00      -89.458      -30.227      -12.292       15.194       13.282       10.506      230.853      176.409      110.385        0.479        0.026       94.427        6.909        0.005      330.550       -2.005      874.718
12/25/2013  08:00:00      -66.014      -40.858      -11.727       12.915       16.241        9.122      166.792      263.780       83.207        0.334        0.026       77.635        6.805        0.008      330.565       -1.980      874.721
12/25/2013  08:01:00      -64.544      -37.352       -7.246        8.815        9.009        6.392       77.705       81.155       40.859        0.291        0.010       74.573        3.803        0.003      330.560       -1.989      874.716
12/25/2013  08:02:00      -53.710      -36.295       -3.783       12.106        7.792        6.064      146.554       60.713       36.776        0.223        0.012       64.823        2.261        0.001      330.614       -1.900      874.719
12/25/2013  08:03:00      -57.159      -31.859       -3.456       11.493        8.360        9.175      132.097       69.891       84.178        0.229        0.014       65.438        7.357        0.013      330.584       -1.949      874.728
12/25/2013  08:04:00      -15.860      -18.114        5.585       17.650        8.824        9.022      311.532       77.869       81.392        0.054        0.024       24.076        9.776        0.165      330.679       -1.793      874.739
12/25/2013  08:05:00      -16.622      -28.492        6.769       16.161       18.032       13.982      261.167      325.137      195.507        0.096        0.039       32.986       10.778        0.107      330.687       -1.782      874.750
12/25/2013  08:06:00      -41.037      -29.917       -1.778       21.511       14.000        9.099      462.741      195.991       82.784        0.166        0.037       50.785        3.484        0.005      330.595       -1.933      874.753
12/25/2013  08:07:00      -37.044      -26.250        0.795       23.847       20.437       12.168      568.666      417.663      148.060        0.160        0.057       45.402        5.628        0.015      330.634       -1.869      874.756
12/25/2013  08:08:00      -10.107      -14.313        7.315       13.648       19.477       11.079      186.267      379.361      122.747        0.052        0.034       17.522       11.617        0.440      330.874       -1.475      874.764
12/25/2013  08:09:00      -21.623       -5.632       -3.133        8.165        6.263        6.117       66.675       39.225       37.417        0.033        0.007       22.344        5.460        0.060      330.701       -1.757      874.765
12/25/2013  08:10:00      -35.831       -5.657       -3.306        8.162        4.725        6.667       66.621       22.328       44.453        0.073        0.007       36.275        2.547        0.005      330.710       -1.743      874.765
12/25/2013  08:11:00      -37.301       -8.817       -7.773        4.402        6.982        4.849       19.381       48.744       23.509        0.081        0.005       38.329        2.955        0.006      330.750       -1.677      874.774
12/25/2013  08:12:00      -38.261       -3.548       -7.903        5.710        4.737        4.741       32.607       22.437       22.478        0.081        0.004       38.425        2.243        0.003      330.727       -1.717      874.777
12/25/2013  08:13:00      -49.621      -15.721       -6.723        8.297        9.819        7.335       68.844       96.404       53.797        0.149        0.011       52.052        2.692        0.003      330.713       -1.737      874.776
12/25/2013  08:14:00      -52.587      -25.374       -9.159        9.675        9.962        7.307       93.602       99.240       53.387        0.187        0.012       58.389        5.285        0.008      330.747       -1.683      874.779
12/25/2013  08:15:00      -58.549      -32.647       -4.352       23.072       13.496       12.288      532.309      182.133      150.983        0.269        0.043       67.036       10.890        0.026      330.766       -1.650      874.783
12/25/2013  08:16:00      -49.468      -31.626        0.622       22.261       17.402       12.111      495.563      302.833      146.679        0.220        0.047       58.714        8.150        0.019      330.772       -1.643      874.781
12/25/2013  08:17:00      -19.572      -16.418        5.050       18.913       13.788       15.117      357.699      190.107      228.522        0.073        0.039       25.546       11.870        0.216      330.922       -1.394      874.790
12/25/2013  08:18:00      -48.989      -11.823       -3.577       10.544       10.686        7.251      111.186      114.200       52.579        0.142        0.014       50.396        3.603        0.005      330.811       -1.578      874.807
12/25/2013  08:19:00      -55.922       -8.083       -6.409       14.358       12.707        6.498      206.159      161.465       42.227        0.182        0.020       56.503        1.742        0.001      330.844       -1.523      874.824
12/25/2013  08:20:00      -54.516      -20.989       -8.481       16.389       16.031        9.262      268.588      257.008       85.787        0.205        0.031       58.417        7.298        0.016      330.853       -1.509      874.850
12/25/2013  08:21:00      -63.886      -27.682       -5.634       13.782        7.252        5.915      189.943       52.592       34.987        0.258        0.014       69.626        4.776        0.005      330.890       -1.448      874.866
12/25/2013  08:22:00      -70.701      -25.270       -4.203       11.728       10.412        7.782      137.540      108.405       60.566        0.298        0.015       75.081        5.258        0.005      330.896       -1.438      874.877
12/25/2013  08:23:00      -68.203      -34.331       -7.999       11.695       10.175        9.114      136.768      103.529       83.065        0.311        0.016       76.356        5.963        0.006      330.935       -1.373      874.891
12/25/2013  08:24:00      -48.364       -5.918       -4.561       20.357       16.738       10.755      414.404      280.160      115.660        0.160        0.041       48.725        5.276        0.012      330.951       -1.345      874.900
12/25/2013  08:25:00      -39.492       -8.252       -9.548       14.633       16.462        9.464      214.130      270.990       89.569        0.115        0.029       40.345        8.636        0.046      331.015       -1.243      874.898
12/25/2013  08:26:00      -46.133      -17.412       -2.774       20.722       13.698       10.935      429.419      187.634      119.582        0.159        0.037       49.309       11.721        0.057      331.053       -1.180      874.897
12/25/2013  08:27:00      -53.681      -29.006       -7.734       12.418       10.486        9.959      154.214      109.946       99.186        0.207        0.018       61.016        8.107        0.018      331.076       -1.143      874.893
12/25/2013  08:28:00      -33.760      -18.420       -9.022       11.612        5.983        6.634      134.845       35.802       44.015        0.089        0.011       38.459        5.514        0.021      331.152       -1.019      874.892
12/25/2013  08:29:00      -32.048      -17.228       -6.636       10.221        9.217        8.050      104.475       84.954       64.801        0.081        0.013       36.385        6.112        0.028      331.147       -1.028      874.891
12/25/2013  08:30:00      -30.965      -10.771       -2.335        6.922        6.074        5.830       47.908       36.890       33.989        0.060        0.006       32.785        2.715        0.007      331.167       -0.993      874.892
12/25/2013  08:31:00      -15.205      -14.829       -5.420       10.712        7.701        7.587      114.748       59.312       57.565        0.036        0.012       21.239        5.491        0.067      331.223       -0.900      874.900
12/25/2013  08:32:00       -3.308       -0.669        5.214        5.362        6.630        8.734       28.755       43.952       76.282        0.009        0.007        3.375        4.472        1.756      331.722       -0.079      874.911
12/25/2013  08:33:00      -20.860       -5.468       -2.132        9.887        5.303        9.858       97.762       28.125       97.186        0.035        0.011       21.565        7.634        0.125      331.535       -0.386      874.906
12/25/2013  08:34:00      -21.068       -2.468       -4.966        4.313        4.791        3.674       18.598       22.957       13.496        0.026        0.003       21.212        1.636        0.006      331.330       -0.724      874.914
12/25/2013  08:35:00      -20.063        1.321       -5.447        5.738        3.719        4.825       32.927       13.832       23.279        0.025        0.004       20.107        3.360        0.028      331.396       -0.615      874.913
12/25/2013  08:36:00      -20.621        7.873       -1.152        5.707        6.025        6.921       32.570       36.303       47.906        0.030        0.006       22.073        2.934        0.018      331.495       -0.454      874.911
12/25/2013  08:37:00       -5.760        5.547        8.392       12.387       11.068        6.649      153.437      122.502       44.210        0.023        0.016        7.997        5.488        0.471      331.847        0.127      874.913
12/25/2013  08:38:00       39.132       39.884        8.960       11.983       15.311       17.812      143.580      234.426      317.270        0.195        0.035       55.875       12.739        0.052      331.610       -0.264      874.919
12/25/2013  08:39:00       29.459       36.515       35.275       22.303       15.862        9.830      497.420      251.617       96.633        0.215        0.042       46.917        5.509        0.014      331.850        0.132      874.931
12/25/2013  08:40:00        8.771       33.862       29.810       14.767       14.613       16.422      218.068      213.541      269.666        0.141        0.035       34.980       11.739        0.113      331.960        0.313      874.940
12/25/2013  08:41:00        9.670       34.208       30.217       14.249       17.118       17.338      203.029      293.040      300.622        0.149        0.040       35.548       11.117        0.098      332.023        0.416      874.948
12/25/2013  08:42:00       26.725       36.292       28.618       17.850       15.771       20.436      318.624      248.715      417.619        0.192        0.049       45.070       12.258        0.074      331.852        0.136      874.947
12/25/2013  08:43:00       35.809       39.579       -6.702       30.412       18.736       13.774      924.916      351.029      189.719        0.218        0.073       53.374        7.650        0.021      331.805        0.057      874.959
12/25/2013  08:44:00       62.602       53.950       -4.026       19.845       14.804       15.781      393.806      219.158      249.040        0.385        0.043       82.642        7.956        0.009      331.709       -0.101      874.977
12/25/2013  08:45:00       35.844       40.264       31.519       25.325       22.278       18.303      641.339      496.302      335.002        0.269        0.074       53.907        7.659        0.020      331.896        0.207      875.010
12/25/2013  08:46:00       61.104       55.024       29.379       24.308       10.198       15.179      590.897      104.006      230.412        0.427        0.046       82.228        6.105        0.006      331.625       -0.239      875.026
12/25/2013  08:47:00       30.777       53.618       48.511       30.032       22.292       24.558      901.929      496.918      603.111        0.409        0.100       61.823       17.488        0.080      331.893        0.204      875.044
12/25/2013  08:48:00       46.712       47.785       32.867       21.627       16.568       22.918      467.718      274.508      525.241        0.341        0.063       66.824        9.866        0.022      331.814        0.073      875.062
12/25/2013  08:49:00       -0.228       30.372       45.705       19.976       26.878       18.891      399.055      722.404      356.875        0.224        0.074       30.372       16.845        0.308      332.287        0.852      875.066
12/25/2013  08:50:00       47.113       48.268       42.353       37.484       20.791       22.644     1405.036      432.262      512.752        0.435        0.118       67.450       21.290        0.100      332.010        0.395      875.076
12/25/2013  08:51:00        1.779       62.981       71.947       22.004       31.458       18.386      484.169      989.601      338.043        0.548        0.091       63.006       10.808        0.029      332.117        0.570      875.083
12/25/2013  08:52:00       53.175       84.313       61.032       37.051       22.285       23.728     1372.773      496.605      563.032        0.805        0.122       99.681       22.183        0.050      331.832        0.100      875.101
12/25/2013  08:53:00       66.130       70.256       37.049       33.448       22.956       32.207     1118.757      526.961     1037.280        0.668        0.134       96.484       15.428        0.026      331.877        0.175      875.107
12/25/2013  08:54:00        9.375       51.785       66.648       20.045       30.152       13.599      401.812      909.143      184.921        0.435        0.075       52.627       10.566        0.040      332.039        0.441      875.111
12/25/2013  08:55:00       -9.552       65.634       89.571       25.093       47.226       28.506      629.635     2230.265      812.596        0.805        0.184       66.326       32.826        0.245      332.147        0.620      875.113
12/25/2013  08:56:00       69.090       85.294       57.177       40.308       33.199       35.985     1624.724     1102.180     1294.917        0.967        0.201      109.766       31.616        0.083      331.894        0.205      875.122
12/25/2013  08:57:00       27.122       81.607       78.342       23.890       31.707       22.332      570.737     1005.339      498.727        0.780        0.104       85.996       20.959        0.059      331.831        0.099      875.106
12/25/2013  08:58:00       43.209       82.187       77.136       51.684       27.031       33.933     2671.191      730.660     1151.431        0.956        0.228       92.853       36.868        0.158      331.901        0.215      875.087
12/25/2013  08:59:00       64.525       81.573       71.481       28.946       25.108       25.461      837.891      630.396      648.240        0.902        0.106      104.008       15.291        0.022      331.809        0.064      875.080
12/25/2013  09:00:00       43.968       77.642       76.480       34.298       26.189       14.101     1176.349      685.885      198.829        0.794        0.103       89.227       10.754        0.015      331.776        0.010      875.067
12/25/2013  09:01:00       48.121       67.971       62.942       34.054       22.398       28.569     1159.662      501.651      816.216        0.669        0.124       83.281        5.270        0.004      331.858        0.145      875.058
12/25/2013  09:02:00       31.367       58.685       59.468       25.564       26.382       19.519      653.521      696.017      381.000        0.485        0.087       66.542       14.758        0.049      331.914        0.238      875.052
12/25/2013  09:03:00       10.787       57.139       65.014       27.984       28.188       25.701      783.094      794.570      660.525        0.492        0.112       58.149       21.045        0.131      332.135        0.602      875.038
12/25/2013  09:04:00       24.074       58.869       62.320       26.323       25.120       23.010      692.903      631.010      529.457        0.489        0.093       63.601       18.671        0.086      331.953        0.300      875.027
12/25/2013  09:05:00       45.281       68.733       69.515       26.257       31.796       18.775      689.408     1010.976      352.517        0.683        0.103       82.308       19.272        0.055      331.835        0.105      875.019
12/25/2013  09:06:00       31.183       64.243       71.486       31.148       23.113       15.110      970.209      534.229      228.307        0.597        0.087       71.411       12.583        0.031      331.953        0.299      875.017
12/25/2013  09:07:00       13.388       23.108       46.101       17.176       20.513       18.392      295.022      420.803      338.275        0.195        0.053       26.706       11.856        0.197      332.045        0.452      875.016
12/25/2013  09:08:00       22.265       59.071       65.741       23.582       38.423       13.111      556.115     1476.327      171.901        0.526        0.110       63.128       14.757        0.055      332.124        0.582      875.023
12/25/2013  09:09:00       48.991       65.054       54.994       31.342       31.644       27.595      982.332     1001.317      761.509        0.620        0.137       81.438       16.597        0.042      332.065        0.486      875.020
12/25/2013  09:10:00       54.052       76.678       63.283       27.503       21.242       24.964      756.392      451.211      623.185        0.732        0.092       93.814       15.310        0.027      331.921        0.249      875.018
12/25/2013  09:11:00       51.526       63.267       30.963       28.995       23.558       18.678      840.719      554.964      348.861        0.468        0.087       81.594       10.127        0.015      331.821        0.083      875.034
12/25/2013  09:12:00       14.716       72.767       74.723       22.470       45.597       24.283      504.899     2079.070      589.651        0.713        0.159       74.240       27.580        0.138      332.199        0.707      875.047
12/25/2013  09:13:00       69.266       79.809       32.013       56.393       31.480       53.691     3180.126      990.977     2882.685        0.962        0.353      105.675       42.640        0.163      331.995        0.371      875.053
12/25/2013  09:14:00       64.107       58.069       22.412       41.212       26.938       36.008     1698.416      725.635     1296.542        0.585        0.186       86.497       16.285        0.035      332.164        0.649      875.071
12/25/2013  09:15:00       79.549       80.666       25.760       39.885       30.548       35.041     1590.778      933.184     1227.866        0.862        0.188      113.292       24.132        0.045      332.060        0.477      875.079
12/25/2013  09:16:00       47.153       44.310       18.939       26.809       26.152       29.846      718.738      683.928      890.800        0.342        0.115       64.705       12.866        0.040      332.209        0.723      875.088
12/25/2013  09:17:00       15.945       26.534       28.984       31.915       26.702       23.682     1018.585      713.008      560.855        0.205        0.115       30.957       13.118        0.180      332.533        1.256      875.093
12/25/2013  09:18:00       32.468       47.122       58.256       48.704       37.339       29.323     2372.103     1394.193      859.860        0.565        0.231       57.225       19.118        0.112      332.311        0.892      875.098
12/25/2013  09:19:00       58.703       47.379       52.899       48.427       46.615       41.545     2345.218     2172.985     1725.961        0.737        0.312       75.437       42.227        0.313      332.237        0.769      875.110
12/25/2013  09:20:00       40.715       41.386       64.865       33.415       26.062       16.729     1116.568      679.233      279.844        0.483        0.104       58.056       13.713        0.056      332.280        0.841      875.117
12/25/2013  09:21:00       17.653       76.403       86.801       32.121       37.749       20.601     1031.754     1424.982      424.414        0.828        0.144       78.416       19.137        0.060      332.146        0.620      875.125
12/25/2013  09:22:00        3.444       56.160       74.544       17.979       29.481       17.182      323.234      869.152      295.225        0.510        0.074       56.265       19.083        0.115      332.174        0.665      875.142
12/25/2013  09:23:00       36.992       91.790       94.111       50.328       34.469       18.053     2532.925     1188.105      325.895        1.135        0.202       98.964       17.638        0.032      332.026        0.421      875.138
12/25/2013  09:24:00       67.320       70.966       49.845       39.945       26.275       33.670     1595.633      690.383     1133.687        0.774        0.171       97.817       22.866        0.055      332.004        0.384      875.155
12/25/2013  09:25:00        8.078       63.350       79.313       29.006       30.048       18.847      841.349      902.874      355.220        0.623        0.105       63.863       16.582        0.067      332.207        0.719      875.173
12/25/2013  09:26:00       -3.895       68.447       96.543       20.437       36.074       19.608      417.681     1301.312      384.480        0.806        0.105       68.558       21.693        0.100      332.188        0.689      875.178
12/25/2013  09:27:00       36.977       75.173       80.880       47.247       41.793       43.169     2232.239     1746.689     1863.566        0.970        0.292       83.775       33.102        0.156      332.074        0.501      875.190
12/25/2013  09:28:00      127.072       82.221       32.557       16.711       21.655       37.904      279.268      468.949     1436.701        1.308        0.109      151.353       21.818        0.021      331.846        0.126      875.211
12/25/2013  09:29:00       89.010       66.889        0.850       27.870       24.049       17.482      776.752      578.356      305.626        0.703        0.083      111.342       11.945        0.012      331.873        0.169      875.225
12/25/2013  09:30:00       34.989       56.233       38.694       34.176       24.026       26.318     1168.001      577.248      692.636        0.416        0.122       66.230       21.942        0.110      332.196        0.702      875.224
12/25/2013  09:31:00       28.629       32.172       41.779       45.511       42.763       46.383     2071.221     1828.635     2151.380        0.482        0.303       43.066       33.574        0.608      332.390        1.022      875.229
12/25/2013  09:32:00       20.202       61.677       78.706       36.258       40.514       27.117     1314.617     1641.347      735.357        0.705        0.185       64.902       23.130        0.127      332.524        1.244      875.219
12/25/2013  09:33:00       12.269       54.795       60.030       18.914       31.477       20.682      357.733      990.817      427.738        0.427        0.089       56.152       20.526        0.134      332.377        0.999      875.221
12/25/2013  09:34:00        9.208       31.888       52.119       26.070       28.834       20.868      679.669      831.392      435.478        0.288        0.097       33.191       18.100        0.297      332.588        1.349      875.206
12/25/2013  09:35:00        0.334       43.720       50.986       29.596       31.863       25.363      875.913     1015.264      643.301        0.352        0.127       43.722       14.634        0.112      332.669        1.482      875.190
12/25/2013  09:36:00       15.905       51.133       41.097       41.533       31.229       27.802     1725.028      975.270      772.947        0.401        0.174       53.549       11.581        0.047      332.555        1.293      875.172
12/25/2013  09:37:00       83.003       48.431        8.052       32.110       27.191       32.728     1031.021      739.370     1071.092        0.607        0.142       96.099       13.962        0.021      332.296        0.867      875.166
12/25/2013  09:38:00       43.619       36.336       25.204       26.231       16.928       26.696      688.054      286.558      712.700        0.277        0.084       56.771       15.102        0.071      332.301        0.875      875.154
12/25/2013  09:39:00       22.403       56.933       -1.025       28.986       18.939       32.607      840.171      358.675     1063.232        0.300        0.113       61.182       17.776        0.084      332.323        0.912      875.155
12/25/2013  09:40:00       33.550       57.780       42.135       27.472       15.558       23.982      754.686      242.053      575.138        0.391        0.079       66.814       17.102        0.066      332.396        1.032      875.153
12/25/2013  09:41:00       25.729       55.978       46.824       27.978       19.010       27.303      782.776      361.383      745.444        0.394        0.094       61.608       20.892        0.115      332.507        1.215      875.147
12/25/2013  09:42:00        2.007       41.772       38.940       14.733       24.861       23.310      217.053      618.058      543.343        0.232        0.069       41.821       15.322        0.134      332.851        1.782      875.145
12/25/2013  09:43:00       18.945       16.094       25.205       25.678       17.247       18.317      659.368      297.468      335.529        0.127        0.065       24.858        7.773        0.098      332.893        1.853      875.141
12/25/2013  09:44:00       21.504       26.970        9.948       35.927       17.821       14.497     1290.761      317.595      210.174        0.155        0.091       34.493        9.736        0.080      332.732        1.586      875.142
12/25/2013  09:45:00        0.934       23.966       12.359       13.893       24.735       16.899      193.029      611.816      285.582        0.091        0.055       23.984       10.824        0.204      333.181        2.329      875.143
12/25/2013  09:46:00        1.999      -34.182        7.623       31.820       42.276       21.049     1012.534     1787.274      443.063        0.224        0.162       34.240       20.105        0.345      332.898        1.860      875.127
12/25/2013  09:47:00       32.654       39.583       15.142       31.658       28.042       27.104     1002.205      786.363      734.654        0.269        0.126       51.313       10.774        0.044      332.997        2.024      875.126
12/25/2013  09:48:00        7.590       26.010       34.090       34.402       26.871       16.046     1183.495      722.075      257.460        0.203        0.108       27.094        8.422        0.097      333.304        2.532      875.124
12/25/2013  09:49:00        5.666       40.210       43.088       27.785       19.691       23.300      772.021      387.733      542.897        0.260        0.085       40.607       18.111        0.199      332.898        1.860      875.138
12/25/2013  09:50:00       15.081       19.573       37.205       32.583       32.071       26.259     1061.623     1028.527      689.523        0.239        0.139       24.709       19.585        0.628      333.042        2.098      875.150
12/25/2013  09:51:00       20.864       48.388       67.542       34.248       37.617       18.320     1172.946     1415.054      335.615        0.513        0.146       52.694        9.908        0.035      333.137        2.256      875.145
12/25/2013  09:52:00       30.326       72.601       68.288       42.046       37.739       25.257     1767.873     1424.232      637.914        0.734        0.192       78.680       14.830        0.036      332.797        1.693      875.150
12/25/2013  09:53:00       77.441       73.885       27.552       53.086       33.456       43.955     2818.086     1119.326     1932.031        0.904        0.293      107.033       33.965        0.101      332.757        1.629      875.151
12/25/2013  09:54:00       84.632       72.909       20.580       38.387       20.293       31.290     1473.554      411.807      979.043        0.788        0.143      111.706       25.289        0.051      332.462        1.140      875.154
12/25/2013  09:55:00       20.122       42.030       66.582       35.532       30.907       16.910     1262.554      955.222      285.949        0.455        0.125       46.599       15.915        0.117      333.097        2.189      875.162
12/25/2013  09:56:00      110.228       65.934       22.157       41.443       44.386       30.835     1717.530     1970.116      950.784        1.081        0.232      128.442       27.245        0.045      332.748        1.611      875.170
12/25/2013  09:57:00       56.739       67.223       56.660       50.674       39.950       42.947     2567.817     1595.964     1844.475        0.848        0.300       87.968       36.173        0.169      332.930        1.912      875.184
12/25/2013  09:58:00       22.869       48.769       43.295       44.786       39.886       34.716     2005.821     1590.918     1205.185        0.479        0.240       53.865       30.577        0.322      333.230        2.408      875.198
12/25/2013  09:59:00       62.394       80.464        0.465       41.192       40.292       29.388     1696.766     1623.470      863.655        0.728        0.209      101.821       19.846        0.038      332.799        1.697      875.198
12/25/2013  10:00:00       34.567       77.444      -10.371       24.606       28.804       26.883      605.456      829.666      722.674        0.473        0.108       84.808       15.270        0.032      332.879        1.829      875.204
12/25/2013  10:01:00       79.186       44.536       -0.677       28.042       22.813       20.084      786.371      520.411      403.363        0.498        0.086       90.851        8.670        0.009      332.746        1.609      875.209
12/25/2013  10:02:00       58.507       74.020       -5.534       44.372       28.497       25.430     1968.849      812.068      646.665        0.618        0.171       94.351       13.594        0.021      333.150        2.276      875.198
12/25/2013  10:03:00       70.288       51.582        5.581       29.944       33.647       31.031      896.654     1132.094      962.898        0.531        0.150       87.184       13.692        0.025      333.020        2.061      875.182
12/25/2013  10:04:00       35.123       69.739       11.926       36.879       31.997       36.206     1360.049     1023.814     1310.880        0.497        0.185       78.085       16.543        0.045      332.959        1.961      875.166
12/25/2013  10:05:00       16.445       42.497       43.214       32.142       48.678       28.786     1033.137     2369.564      828.635        0.409        0.212       45.568       17.552        0.148      333.429        2.738      875.141
12/25/2013  10:06:00       85.744       74.588       24.571       41.503       32.250       32.760     1722.493     1040.073     1073.203        0.868        0.192      113.646       17.410        0.023      333.043        2.100      875.126
12/25/2013  10:07:00       81.854       67.757        0.280       15.257       14.581       20.605      232.787      212.604      424.569        0.608        0.043      106.259        9.223        0.008      332.732        1.586      875.121
12/25/2013  10:08:00        3.956       18.544       -4.363       32.372       20.217       14.382     1047.965      408.725      206.831        0.102        0.083       18.961        6.280        0.110      332.972        1.982      875.123
12/25/2013  10:09:00       -6.622       20.605       39.887       27.001       24.991       29.658      729.064      624.526      879.603        0.215        0.112       21.643       22.320        1.064      333.470        2.806      875.111
12/25/2013  10:10:00        2.295       39.058       54.091       27.992       43.690       23.116      783.532     1908.804      534.339        0.384        0.161       39.126       13.246        0.115      333.551        2.941      875.105
12/25/2013  10:11:00       -3.336       15.349       36.787       34.528       19.514       21.441     1192.203      380.778      459.732        0.182        0.102       15.707       15.099        0.924      333.599        3.018      875.104
12/25/2013  10:12:00       12.035       43.722       66.950       31.279       33.840       21.185      978.385     1145.150      448.822        0.456        0.129       45.348       15.107        0.111      333.528        2.902      875.101
12/25/2013  10:13:00       17.176       76.167       24.331       29.257       51.976       39.075      855.954     2701.503     1526.836        0.589        0.254       78.079       33.670        0.186      333.398        2.686      875.083
12/25/2013  10:14:00       13.174       38.869       19.326       24.711       47.341       32.060      610.656     2241.179     1027.823        0.297        0.194       41.041       29.155        0.505      333.623        3.060      875.084
12/25/2013  10:15:00        3.186       37.135        8.266       24.597       39.319       24.117      604.994     1545.951      581.649        0.209        0.137       37.271       22.135        0.353      333.600        3.022      875.068
12/25/2013  10:16:00       45.100       30.824        5.319       30.779       23.397       17.983      947.329      547.422      323.401        0.241        0.091       54.627       13.371        0.060      333.552        2.941      875.048
12/25/2013  10:17:00       74.275       62.736       12.932       33.120       24.780       39.081     1096.914      614.040     1527.287        0.643        0.162       97.224       10.126        0.011      333.384        2.663      875.035
12/25/2013  10:18:00       21.760       23.600        4.719       29.903       26.911       21.694      894.193      724.183      470.619        0.157        0.104       32.101       10.893        0.115      333.548        2.935      875.024
12/25/2013  10:19:00       36.762       21.419       30.553       17.600       18.772       23.271      309.761      352.387      541.529        0.197        0.060       42.547       15.182        0.127      333.718        3.217      875.011
12/25/2013  10:20:00       -1.921      -13.926       25.731       26.602       14.122       13.083      707.661      199.443      171.165        0.097        0.054       14.058        7.850        0.312      333.951        3.602      874.993
12/25/2013  10:21:00       40.037       47.714       15.836       35.610       34.033       24.195     1268.100     1158.262      585.417        0.357        0.151       62.286       22.011        0.125      333.612        3.042      874.980
12/25/2013  10:22:00       67.125       93.687       -0.026       39.231       34.409       28.685     1539.046     1183.974      822.817        0.841        0.177      115.252       19.436        0.028      333.666        3.130      874.974
12/25/2013  10:23:00       54.997       81.034       -1.736       30.510       37.775       23.999      930.851     1426.932      575.943        0.626        0.147       97.935       10.216        0.011      333.654        3.110      874.958
12/25/2013  10:24:00       24.527       98.326      -13.899       28.272       25.945       28.541      799.303      673.168      814.616        0.637        0.114      101.339       12.090        0.014      333.388        2.672      874.956
12/25/2013  10:25:00       30.146       47.715        7.550       39.813       20.972       22.505     1585.072      439.811      506.471        0.289        0.127       56.440       21.561        0.146      333.592        3.008      874.945
12/25/2013  10:26:00       30.085       23.867       -6.201       12.884       16.110       12.161      166.007      259.525      147.878        0.104        0.029       38.402        5.998        0.024      333.398        2.685      874.937
12/25/2013  10:27:00       20.229       27.660       -1.421       18.147       17.102       13.609      329.325      292.472      185.192        0.099        0.040       34.268       10.975        0.103      333.369        2.637      874.914
12/25/2013  10:28:00       -6.408        8.632       27.608       11.668       10.367        8.518      136.149      107.472       72.562        0.060        0.016       10.750        6.773        0.397      334.294        4.172      874.893
12/25/2013  10:29:00        1.544       15.853       15.109       16.620       25.760       21.604      276.210      663.555      466.754        0.094        0.070       15.928       16.413        1.062      334.175        3.975      874.889
12/25/2013  10:30:00        1.555       22.347       49.338       15.675       28.937       28.242      245.712      837.351      797.635        0.241        0.094       22.401       24.080        1.156      334.357        4.275      874.878
12/25/2013  10:31:00       30.317       48.301       67.420       38.790       30.318       22.049     1504.690      919.168      486.158        0.535        0.146       57.027       17.343        0.092      333.781        3.321      874.877
12/25/2013  10:32:00       16.024       42.896       54.177       28.270       27.817       16.296      799.191      773.775      265.563        0.343        0.092       45.791       14.382        0.099      333.874        3.475      874.877
12/25/2013  10:33:00        0.444       -9.912       35.843       12.713       22.011       16.183      161.621      484.463      261.898        0.115        0.045        9.922       13.795        1.933      334.370        4.299      874.869
12/25/2013  10:34:00      -11.782        5.153       25.723       16.730       19.752       14.779      279.892      390.138      218.408        0.086        0.044       12.860        9.284        0.521      334.428        4.394      874.866
12/25/2013  10:35:00        0.482       88.766       -7.177       24.127       34.036       22.336      582.122     1158.471      498.894        0.508        0.112       88.767       15.219        0.029      333.912        3.538      874.867
12/25/2013  10:36:00       25.828       53.677       16.093       33.664       45.068       29.691     1133.277     2031.105      881.581        0.393        0.202       59.567       24.466        0.169      334.113        3.873      874.868
12/25/2013  10:37:00       -6.217       61.196       -8.209       27.328       42.457       21.867      746.808     1802.616      478.174        0.344        0.151       61.511       21.759        0.125      333.942        3.588      874.881
12/25/2013  10:38:00       -1.844       29.609       48.005       34.427       41.038       31.492     1185.252     1684.078      991.741        0.352        0.193       29.666       30.379        1.049      334.509        4.529      874.870
12/25/2013  10:39:00       56.151       65.375        3.158       50.599       39.643       30.897     2560.292     1571.531      954.602        0.626        0.254       86.179       25.394        0.087      333.882        3.489      874.850
12/25/2013  10:40:00       60.854       78.213       -6.163       48.403       28.291       29.136     2342.881      800.364      848.927        0.692        0.200       99.098       17.968        0.033      334.086        3.827      874.831
12/25/2013  10:41:00       90.868       68.472       22.616       29.300       26.088       34.217      858.494      680.587     1170.809        0.808        0.135      113.778       14.396        0.016      333.871        3.471      874.810
12/25/2013  10:42:00       21.886       60.925       -1.184       23.265       28.828       20.594      541.253      831.080      424.104        0.299        0.090       64.737       17.913        0.077      333.876        3.479      874.793
12/25/2013  10:43:00       16.428       19.123       20.223       21.661       29.966       26.353      469.212      897.973      694.491        0.155        0.103       25.210        9.190        0.133      334.429        4.397      874.779
12/25/2013  10:44:00       28.892       47.920       68.869       32.773       37.229       19.228     1074.093     1385.983      369.712        0.535        0.141       55.956       19.101        0.117      334.205        4.024      874.768
12/25/2013  10:45:00       37.471       32.599       11.315       49.681       23.993       27.942     2468.194      575.662      780.734        0.321        0.191       49.666       20.792        0.175      333.983        3.656      874.768
12/25/2013  10:46:00       94.305       73.989       23.171       51.264       34.617       24.602     2627.989     1198.302      605.244        0.967        0.222      119.866       15.010        0.016      334.112        3.869      874.740
12/25/2013  10:47:00      103.823       81.698       -0.397       24.958       26.220       24.736      622.881      687.513      611.881        0.969        0.096      132.113        6.456        0.002      333.816        3.378      874.732
12/25/2013  10:48:00       51.480       65.664       -9.792       24.461       21.932       21.170      598.345      480.997      448.150        0.429        0.076       83.439       10.668        0.016      334.026        3.727      874.735
12/25/2013  10:49:00       -2.156       36.304       42.196       19.895       32.898       41.453      395.819     1082.282     1718.310        0.315        0.160       36.368       20.080        0.305      334.400        4.348      874.714
12/25/2013  10:50:00       13.749       63.112       87.794       41.945       42.252       27.931     1759.388     1785.204      780.162        0.810        0.216       64.592       25.289        0.153      334.309        4.197      874.708
12/25/2013  10:51:00       -4.672       19.184       59.620       17.342       40.239       27.993      300.761     1619.151      783.603        0.332        0.135       19.744       27.788        1.981      334.475        4.472      874.687
12/25/2013  10:52:00       48.166       52.117       53.358       48.091       42.557       31.905     2312.746     1811.130     1017.925        0.651        0.257       70.966       32.515        0.210      334.516        4.539      874.663
12/25/2013  10:53:00       49.123       35.862       27.972       52.198       40.911       33.677     2724.599     1673.706     1134.124        0.501        0.277       60.821       20.359        0.112      334.488        4.494      874.653
12/25/2013  10:54:00       30.267       39.901       56.605       28.223       48.955       34.942      796.527     2396.578     1220.969        0.506        0.221       50.081       24.863        0.246      334.758        4.942      874.630
12/25/2013  10:55:00       33.698       -4.430       40.555       34.138       55.507       43.202     1165.417     3081.002     1866.390        0.446        0.306       33.988       31.812        0.876      334.654        4.768      874.622
12/25/2013  10:56:00       19.311      -12.473       10.111       34.806       51.821       25.858     1211.487     2685.466      668.622        0.260        0.228       22.989       15.254        0.440      334.296        4.176      874.610
12/25/2013  10:57:00       27.813        6.089       15.741       30.195       39.485       20.250      911.741     1559.102      410.078        0.197        0.144       28.471       10.577        0.138      334.526        4.557      874.604
12/25/2013  10:58:00        8.942      -20.924       12.291       21.781       33.744       20.574      474.407     1138.664      423.291        0.135        0.102       22.754       21.487        0.892      334.905        5.187      874.599
12/25/2013  10:59:00       26.809       37.628       34.752       26.850       21.427       31.103      720.922      459.120      967.393        0.274        0.107       46.201       22.684        0.241      334.800        5.013      874.597
12/25/2013  11:00:00       20.642       57.029       55.659       45.549       31.506       37.737     2074.676      992.616     1424.067        0.563        0.225       60.650       27.527        0.206      334.694        4.836      874.590
12/25/2013  11:01:00       25.925       64.424       77.702       30.500       47.117       21.536      930.238     2219.985      463.809        0.724        0.181       69.445       27.391        0.156      334.556        4.607      874.573
12/25/2013  11:02:00       80.513       67.468       29.462       30.415       29.434       39.906      925.096      866.360     1592.488        0.764        0.169      105.044       29.385        0.078      334.154        3.940      874.570
12/25/2013  11:03:00       62.341       60.317       11.048       29.770       21.718       22.721      886.226      471.681      516.231        0.476        0.094       86.744       15.626        0.032      334.135        3.909      874.562
12/25/2013  11:04:00       16.905       51.892       35.967       23.234       38.945       35.398      539.824     1516.715     1253.017        0.379        0.165       54.576        9.346        0.029      334.865        5.118      874.561
12/25/2013  11:05:00        4.507       48.321       67.804       34.728       39.083       31.657     1206.064     1527.472     1002.184        0.534        0.187       48.530       30.431        0.393      335.177        5.638      874.549
12/25/2013  11:06:00       54.078       92.136       72.195       55.119       41.215       51.264     3038.078     1698.663     2628.004        1.199        0.368      106.834       45.893        0.185      334.500        4.515      874.540
12/25/2013  11:07:00       74.216       56.778       24.491       51.707       29.773       30.303     2673.636      886.446      918.264        0.690        0.224       93.444       19.590        0.044      334.378        4.313      874.521
12/25/2013  11:08:00       49.926       25.927       27.483       53.248       34.338       27.702     2835.370     1179.111      767.407        0.435        0.239       56.256       10.126        0.032      334.752        4.932      874.509
12/25/2013  11:09:00       59.831       57.007       37.559       40.211       27.897       32.025     1616.904      778.243     1025.597        0.583        0.171       82.641       25.839        0.098      334.526        4.557      874.501
12/25/2013  11:10:00       51.579       51.366        9.919       25.876       33.084       25.956      669.575     1094.522      673.735        0.392        0.122       72.794       19.079        0.069      334.545        4.589      874.492
12/25/2013  11:11:00       10.363       68.829       -7.859       27.134       32.097       30.262      736.241     1030.231      915.770        0.379        0.134       69.605       21.332        0.094      334.607        4.691      874.478
12/25/2013  11:12:00        1.785       63.684       -3.223       16.144       32.537       17.587      260.620     1058.630      309.313        0.285        0.081       63.709       19.188        0.091      334.689        4.828      874.470
12/25/2013  11:13:00        2.897       79.983        1.432       21.633       36.851       28.212      467.982     1358.002      795.893        0.451        0.131       80.035       22.230        0.077      334.682        4.817      874.457
12/25/2013  11:14:00       -7.119       59.053       -5.894       20.843       31.847       24.631      434.427     1014.233      606.685        0.281        0.103       59.481       20.731        0.121      334.591        4.664      874.437
12/25/2013  11:15:00       19.524       25.805       24.440       21.348       30.795       24.149      455.751      948.353      583.176        0.182        0.099       32.359       23.046        0.507      334.879        5.143      874.413
12/25/2013  11:16:00       24.724       34.586        0.395       38.199       38.749       32.682     1459.167     1501.469     1068.104        0.292        0.201       42.514       18.167        0.183      334.798        5.008      874.387
12/25/2013  11:17:00        0.605       45.578        2.351       27.279       38.462       20.722      744.156     1479.344      429.395        0.237        0.133       45.582       13.744        0.091      334.992        5.330      874.361
12/25/2013  11:18:00       -3.764       66.266        8.364       34.159       34.032       29.993     1166.844     1158.175      899.608        0.385        0.161       66.373       20.937        0.100      334.917        5.207      874.351
12/25/2013  11:19:00       18.310      -16.676       18.805       30.237       34.097       23.656      914.257     1162.574      559.587        0.180        0.132       24.766       18.542        0.561      335.155        5.603      874.337
12/25/2013  11:20:00       -7.970       28.798       23.820       25.055       36.756       24.698      627.736     1350.987      610.000        0.202        0.129       29.880       18.153        0.369      335.337        5.903      874.328
12/25/2013  11:21:00       11.889       26.531       32.477       24.581       23.480       21.467      604.238      551.298      460.853        0.176        0.081       29.073       14.141        0.237      335.555        6.268      874.309
12/25/2013  11:22:00       12.745       11.607       12.489       16.600       19.534       23.215      275.557      381.574      538.946        0.082        0.060       17.238       15.287        0.787      335.384        5.982      874.293
12/25/2013  11:23:00       17.789       34.666       17.891       25.689       31.220       21.701      659.929      974.703      470.950        0.197        0.105       38.964       16.107        0.171      335.266        5.786      874.268
12/25/2013  11:24:00        2.506        4.988       21.528       21.345       20.933       13.205      455.611      438.182      174.384        0.078        0.053        5.582       11.882        4.531      335.675        6.468      874.254
12/25/2013  11:25:00        2.340       41.952       62.015       19.484       27.830       19.259      379.635      774.524      370.911        0.357        0.076       42.017       18.095        0.185      335.367        5.954      874.232
12/25/2013  11:26:00       12.754       29.619       39.344       29.919       39.049       26.689      895.121     1524.800      712.279        0.286        0.157       32.249       18.740        0.338      335.221        5.712      874.222
12/25/2013  11:27:00       15.617       -7.391       45.378       41.995       74.840       44.631     1763.541     5600.973     1991.954        0.586        0.468       17.278       42.766        6.127      335.296        5.836      874.208
12/25/2013  11:28:00        8.597       22.076       51.773       26.409       60.806       28.620      697.422     3697.361      819.114        0.423        0.261       23.691       26.175        1.221      335.421        6.044      874.190
12/25/2013  11:29:00       22.651      -37.827       20.206       44.607       70.804       40.010     1989.766     5013.214     1600.779        0.548        0.430       44.090       35.974        0.666      335.318        5.873      874.172
12/25/2013  11:30:00        3.305       37.183       74.120       30.879       68.242       59.105      953.512     4656.906     3493.352        0.799        0.455       37.330       53.956        2.089      335.272        5.796      874.154
12/25/2013  11:31:00        5.580       64.181       84.384       22.103       44.573       22.778      488.548     1986.792      518.851        0.713        0.150       64.423       25.056        0.151      335.118        5.540      874.144
12/25/2013  11:32:00       20.998       17.635       61.124       28.022       40.638       27.201      785.260     1651.408      739.867        0.383        0.159       27.421       28.017        1.044      335.395        5.999      874.125
12/25/2013  11:33:00       21.460       10.921       42.590       36.098       32.710       22.558     1303.045     1069.963      508.861        0.264        0.144       24.079       16.361        0.462      335.452        6.096      874.124
12/25/2013  11:34:00       49.720       34.917       28.791       25.213       17.964       18.989      635.674      322.706      360.571        0.292        0.066       60.756       11.269        0.034      334.865        5.120      874.097
12/25/2013  11:35:00       40.273       34.591       44.942       26.754       35.487       18.850      715.758     1259.338      355.335        0.358        0.117       53.089       15.178        0.082      335.153        5.599      874.085
12/25/2013  11:36:00       41.857       65.973       67.403       46.393       57.219       39.533     2152.299     3274.053     1562.845        0.882        0.349       78.131       39.770        0.259      335.201        5.677      874.068
12/25/2013  11:37:00       13.595       34.408       56.299       31.341       28.336       20.594      982.272      802.919      424.109        0.337        0.110       36.996        8.087        0.048      335.380        5.977      874.071
12/25/2013  11:38:00       27.585       36.674       54.601       36.865       35.184       39.404     1359.020     1237.882     1552.680        0.462        0.207       45.891       28.068        0.374      335.402        6.012      874.061
12/25/2013  11:39:00       24.476       70.562       81.300       30.821       34.177       15.638      949.925     1168.096      244.547        0.727        0.118       74.686        8.540        0.013      335.501        6.177      874.040
12/25/2013  11:40:00       -4.987       40.749       64.503       33.150       32.837       24.799     1098.932     1078.291      615.004        0.432        0.140       41.053       22.740        0.307      335.650        6.425      874.027
12/25/2013  11:41:00      -26.778       -0.477       33.581       25.431       22.873       17.332      646.711      523.192      300.390        0.166        0.074       26.782       11.722        0.192      335.618        6.372      874.002
12/25/2013  11:42:00       14.155        0.680       19.182       47.562       36.409       30.708     2262.170     1325.603      942.983        0.255        0.227       14.171       27.471        3.758      335.527        6.220      873.992
12/25/2013  11:43:00       24.169       34.305       28.170       41.158       31.816       37.027     1693.973     1012.245     1371.007        0.332        0.204       41.964       23.325        0.309      335.367        5.955      873.974
12/25/2013  11:44:00       -1.358       -3.051       -2.114       30.074       32.122       30.575      904.455     1031.851      934.806        0.144        0.144        3.339       19.797       35.146      335.346        5.919      873.956
12/25/2013  11:45:00       44.508       14.781       35.209       50.912       34.146       33.125     2592.049     1165.977     1097.250        0.415        0.243       46.898       28.025        0.357      335.726        6.552      873.937
12/25/2013  11:46:00       14.378       45.255       63.421       39.515       49.784       48.377     1561.410     2478.400     2340.364        0.633        0.319       47.484       42.256        0.792      335.744        6.582      873.927
12/25/2013  11:47:00       29.248        4.267       48.410       51.568       65.559       48.757     2659.277     4298.044     2377.200        0.627        0.467       29.558       52.578        3.164      335.539        6.242      873.925
12/25/2013  11:48:00        3.747       29.502       60.554       22.328       40.152       19.333      498.533     1612.183      373.751        0.352        0.124       29.738       21.860        0.540      335.706        6.519      873.910
12/25/2013  11:49:00        4.332        3.977       52.931       28.176       51.799       22.132      793.894     2683.155      489.832        0.340        0.198        5.881       21.848       13.801      335.696        6.502      873.902
12/25/2013  11:50:00      -25.862        3.323       25.641       24.411       30.651       23.085      595.882      939.480      532.937        0.170        0.103       26.075       20.601        0.624      335.926        6.886      873.889
12/25/2013  11:51:00        1.186       17.651       54.299       32.624       31.306       23.294     1064.296      980.038      542.608        0.292        0.129       17.691       17.201        0.945      335.724        6.550      873.869
12/25/2013  11:52:00        5.930        1.661       38.061       39.000       35.256       31.451     1520.974     1242.991      989.145        0.262        0.188        6.158       23.872       15.030      335.671        6.460      873.857
12/25/2013  11:53:00      -17.347      -14.357       11.070       20.854       23.811       28.013      434.879      566.972      784.714        0.121        0.089       22.518       20.398        0.821      335.884        6.816      873.842
12/25/2013  11:54:00      -16.337      -25.022       24.518       35.259       38.280       32.292     1243.166     1465.345     1042.801        0.262        0.188       29.884       25.291        0.716      335.638        6.404      873.828
12/25/2013  11:55:00      -29.817      -79.415      -15.462       40.818       39.291       27.105     1666.135     1543.812      734.659        0.569        0.197       84.828       22.361        0.069      335.236        5.736      873.832
12/25/2013  11:56:00      -62.103      -50.268       -3.759       38.876       26.519       19.964     1511.317      703.256      398.577        0.450        0.131       79.897       20.680        0.067      335.208        5.689      873.802
12/25/2013  11:57:00       -4.149       -6.996       16.327       32.732       22.603       17.840     1071.363      510.890      318.269        0.112        0.095        8.134       20.806        6.543      335.791        6.659      873.784
12/25/2013  11:58:00        9.729       25.925       17.733       19.037       20.685       19.328      362.396      427.852      373.562        0.112        0.058       27.691       14.397        0.270      335.837        6.737      873.763
12/25/2013  11:59:00      -13.437       -0.102       26.435       16.500       21.953       26.936      272.247      481.927      725.539        0.118        0.074       13.437       22.288        2.751      336.100        7.175      873.732
12/25/2013  12:00:00      -57.408       -6.731        3.909       31.733       32.021       23.921     1006.965     1025.348      572.215        0.298        0.130       57.801       14.575        0.064      335.674        6.466      873.715
12/25/2013  12:01:00       61.813     -114.742      -18.600       38.720       59.753       28.849     1499.275     3570.391      832.256        1.162        0.295      130.333       17.973        0.019      335.226        5.719      873.700
12/25/2013  12:02:00       42.897      -78.719       -1.293       47.530       70.385       51.414     2259.094     4954.041     2643.443        0.895        0.493       89.648       54.883        0.375      335.516        6.203      873.675
12/25/2013  12:03:00      -23.923      -39.313       30.998       34.242       35.286       32.955     1172.496     1245.097     1086.043        0.329        0.175       46.020       15.636        0.115      335.695        6.501      873.656
12/25/2013  12:04:00        5.020      -30.733       14.725       36.203       40.677       25.791     1310.626     1654.585      665.159        0.241        0.182       31.140       24.484        0.618      335.821        6.710      873.631
12/25/2013  12:05:00       51.794      -63.463       -1.737       28.847       40.013       30.794      832.142     1601.044      948.265        0.505        0.169       81.916       28.031        0.117      335.340        5.909      873.608
12/25/2013  12:06:00        2.851      -11.706       28.973       25.217       39.584       35.138      635.902     1566.910     1234.678        0.221        0.172       12.048       33.645        7.798      335.863        6.782      873.571
12/25/2013  12:07:00       23.265       65.340       75.745       36.595       32.712       17.352     1339.172     1070.058      301.084        0.663        0.136       69.358       14.135        0.042      335.642        6.412      873.546
12/25/2013  12:08:00       80.908       70.358       48.809       22.642       13.402       21.562      512.673      179.618      464.905        0.752        0.058      107.221       12.628        0.014      335.356        5.937      873.526
12/25/2013  12:09:00       59.848       56.910       19.845       16.003       15.027       20.990      256.094      225.796      440.568        0.407        0.046       82.587       14.947        0.033      335.292        5.829      873.503
12/25/2013  12:10:00       23.928       25.159       13.157       12.615       19.100       14.804      159.135      364.824      219.147        0.106        0.037       34.721       11.006        0.100      335.468        6.122      873.476
12/25/2013  12:11:00       17.549       14.570       34.783       22.954       26.049       14.925      526.871      678.558      222.760        0.158        0.071       22.808       12.234        0.288      335.880        6.809      873.458
12/25/2013  12:12:00        6.689      -38.434       17.761       22.956       21.618       23.229      526.957      467.358      539.591        0.169        0.077       39.012        6.689        0.029      335.841        6.743      873.443
12/25/2013  12:13:00       -8.904      -66.811        4.682       23.615       17.314       19.101      557.648      299.759      364.855        0.289        0.061       67.402        7.240        0.012      335.542        6.244      873.440
12/25/2013  12:14:00       -5.198      -32.443        8.006       18.450       40.174       22.625      340.417     1613.979      511.898        0.180        0.123       32.856       24.053        0.536      335.870        6.792      873.440
12/25/2013  12:15:00       89.572       67.388       40.308       52.976       41.542       38.145     2806.405     1725.740     1455.061        1.009        0.299      112.091       24.824        0.049      335.809        6.691      873.417
12/25/2013  12:16:00       63.919       91.376       78.569       87.626       57.252       51.644     7678.332     3277.758     2667.092        1.611        0.681      111.514       26.559        0.057      335.749        6.589      873.408
12/25/2013  12:17:00       37.195       54.157       68.294       49.258       39.894       21.472     2426.395     1591.503      461.055        0.673        0.224       65.700       19.576        0.089      335.774        6.633      873.407
12/25/2013  12:18:00       15.028       33.772       45.881       32.056       56.532       43.810     1027.572     3195.908     1919.322        0.481        0.307       36.965       40.854        1.221      335.776        6.636      873.398
12/25/2013  12:19:00       55.115       21.162       57.837       51.206       56.947       46.571     2622.007     3242.971     2168.897        0.743        0.402       59.038       41.183        0.487      335.794        6.665      873.400
12/25/2013  12:20:00       56.628       48.815       30.012       53.550       43.272       35.307     2867.580     1872.487     1246.561        0.624        0.299       74.764       33.352        0.199      335.711        6.526      873.380
12/25/2013  12:21:00       84.465       60.007        5.696       31.778       27.399       30.789     1009.830      750.711      947.958        0.674        0.135      103.610       12.634        0.015      335.442        6.079      873.352
12/25/2013  12:22:00       -5.198       26.387        6.692       17.764       43.789       17.879      315.550     1917.515      319.646        0.166        0.128       26.894       19.656        0.534      335.855        6.767      873.332
12/25/2013  12:23:00       55.093      -89.765       -0.081       67.551       69.919       52.741     4563.177     4888.672     2781.662        1.166        0.612      105.324       46.383        0.194      335.764        6.615      873.309
12/25/2013  12:24:00       60.454      -67.445        1.352       54.089       63.158       47.307     2925.645     3988.963     2237.914        0.868        0.458       90.573       42.264        0.218      335.819        6.707      873.291
12/25/2013  12:25:00       61.338       25.456       49.835       62.762       89.213       53.333     3939.124     7958.964     2844.394        1.082        0.737       66.411       38.178        0.330      335.836        6.734      873.276
12/25/2013  12:26:00       40.241       71.511       78.009       48.906       38.715       22.364     2391.798     1498.839      500.133        0.860        0.220       82.056       18.908        0.053      335.837        6.735      873.254
12/25/2013  12:27:00       40.367       70.409       83.853       49.309       43.819       35.628     2431.372     1920.101     1269.334        0.962        0.281       81.160       26.675        0.108      335.855        6.768      873.242
12/25/2013  12:28:00      106.703      100.163       20.819       36.513       32.292       36.488     1333.178     1042.783     1331.408        1.278        0.185      146.350       26.304        0.032      335.407        6.020      873.235
12/25/2013  12:29:00       27.682       86.794       -5.171       50.227       25.489       25.406     2522.720      649.671      645.477        0.607        0.191       91.102       24.103        0.070      335.428        6.053      873.221
12/25/2013  12:30:00       38.179       66.446       59.536       39.312       30.813       26.704     1545.406      949.467      713.113        0.631        0.160       76.634       16.854        0.048      335.859        6.774      873.188
12/25/2013  12:31:00        9.609       46.750       54.976       29.772       35.332       23.209      886.382     1248.342      538.645        0.399        0.134       47.727       13.861        0.084      336.201        7.344      873.177
12/25/2013  12:32:00       85.559      104.607       77.530       89.785       54.404       55.820     8061.424     2959.830     3115.821        1.920        0.707      135.141       53.731        0.158      335.634        6.396      873.154
12/25/2013  12:33:00       62.285      -28.866       33.323       44.974       65.686       46.800     2022.653     4314.607     2190.205        0.717        0.426       68.649       53.166        0.600      335.537        6.236      873.140
12/25/2013  12:34:00       36.326       69.713       52.735       48.909       47.338       53.096     2392.099     2240.870     2819.207        0.821        0.373       78.610       33.582        0.182      335.910        6.858      873.112
12/25/2013  12:35:00       31.468       55.777       48.311       40.946       40.785       25.865     1676.580     1663.388      669.023        0.522        0.200       64.041       20.927        0.107      336.170        7.291      873.094
12/25/2013  12:36:00       65.301       73.252       17.112       45.311       30.964       30.697     2053.093      958.747      942.277        0.694        0.198       98.133       22.336        0.052      335.734        6.567      873.077
12/25/2013  12:37:00       44.890       86.003      -13.496       32.671       39.164       28.130     1067.364     1533.828      791.297        0.649        0.170       97.013       25.547        0.069      335.567        6.287      873.058
12/25/2013  12:38:00       20.546       60.811        2.290       32.605       29.834       27.171     1063.059      890.081      738.260        0.341        0.135       64.188       20.815        0.105      335.840        6.742      873.054
12/25/2013  12:39:00       -2.025       54.349       -6.639       36.889       46.807       24.994     1360.807     2190.920      624.685        0.359        0.209       54.387       28.434        0.273      335.791        6.660      873.045
12/25/2013  12:40:00       32.011       31.392       11.463       34.148       24.395       22.620     1166.110      595.133      511.647        0.221        0.114       44.835       21.837        0.237      335.774        6.631      873.029
12/25/2013  12:41:00       90.402       68.558       49.687       53.430       42.421       40.567     2854.764     1799.522     1645.658        1.082        0.315      113.458       25.969        0.052      335.796        6.669      873.010
12/25/2013  12:42:00      124.477       97.368       11.587       42.885       44.935       38.714     1839.089     2019.181     1498.769        1.523        0.268      158.035       21.434        0.018      335.619        6.373      873.008
12/25/2013  12:43:00      100.758       69.858        4.312       34.494       21.243       25.579     1189.841      451.274      654.308        0.867        0.115      122.606       16.537        0.018      335.528        6.221      873.011
12/25/2013  12:44:00       18.122      115.824      -12.920       31.654       37.176       27.661     1001.947     1382.068      765.134        0.853        0.157      117.234       24.126        0.042      335.578        6.305      872.995
12/25/2013  12:45:00       43.968       74.646        1.130       41.429       45.340       36.931     1716.350     2055.724     1363.906        0.632        0.257       86.632       31.833        0.135      335.792        6.661      872.970
12/25/2013  12:46:00      104.644       68.837       -1.218       35.777       36.285       35.497     1279.995     1316.608     1260.026        0.977        0.193      125.255       21.187        0.029      335.619        6.373      872.955
12/25/2013  12:47:00       83.014       41.752       10.418       64.420       42.737       35.172     4149.878     1826.436     1237.044        0.798        0.361       92.922       32.121        0.119      335.684        6.482      872.943
12/25/2013  12:48:00       60.166       33.606       37.823       49.886       31.722       21.268     2488.643     1006.262      452.318        0.506        0.197       68.916       16.512        0.057      335.961        6.943      872.917
12/25/2013  12:49:00       11.403       59.046       -6.927       13.666       34.100       16.700      186.749     1162.807      278.876        0.265        0.081       60.137        8.384        0.019      336.075        7.134      872.897
12/25/2013  12:50:00       44.004       45.132       11.323       40.778       27.760       29.704     1662.809      770.603      882.326        0.371        0.166       63.034        4.866        0.006      336.246        7.419      872.878
12/25/2013  12:51:00       61.832       70.352       71.966       48.892       38.937       33.429     2390.459     1516.092     1117.477        0.949        0.251       93.663       30.227        0.104      335.918        6.872      872.864
12/25/2013  12:52:00       60.412       13.993       33.069       53.536       54.084       36.694     2866.116     2925.053     1346.461        0.604        0.357       62.011       37.531        0.366      336.071        7.127      872.836
12/25/2013  12:53:00      107.254       82.015       23.457       49.387       38.993       36.901     2439.111     1520.440     1361.682        1.205        0.266      135.018       17.917        0.018      335.933        6.897      872.809
12/25/2013  12:54:00       65.005       60.093       -0.342       38.201       35.570       29.394     1459.326     1265.226      864.020        0.571        0.179       88.526       25.893        0.086      335.881        6.810      872.804
12/25/2013  12:55:00       49.266       43.304        3.291       24.992       34.357       25.114      624.609     1180.399      630.700        0.337        0.122       65.593       14.643        0.050      335.852        6.762      872.795
12/25/2013  12:56:00       13.749       15.006       13.631       24.247       36.190       17.323      587.936     1309.733      300.084        0.140        0.110       20.352        8.525        0.175      336.094        7.164      872.770
12/25/2013  12:57:00       10.194       35.881       -0.102       31.717       28.516       27.324     1005.980      813.162      746.580        0.198        0.128       37.301       22.117        0.352      335.725        6.551      872.754
12/25/2013  12:58:00       16.422       14.108       -6.535       23.942       27.495       14.477      573.221      755.959      209.578        0.102        0.077       21.650       12.063        0.310      336.154        7.265      872.740
12/25/2013  12:59:00       13.024       95.267       -9.660       20.529       27.763       21.689      421.426      770.800      470.408        0.550        0.083       96.153       21.668        0.051      335.957        6.936      872.730
12/25/2013  13:00:00       61.067       69.483        2.961       59.450       37.442       33.929     3534.249     1401.910     1151.169        0.733        0.304       92.504       25.590        0.077      335.985        6.983      872.703
12/25/2013  13:01:00      101.012       64.190       13.940       43.329       25.811       27.182     1877.418      666.196      738.874        0.890        0.164      119.682       16.808        0.020      335.887        6.820      872.689
12/25/2013  13:02:00      137.150      105.719        4.490       34.832       35.073       30.461     1213.252     1230.119      927.875        1.669        0.169      173.166       25.125        0.021      335.791        6.660      872.685
12/25/2013  13:03:00      118.650       92.089       15.145       45.799       35.556       34.029     2097.537     1264.247     1157.961        1.365        0.226      150.194       17.085        0.013      335.766        6.617      872.673
12/25/2013  13:04:00       67.196       78.114      -11.695       30.790       30.493       25.145      948.017      929.851      632.262        0.663        0.126      103.039       21.276        0.043      335.762        6.612      872.661
12/25/2013  13:05:00       10.653       72.601      -13.828       27.174       34.240       22.056      738.433     1172.358      486.471        0.399        0.120       73.379       17.244        0.055      335.839        6.740      872.642
12/25/2013  13:06:00       -1.518      105.860       -7.693       21.426       23.790       22.466      459.055      565.973      504.706        0.640        0.076      105.871       16.641        0.025      335.917        6.872      872.630
12/25/2013  13:07:00       10.717       61.938        3.551       28.893       45.459       25.338      834.800     2066.525      642.036        0.375        0.177       62.859       26.747        0.181      336.067        7.120      872.615
12/25/2013  13:08:00       58.662       29.163        0.122       21.254       17.833       17.138      451.721      318.004      293.724        0.268        0.053       65.511        8.298        0.016      335.859        6.773      872.599
12/25/2013  13:09:00       67.164       47.039       -3.609       16.931       18.328       20.703      286.652      335.899      428.621        0.389        0.053       81.998        9.915        0.015      335.942        6.912      872.597
12/25/2013  13:10:00       22.024        2.888       25.537       20.799       26.961       13.581      432.617      726.872      184.456        0.124        0.067       22.213       14.635        0.434      336.404        7.682      872.593
12/25/2013  13:11:00       32.399       -5.286        9.406       21.504       32.435       16.815      462.435     1052.005      282.730        0.148        0.090       32.827       13.970        0.181      336.298        7.506      872.588
12/25/2013  13:12:00       19.317        3.156       -5.808       23.698       33.419       23.642      561.573     1116.851      558.942        0.133        0.112       19.573       16.075        0.675      336.315        7.533      872.562
12/25/2013  13:13:00       48.984       18.211       25.883       41.230       28.446       30.852     1699.938      809.195      951.820        0.343        0.173       52.260       18.888        0.131      336.312        7.529      872.552
12/25/2013  13:14:00       47.117      -80.848       -4.433       53.498       69.133       38.857     2862.026     4779.339     1509.851        0.896        0.458       93.575       33.377        0.127      336.265        7.452      872.542
12/25/2013  13:15:00      102.599     -113.825      -21.926       35.853       49.969       22.553     1285.450     2496.860      508.639        1.413        0.215      153.241       17.036        0.012      335.910        6.857      872.524
12/25/2013  13:16:00       90.089      -93.714      -15.481       41.620       47.518       33.479     1732.198     2257.979     1120.813        1.112        0.256      129.994       32.236        0.061      336.024        7.048      872.519
12/25/2013  13:17:00       25.719       40.292       39.331       37.138       52.065       32.107     1379.200     2710.815     1030.885        0.448        0.256       47.801       35.173        0.541      336.238        7.405      872.513
12/25/2013  13:18:00       -2.859       19.370       19.229       19.205       40.023       34.024      368.817     1601.878     1157.654        0.194        0.156       19.580       26.189        1.789      336.471        7.796      872.479
12/25/2013  13:19:00      -31.121      -54.782       26.246       35.353       49.715       24.107     1249.868     2471.551      581.162        0.448        0.215       63.005       11.062        0.031      336.624        8.052      872.449
12/25/2013  13:20:00        7.824       25.931       46.504       22.319       33.986       22.330      498.141     1155.017      498.632        0.252        0.108       27.086       17.195        0.403      336.578        7.976      872.440
12/25/2013  13:21:00       -9.308       46.163       37.107       18.378       19.787       32.324      337.754      391.539     1044.852        0.268        0.089       47.092       16.138        0.117      336.572        7.964      872.413
12/25/2013  13:22:00        3.984        6.422       48.493       26.286       39.273       25.413      690.935     1542.375      645.828        0.264        0.144        7.558       24.727       10.704      336.612        8.031      872.391
12/25/2013  13:23:00       52.047      -68.109       -5.475       41.045       45.174       30.927     1684.677     2040.656      956.506        0.603        0.234       85.719       21.990        0.066      336.276        7.470      872.363
12/25/2013  13:24:00       21.007      -46.202       17.181       31.224       63.605       32.189      974.924     4045.567     1036.113        0.446        0.303       50.753       39.080        0.593      336.595        8.002      872.346
12/25/2013  13:25:00       23.193        9.568       53.949       36.430       59.748       44.855     1327.121     3569.873     2011.998        0.522        0.345       25.089       43.994        3.075      336.492        7.830      872.326
12/25/2013  13:26:00       59.268      -41.849       20.543       60.979       67.878       45.487     3718.498     4607.436     2069.033        0.804        0.520       72.553       44.402        0.375      336.437        7.739      872.313
12/25/2013  13:27:00       72.082      -69.638       -6.482       26.742       29.378       32.679      715.148      863.072     1067.934        0.637        0.132      100.226       23.621        0.056      336.135        7.233      872.305
12/25/2013  13:28:00       33.966      -34.807       10.527       22.327       50.202       28.387      498.485     2520.204      805.810        0.315        0.191       48.633       33.724        0.481      336.227        7.388      872.292
12/25/2013  13:29:00       26.386      -51.638      -19.080       19.483       31.093       23.784      379.580      966.773      565.693        0.282        0.096       57.989        6.259        0.012      336.224        7.382      872.267
12/25/2013  13:30:00       39.533      -74.505      -14.851       43.133       66.193       33.557     1860.453     4381.564     1126.104        0.735        0.368       84.343       39.732        0.222      336.451        7.761      872.249
12/25/2013  13:31:00       44.217      -81.255       -0.907       41.746       48.046       31.224     1742.737     2308.407      974.938        0.679        0.251       92.507       28.139        0.093      336.277        7.470      872.229
12/25/2013  13:32:00       55.152      -73.482       14.877       61.662       48.242       42.866     3802.258     2327.313     1837.474        0.831        0.398       91.877       38.992        0.180      336.366        7.621      872.201
12/25/2013  13:33:00       58.424      -57.048        1.838       42.014       46.393       34.570     1765.184     2152.332     1195.117        0.589        0.256       81.657       30.549        0.140      336.309        7.524      872.185
12/25/2013  13:34:00       45.008      -25.211       26.298       29.484       32.742       30.917      869.316     1072.018      955.830        0.312        0.145       51.588       27.565        0.286      336.443        7.747      872.174
12/25/2013  13:35:00       13.944      -18.970       -3.371       15.006       17.764       14.247      225.185      315.556      202.966        0.065        0.037       23.544        8.813        0.140      336.436        7.736      872.147
12/25/2013  13:36:00       -0.654       -9.338      -16.542       27.474       16.252       14.965      754.807      264.113      223.958        0.080        0.062        9.361       13.805        2.175      336.354        7.599      872.109
12/25/2013  13:37:00      -16.415       18.074        1.696       31.841       16.571       17.853     1013.824      274.591      318.716        0.110        0.080       24.415        9.416        0.149      336.571        7.962      872.088
12/25/2013  13:38:00        4.004       25.231       50.956       35.521       34.480       29.334     1261.726     1188.897      860.464        0.328        0.166       25.547       30.787        1.452      337.002        8.683      872.070
12/25/2013  13:39:00       25.941       -6.299       32.592       26.833       26.835       23.207      720.022      720.097      538.575        0.188        0.099       26.695       19.778        0.549      337.077        8.808      872.048
12/25/2013  13:40:00       -1.460       25.379       38.859       18.338       20.656       15.314      336.266      426.685      234.530        0.158        0.050       25.421        9.877        0.151      337.085        8.821      872.014
12/25/2013  13:41:00       -8.549        0.063       22.626       42.443       45.988       22.175     1801.412     2114.918      491.725        0.250        0.220        8.549        5.795        0.459      337.118        8.876      871.980
12/25/2013  13:42:00       58.807      -22.643       21.069       64.532       68.319       46.657     4164.389     4667.433     2176.891        0.771        0.550       63.016       54.821        0.757      336.726        8.222      871.951
12/25/2013  13:43:00       99.752      -96.260        2.854       48.766       44.348       34.861     2378.085     1966.709     1215.302        1.239        0.278      138.623       37.059        0.071      336.317        7.535      871.934
12/25/2013  13:44:00       10.023       47.772       52.480       23.938       32.432       22.587      573.008     1051.803      510.164        0.364        0.107       48.813       15.848        0.105      336.644        8.085      871.916
12/25/2013  13:45:00       17.916       53.554       49.451       21.124       22.836       23.085      446.231      521.493      532.905        0.357        0.075       56.471       16.821        0.089      336.529        7.893      871.895
12/25/2013  13:46:00       -2.207      -29.217        1.744       21.454       42.217       25.099      460.280     1782.242      629.969        0.187        0.144       29.301       26.151        0.797      336.741        8.247      871.871
12/25/2013  13:47:00       -6.199      -27.468        9.795       24.826       27.847       26.542      616.350      775.444      704.457        0.149        0.105       28.159       14.959        0.282      336.968        8.625      871.863
12/25/2013  13:48:00        5.770      -52.191      -12.890       29.864       27.654       16.501      891.882      764.740      272.279        0.243        0.096       52.509        7.267        0.019      336.546        7.920      871.863
12/25/2013  13:49:00       -0.854        4.771       15.218       36.048       14.481       19.281     1299.444      209.694      371.774        0.107        0.094        4.847       17.156       12.531      336.805        8.354      871.858
12/25/2013  13:50:00        6.368       17.933       22.156       18.007       15.052       16.079      324.255      226.574      258.549        0.083        0.040       19.030        7.922        0.173      336.838        8.408      871.856
12/25/2013  13:51:00      -33.735       13.917       15.019       27.751       18.612       20.843      770.114      346.411      434.440        0.155        0.078       36.493       18.058        0.245      336.821        8.381      871.835
12/25/2013  13:52:00       34.921       18.420       34.822       50.170       28.060       19.664     2516.996      787.365      386.670        0.323        0.185       39.481       23.643        0.359      336.643        8.082      871.831
12/25/2013  13:53:00       14.058       38.900       51.190       22.257       36.291       31.227      495.373     1317.005      975.095        0.356        0.139       41.362       29.124        0.496      336.752        8.267      871.822
12/25/2013  13:54:00      -17.322       40.137       66.622       23.304       28.872       27.202      543.075      833.599      739.946        0.423        0.106       43.715       19.700        0.203      336.899        8.510      871.818
12/25/2013  13:55:00        2.877       15.929       42.778       29.084       29.788       16.988      845.890      887.331      288.603        0.206        0.101       16.186       18.630        1.325      337.001        8.681      871.802
12/25/2013  13:56:00       68.099        1.581       13.647       45.287       48.201       34.086     2050.956     2323.296     1161.883        0.518        0.277       68.117       17.835        0.069      336.612        8.033      871.782
12/25/2013  13:57:00       68.057       64.179       36.566       51.172       28.782       31.369     2618.546      828.428      984.003        0.726        0.222       93.545       16.781        0.032      336.482        7.814      871.773
12/25/2013  13:58:00       65.601       80.830       56.090       80.152       50.553       52.653     6424.352     2555.557     2772.344        1.287        0.588      104.100       46.983        0.204      336.581        7.977      871.770
12/25/2013  13:59:00       45.517       67.383       49.003       44.061       36.575       19.223     1941.398     1337.741      369.508        0.633        0.182       81.316        6.079        0.006      336.664        8.118      871.772
12/25/2013  14:00:00       96.842       54.963       47.907       61.798       42.661       37.187     3818.950     1819.972     1382.846        1.086        0.351      111.352       27.898        0.063      336.578        7.974      871.752
12/25/2013  14:01:00       78.487       43.238       24.883       63.126       51.145       32.724     3984.919     2615.766     1070.888        0.816        0.384       89.609       28.588        0.102      336.827        8.390      871.735
12/25/2013  14:02:00       15.042      -23.876       24.712       41.218       43.051       29.658     1698.890     1853.379      879.578        0.292        0.222       28.219       21.110        0.560      336.956        8.606      871.733
12/25/2013  14:03:00       21.268      -34.321       -1.246       24.126       23.871       17.241      582.056      569.834      297.264        0.154        0.072       40.376       14.120        0.122      336.534        7.901      871.738
12/25/2013  14:04:00       17.181       -9.826        4.928       17.219       25.183       19.922      296.495      634.164      396.898        0.087        0.066       19.793       20.966        1.122      336.543        7.917      871.747
12/25/2013  14:05:00      108.745       38.368        9.532       51.263       31.538       37.425     2627.920      994.635     1400.612        0.920        0.251      115.315       21.341        0.034      336.523        7.882      871.743
12/25/2013  14:06:00       77.114       43.079        6.981       46.971       41.666       32.180     2206.230     1736.015     1035.543        0.641        0.249       88.331       14.853        0.028      336.695        8.170      871.744
12/25/2013  14:07:00       17.633       26.753       43.836       31.984       28.752       19.730     1022.953      826.653      389.262        0.259        0.112       32.041       11.985        0.140      337.079        8.810      871.748
12/25/2013  14:08:00       19.658      -10.571       33.871       37.369       65.582       29.027     1396.444     4301.014      842.578        0.409        0.327       22.320       36.427        2.664      337.002        8.682      871.753
12/25/2013  14:09:00       53.554      -20.068       34.478       52.528       44.141       29.604     2759.162     1948.423      876.420        0.502        0.279       57.191       27.800        0.236      337.019        8.711      871.750
12/25/2013  14:10:00       66.885       11.652       38.112       68.142       52.380       52.461     4643.391     2743.660     2752.163        0.810        0.507       67.892       51.862        0.584      336.726        8.221      871.748
12/25/2013  14:11:00       57.038      -42.157       24.223       47.747       68.378       48.287     2279.734     4675.492     2331.626        0.745        0.464       70.926       42.376        0.357      336.847        8.423      871.729
12/25/2013  14:12:00       53.781      -58.071       11.346       44.016       56.849       42.984     1937.444     3231.857     1847.600        0.670        0.351       79.149       44.921        0.322      336.709        8.193      871.710
12/25/2013  14:13:00       60.301      -89.178      -21.401       35.695       49.226       28.886     1274.162     2423.192      834.391        0.829        0.227      107.652       32.239        0.090      336.575        7.970      871.697
12/25/2013  14:14:00       14.811        0.743       23.809       25.607       40.027       28.787      655.732     1602.152      828.703        0.194        0.154       14.830       31.316        4.459      336.832        8.399      871.678
12/25/2013  14:15:00       24.058       66.284       82.144       43.700       30.867       29.226     1909.710      952.756      854.135        0.772        0.186       70.515       27.331        0.150      336.724        8.219      871.667
12/25/2013  14:16:00       62.191       29.834       47.950       46.837       35.590       31.168     2193.714     1266.651      971.461        0.574        0.222       68.976       24.228        0.123      336.672        8.131      871.650
12/25/2013  14:17:00       -3.869       15.823       34.864       15.094       19.900       13.834      227.842      396.006      191.366        0.115        0.041       16.289       12.256        0.566      336.966        8.621      871.620
12/25/2013  14:18:00       13.563       66.465       88.483       34.763       39.956       33.752     1208.489     1596.494     1139.186        0.819        0.197       67.835       26.092        0.148      336.933        8.566      871.601
12/25/2013  14:19:00       99.043       78.267       34.505       35.169       35.149       48.492     1236.830     1235.436     2351.477        1.097        0.241      126.235       38.055        0.091      336.553        7.933      871.607
12/25/2013  14:20:00       82.459       43.105       24.199       32.446       37.509       28.450     1052.737     1406.926      809.377        0.626        0.163       93.046       29.875        0.103      336.553        7.932      871.613
12/25/2013  14:21:00       69.494       34.711       13.944       31.367       30.835       26.808      983.914      950.825      718.642        0.444        0.133       77.681       18.815        0.059      336.749        8.261      871.619
12/25/2013  14:22:00       24.577       23.387       37.437       29.132       27.599       20.768      848.650      761.711      431.303        0.230        0.102       33.926       18.305        0.291      336.920        8.546      871.624
12/25/2013  14:23:00       24.489        9.261        8.023       32.748       24.377       25.206     1072.436      594.259      635.336        0.153        0.115       26.182       14.334        0.300      336.833        8.400      871.623
12/25/2013  14:24:00       30.182      -23.217        3.073       19.800       12.316       21.596      392.058      151.673      466.404        0.123        0.051       38.078       15.587        0.168      336.785        8.322      871.622
12/25/2013  14:25:00       73.184       61.439       23.141       39.412       29.542       25.759     1553.341      872.703      663.510        0.638        0.154       95.555       18.437        0.037      336.734        8.236      871.610
12/25/2013  14:26:00       70.391       63.096       10.661       47.294       32.647       30.109     2236.704     1065.834      906.534        0.663        0.210       94.531       19.167        0.041      336.629        8.060      871.615
12/25/2013  14:27:00       51.036       58.654        6.242       41.847       38.729       29.876     1751.208     1499.946      892.603        0.511        0.207       77.749       29.446        0.143      336.738        8.243      871.612
12/25/2013  14:28:00       85.185       49.008        8.910       38.706       28.215       28.896     1498.137      796.069      834.992        0.643        0.156       98.276       12.695        0.017      336.793        8.334      871.621
12/25/2013  14:29:00       30.764       57.156       60.659       47.115       42.016       42.272     2219.851     1765.384     1786.936        0.683        0.289       64.909       34.140        0.277      336.971        8.631      871.614
12/25/2013  14:30:00       43.796       72.266       72.556       59.172       50.497       37.805     3501.352     2549.937     1429.190        0.994        0.374       84.501       36.347        0.185      337.033        8.733      871.607
12/25/2013  14:31:00        1.218       29.479       67.432       62.595       41.768       28.949     3918.141     1744.554      838.060        0.596        0.325       29.504       27.397        0.862      337.158        8.943      871.597
12/25/2013  14:32:00       56.365       65.550       19.574       47.974       25.618       35.860     2301.467      656.275     1285.966        0.605        0.212       86.451       29.680        0.118      336.881        8.480      871.593
12/25/2013  14:33:00       15.190      -17.227       35.411       43.520       54.832       31.492     1893.975     3006.525      991.716        0.384        0.295       22.968       26.468        1.328      337.270        9.130      871.580
12/25/2013  14:34:00       92.036      -78.355       11.553       41.189       48.295       29.529     1696.517     2332.417      871.975        0.982        0.245      120.873       34.291        0.080      336.749        8.260      871.580
12/25/2013  14:35:00       46.190       21.774       40.636       38.948       27.436       23.714     1516.967      752.737      562.371        0.354        0.142       51.065       13.334        0.068      336.916        8.540      871.573
12/25/2013  14:36:00       68.357       40.217       23.874       33.106       22.704       23.783     1096.038      515.464      565.647        0.452        0.109       79.310       13.452        0.029      336.744        8.251      871.569
12/25/2013  14:37:00       62.235      -76.588      -10.277       56.023       62.950       31.875     3138.598     3962.714     1016.039        0.898        0.406       98.686       40.221        0.166      336.825        8.387      871.574
12/25/2013  14:38:00       64.382      -49.892      -13.249       39.200       45.414       30.238     1536.673     2062.476      914.342        0.566        0.226       81.451       34.711        0.182      336.861        8.446      871.591
12/25/2013  14:39:00        8.155      -45.565        5.616       23.176       38.420       27.310      537.108     1476.122      745.846        0.247        0.138       46.289       17.462        0.142      337.045        8.754      871.603
12/25/2013  14:40:00       74.811     -131.223      -23.316       47.604       41.096       24.676     2266.140     1688.867      608.900        1.396        0.228      151.051       25.262        0.028      337.005        8.685      871.596
12/25/2013  14:41:00       49.576       56.977       65.628       69.314       66.277       44.537     4804.411     4392.608     1983.504        1.059        0.559       75.526       47.087        0.389      337.029        8.729      871.611
12/25/2013  14:42:00       35.783       62.272       70.715       50.079       34.032       28.358     2507.873     1158.159      804.190        0.731        0.224       71.821       27.103        0.142      336.922        8.549      871.606
12/25/2013  14:43:00       42.010       76.199       63.058       49.468       56.400       54.069     2447.038     3180.988     2923.425        1.005        0.428       87.013       51.797        0.354      336.844        8.419      871.606
12/25/2013  14:44:00       76.907       85.562       20.259       33.497       35.280       36.137     1122.072     1244.680     1305.847        0.866        0.184      115.046       24.971        0.047      336.804        8.354      871.612
12/25/2013  14:45:00       58.123       59.074       25.511       41.208       31.694       30.654     1698.111     1004.540      939.656        0.558        0.182       82.874       12.122        0.021      336.899        8.510      871.620
12/25/2013  14:46:00       28.174       42.966       38.512       25.537       33.380       20.107      652.124     1114.207      404.295        0.315        0.109       51.379       16.451        0.103      337.018        8.711      871.631
12/25/2013  14:47:00       46.618       45.285       42.417       40.773       37.433       22.825     1662.403     1401.218      520.966        0.480        0.179       64.992       18.842        0.084      336.992        8.665      871.639
12/25/2013  14:48:00       90.631       65.794       39.360       47.320       33.832       28.655     2239.228     1144.621      821.108        0.915        0.210      111.994       21.534        0.037      336.896        8.504      871.654
12/25/2013  14:49:00       60.229       19.876       25.938       39.091       28.581       22.468     1528.114      816.876      504.817        0.377        0.142       63.424       12.869        0.041      336.979        8.643      871.667
12/25/2013  14:50:00       46.110       25.639       30.230       22.365       27.549       19.473      500.204      758.935      379.205        0.267        0.082       52.759       11.399        0.047      336.994        8.667      871.682
12/25/2013  14:51:00        7.368       43.039       64.269       25.490       45.848       27.908      649.722     2102.033      778.881        0.478        0.177       43.665       27.743        0.404      337.141        8.914      871.707
12/25/2013  14:52:00       32.676       18.259       48.640       37.845       41.986       30.291     1432.266     1762.854      917.524        0.394        0.206       37.431       26.997        0.520      336.990        8.663      871.724
12/25/2013  14:53:00       26.294       54.442       69.849       39.143       34.308       20.469     1532.202     1177.008      418.999        0.583        0.156       60.459       19.510        0.104      337.099        8.845      871.735
12/25/2013  14:54:00       79.160       23.669       14.121       36.546       32.332       34.398     1335.621     1045.381     1183.253        0.529        0.178       82.622       23.749        0.083      336.959        8.610      871.751
12/25/2013  14:55:00        9.678       38.957       32.596       30.981       31.115       30.302      959.836      968.148      918.221        0.276        0.142       40.141       27.011        0.453      337.121        8.883      871.752
12/25/2013  14:56:00       57.435       42.066       36.845       40.237       29.441       26.510     1618.979      866.798      702.780        0.481        0.159       71.192       19.360        0.074      337.001        8.681      871.748
12/25/2013  14:57:00       93.054       34.758        9.826       45.229       27.267       26.760     2045.706      743.514      716.116        0.673        0.175       99.334       21.751        0.048      336.913        8.534      871.735
12/25/2013  14:58:00       51.413       56.291       41.291       34.765       32.213       27.831     1208.618     1037.649      774.540        0.527        0.151       76.236       18.416        0.058      337.055        8.770      871.731
12/25/2013  14:59:00       42.409        3.333       47.328       44.211       40.820       34.865     1954.610     1666.264     1215.544        0.444        0.242       42.540       33.064        0.604      337.023        8.717      871.737
12/25/2013  15:00:00       25.761       24.701       47.086       34.298       23.179       18.087     1176.334      537.281      327.128        0.277        0.102       35.690       17.525        0.241      337.055        8.771      871.734
12/25/2013  15:01:00       57.553      -74.696        3.916       67.225       81.707       46.949     4519.265     6675.955     2204.225        1.115        0.670       94.297       62.524        0.440      337.051        8.764      871.743
12/25/2013  15:02:00       18.545      -17.851       37.180       39.703       68.136       40.174     1576.317     4642.555     1613.957        0.494        0.392       25.740       42.261        2.696      337.177        8.974      871.754
12/25/2013  15:03:00       21.466       53.687       64.421       48.427       45.203       41.590     2345.191     2043.289     1729.752        0.680        0.306       57.820       33.309        0.332      337.146        8.923      871.776
12/25/2013  15:04:00       54.432       63.991       33.351       38.172       33.875       44.709     1457.139     1147.512     1998.923        0.639        0.230       84.010       26.621        0.100      336.930        8.562      871.786
12/25/2013  15:05:00       20.403       22.088       -2.017       21.910       23.231       17.081      480.032      539.687      291.749        0.111        0.066       30.069       13.765        0.210      336.970        8.630      871.787
12/25/2013  15:06:00       11.121       27.416        1.490       13.884       19.226       14.213      192.759      369.654      202.001        0.082        0.038       29.585        8.109        0.075      337.063        8.784      871.796
12/25/2013  15:07:00        9.349       13.379       11.495       24.159       18.512       13.324      583.653      342.683      177.522        0.075        0.055       16.321        8.028        0.242      337.154        8.934      871.800
12/25/2013  15:08:00       16.827        0.227        8.682       16.960       26.571       21.696      287.657      706.032      470.718        0.091        0.073       16.829       15.619        0.861      337.224        9.053      871.807
12/25/2013  15:09:00        8.207       -5.761       13.211       10.953       25.781       19.383      119.977      664.644      375.694        0.072        0.058       10.028       16.112        2.582      337.333        9.236      871.808
12/25/2013  15:10:00       20.307      -30.355       20.882       30.855       48.352       28.036      952.059     2337.934      786.044        0.292        0.204       36.521       27.634        0.573      337.145        8.921      871.816
12/25/2013  15:11:00       16.165      -33.993      -10.263       11.934       17.743       14.879      142.415      314.816      221.382        0.110        0.034       37.641       10.314        0.075      336.993        8.667      871.832
12/25/2013  15:12:00       -6.351      -26.586      -12.126       16.466       15.412       10.202      271.130      237.527      104.090        0.075        0.031       27.334        7.970        0.085      337.038        8.743      871.836
12/25/2013  15:13:00        3.942        6.944        2.095       16.882       15.401       13.030      285.007      237.177      169.777        0.038        0.035        7.984       11.753        2.167      337.203        9.018      871.848
12/25/2013  15:14:00       26.496       29.409       15.993       22.803       19.512       19.240      519.976      380.701      370.172        0.155        0.064       39.585       16.968        0.184      337.090        8.830      871.858
12/25/2013  15:15:00       34.650       43.268       55.120       44.354       31.195       30.812     1967.260      973.121      949.390        0.500        0.194       55.432       28.720        0.268      337.159        8.944      871.860
12/25/2013  15:16:00        2.820       53.947       71.315       28.227       33.058       21.851      796.778     1092.840      477.447        0.519        0.118       54.020       17.394        0.104      337.200        9.013      871.866
12/25/2013  15:17:00       35.659       27.894       45.274       48.205       33.635       29.831     2323.682     1131.335      889.865        0.422        0.217       45.273       28.149        0.387      337.173        8.969      871.870
12/25/2013  15:18:00       85.037       52.445       10.175       36.824       28.701       24.021     1356.043      823.758      577.023        0.642        0.138       99.909       14.202        0.020      337.000        8.679      871.878
12/25/2013  15:19:00       91.975       57.804       27.199       46.634       37.755       23.289     2174.719     1425.439      542.370        0.834        0.207      108.631       17.890        0.027      337.026        8.719      871.887
12/25/2013  15:20:00       44.561        7.754       21.713       30.623       32.415       26.293      937.758     1050.716      691.324        0.260        0.134       45.231       22.162        0.240      336.970        8.628      871.904
12/25/2013  15:21:00       11.966      -29.852        7.008       20.362       31.393       25.901      414.627      985.500      670.868        0.158        0.104       32.161       22.327        0.482      337.092        8.832      871.897
12/25/2013  15:22:00       45.049       37.455        9.205       29.141       26.610       17.416      849.191      708.077      303.318        0.269        0.093       58.586       16.107        0.076      337.048        8.759      871.905
12/25/2013  15:23:00       31.380       30.066       13.352       17.409       12.925       14.584      303.065      167.057      212.679        0.137        0.034       43.459        5.846        0.018      337.002        8.680      871.908
12/25/2013  15:24:00       90.238       70.067        3.883       37.864       32.642       23.096     1433.718     1065.520      533.407        0.805        0.152      114.246       15.813        0.019      336.954        8.601      871.906
12/25/2013  15:25:00       63.060       53.254       15.094       33.375       24.740       21.200     1113.900      612.072      449.460        0.461        0.109       82.538       14.983        0.033      336.936        8.571      871.914
12/25/2013  15:26:00       68.990       50.994        3.409       34.695       24.489       23.885     1203.770      599.729      570.493        0.487        0.119       85.791       11.988        0.020      337.002        8.680      871.922
12/25/2013  15:27:00       93.418       50.048       13.706       21.542       22.365       18.529      464.058      500.209      343.309        0.636        0.065      105.980        6.468        0.004      337.018        8.708      871.927
12/25/2013  15:28:00       87.439       61.696        0.371       30.394       27.711       20.201      923.782      767.888      408.073        0.678        0.105      107.014       15.655        0.021      336.993        8.666      871.938
12/25/2013  15:29:00       42.273       45.172       38.637       37.852       36.036       43.899     1432.768     1298.624     1927.130        0.499        0.233       61.867       35.077        0.321      337.089        8.827      871.942
12/25/2013  15:30:00       65.404       83.535       60.820       34.988       25.049       22.646     1224.170      627.430      512.844        0.866        0.118      106.093       21.592        0.041      337.059        8.778      871.946
12/25/2013  15:31:00       29.110       88.962       90.703       36.685       38.363       22.544     1345.775     1471.746      508.217        1.016        0.166       93.604       22.348        0.057      337.155        8.938      871.944
12/25/2013  15:32:00       34.082       68.761       78.667       34.450       35.979       20.580     1186.806     1294.507      423.542        0.749        0.145       76.744       19.237        0.063      337.194        9.003      871.950
12/25/2013  15:33:00       58.316       81.072       60.039       49.325       28.484       40.346     2432.949      811.336     1627.808        0.922        0.244       99.867       37.969        0.145      337.080        8.813      871.945
12/25/2013  15:34:00       67.840       29.254       39.196       25.866       42.017       38.065      669.035     1765.446     1448.927        0.544        0.194       73.878       36.398        0.243      337.093        8.833      871.959
12/25/2013  15:35:00       62.173       61.566       12.471       29.795       22.289       30.175      887.716      496.797      910.539        0.505        0.115       87.497       16.290        0.035      337.091        8.829      871.961
12/25/2013  15:36:00       48.036       43.989       24.990       27.788       25.248       22.489      772.150      637.443      505.754        0.339        0.096       65.134       19.124        0.086      337.128        8.892      871.964
12/25/2013  15:37:00        6.424       33.335       45.100       28.991       23.507       24.549      840.474      552.586      602.647        0.259        0.100       33.949       19.250        0.322      337.212        9.034      871.962
12/25/2013  15:38:00       13.355       59.857       65.748       29.404       25.943       26.440      864.600      673.031      699.078        0.516        0.112       61.328       20.504        0.112      337.198        9.008      871.962
12/25/2013  15:39:00        6.501       62.272       82.650       32.063       37.938       20.833     1028.036     1439.279      434.029        0.683        0.145       62.611       20.663        0.109      337.188        8.993      871.955
12/25/2013  15:40:00       32.993       42.081       20.399       37.072       28.188       19.407     1374.326      794.576      376.618        0.291        0.127       53.472       20.253        0.143      337.170        8.962      871.951
12/25/2013  15:41:00       44.514       40.316       42.874       43.667       23.829       21.946     1906.833      567.807      481.612        0.420        0.148       60.057       17.828        0.088      337.180        8.979      871.939
12/25/2013  15:42:00       76.098       62.264       46.664       46.703       27.675       28.759     2181.143      765.890      827.078        0.781        0.189       98.325       22.951        0.054      337.095        8.838      871.940
12/25/2013  15:43:00       42.183       48.654       31.414       34.305       21.564       23.918     1176.847      464.999      572.089        0.367        0.111       64.394       20.140        0.098      337.109        8.860      871.936
12/25/2013  15:44:00      100.406       44.443       19.082       21.964       31.752       22.855      482.402     1008.219      522.360        0.722        0.101      109.803       23.248        0.045      337.053        8.766      871.934
12/25/2013  15:45:00       50.125       44.364       22.205       33.057       29.100       24.499     1092.760      846.831      600.205        0.376        0.127       66.938       13.590        0.041      337.116        8.872      871.945
12/25/2013  15:46:00       64.873       47.422        4.504       30.103       23.810       18.331      906.213      566.931      336.020        0.414        0.090       80.358       15.618        0.038      337.073        8.800      871.948
12/25/2013  15:47:00       41.236       22.065        5.805       26.420       18.511       16.188      698.034      342.647      262.048        0.176        0.065       46.768        4.448        0.009      337.063        8.783      871.952
12/25/2013  15:48:00       24.080       36.858       -3.673       29.781       23.214       13.994      886.905      538.877      195.826        0.179        0.081       44.026       11.654        0.070      337.032        8.731      871.953
12/25/2013  15:49:00       28.101       37.300        8.893       22.966       18.505       15.321      527.454      342.446      234.747        0.168        0.055       46.701        5.413        0.013      337.038        8.740      871.956
12/25/2013  15:50:00       12.586       65.381      -11.914       15.053       12.213        9.558      226.595      149.165       91.358        0.252        0.023       66.581        5.775        0.008      337.080        8.812      871.963
12/25/2013  15:51:00        6.386       70.884      -13.126       13.764       12.014        6.770      189.440      144.341       45.829        0.281        0.019       71.171        3.762        0.003      337.078        8.809      871.964
12/25/2013  15:52:00       22.349       23.766       -0.022        9.903       12.163        7.924       98.063      147.927       62.789        0.069        0.015       32.624        6.313        0.037      337.038        8.743      871.963
12/25/2013  15:53:00        3.586       22.881       -0.411        5.649        9.225        7.804       31.906       85.100       60.896        0.036        0.009       23.161        4.737        0.042      337.095        8.836      871.969
12/25/2013  15:54:00       22.063       23.406        0.029       14.522       16.320        9.768      210.880      266.332       95.414        0.080        0.029       32.165        8.190        0.065      337.087        8.822      871.963
12/25/2013  15:55:00       48.520       49.708       25.885       29.421       17.035       12.362      865.596      290.182      152.826        0.340        0.065       69.463        6.189        0.008      337.047        8.756      871.958
12/25/2013  15:56:00       26.063       20.427       29.651       24.675       17.194       21.037      608.863      295.622      442.575        0.166        0.067       33.114       16.159        0.238      337.061        8.780      871.950
12/25/2013  15:57:00       14.990       24.163       37.162       24.371       30.083       30.258      593.957      905.008      915.536        0.230        0.121       28.435       25.303        0.792      337.180        8.980      871.928
12/25/2013  15:58:00       25.605       51.818       58.003       33.446       25.971       20.018     1118.620      674.475      400.721        0.445        0.110       57.799       20.120        0.121      337.120        8.879      871.917
12/25/2013  15:59:00       30.054       26.425       38.216       20.633       26.325       21.247      425.735      693.030      451.449        0.232        0.079       40.019       14.501        0.131      337.131        8.898      871.904
12/25/2013  16:00:00       40.923       35.529       37.875       29.143       18.771       15.851      849.334      352.354      251.240        0.291        0.073       54.194        5.740        0.011      337.122        8.883      871.897
12/25/2013  16:01:00       25.828       51.156       57.547       26.026       25.115       24.459      677.365      630.744      598.236        0.425        0.095       57.306       14.022        0.060      337.141        8.915      871.882
12/25/2013  16:02:00       69.421       51.627       27.115       23.705       18.617       21.569      561.936      346.580      465.222        0.480        0.069       86.514       15.388        0.032      337.054        8.766      871.882
12/25/2013  16:03:00       51.655       32.674       10.478       17.624       12.579       11.523      310.605      158.240      132.771        0.222        0.030       61.121        9.513        0.024      337.006        8.685      871.878
12/25/2013  16:04:00       59.564       40.216       16.829       15.922       10.078       12.303      253.514      101.557      151.376        0.298        0.025       71.869        5.997        0.007      337.006        8.687      871.858
12/25/2013  16:05:00       50.606       33.376       17.456       11.830        9.633       11.495      139.947       92.789      132.126        0.217        0.018       60.621        5.988        0.010      336.985        8.654      871.846
12/25/2013  16:06:00       46.445       36.926       27.832       12.528        9.580       14.368      156.957       91.774      206.430        0.238        0.023       59.335        7.845        0.017      337.026        8.722      871.830
12/25/2013  16:07:00       19.195       25.703       25.082       24.367       21.280       15.586      593.729      452.855      242.910        0.147        0.064       32.079       11.423        0.127      337.036        8.739      871.821
12/25/2013  16:08:00       43.005       43.941       29.575       31.274       15.981       17.759      978.036      255.402      315.373        0.310        0.077       61.483       17.934        0.085      337.044        8.750      871.817
12/25/2013  16:09:00       46.288       36.117       21.460       22.633       20.198       17.046      512.238      407.957      290.563        0.256        0.061       58.712       13.697        0.054      337.015        8.702      871.816
12/25/2013  16:10:00       37.734       44.189       38.807       25.888       19.378       15.267      670.209      375.491      233.077        0.308        0.064       58.108       12.141        0.044      336.968        8.625      871.816
12/25/2013  16:11:00       28.636       36.401       40.661       19.072       18.315       13.565      363.760      335.434      184.010        0.234        0.044       46.314       12.145        0.069      337.012        8.699      871.815
12/25/2013  16:12:00       24.050       15.067       15.658       34.118       18.596       13.474     1164.034      345.818      181.544        0.137        0.085       28.380       17.394        0.376      337.124        8.886      871.811
12/25/2013  16:13:00       48.105       29.440       23.407       18.345       15.481       15.610      336.553      239.673      243.662        0.227        0.041       56.398        8.017        0.020      336.989        8.661      871.805
12/25/2013  16:14:00       25.553       19.214        5.674       17.410       15.671       11.064      303.094      245.574      122.408        0.086        0.034       31.971        7.788        0.059      336.967        8.622      871.805
12/25/2013  16:15:00       31.644       30.382        9.383       14.674        9.530       10.435      215.341       90.816      108.897        0.121        0.021       43.868        8.835        0.041      336.943        8.581      871.806
12/25/2013  16:16:00       73.638       19.128        0.745       29.925       24.767       19.179      895.486      613.425      367.847        0.383        0.094       76.082       13.586        0.032      336.912        8.530      871.807
12/25/2013  16:17:00       25.689        3.170        7.890       18.359       20.385       15.952      337.047      415.543      254.469        0.087        0.050       25.884        7.914        0.093      336.865        8.453      871.807
12/25/2013  16:18:00        9.852       12.005       12.769       18.116       19.718       13.495      328.203      388.810      182.120        0.065        0.045       15.530       12.444        0.642      336.859        8.444      871.805
12/25/2013  16:19:00       45.831       14.502        5.553       25.175       22.297       17.250      633.790      497.163      297.571        0.188        0.071       48.071       15.335        0.102      336.902        8.516      871.801
12/25/2013  16:20:00       35.881       30.502       23.964       21.566       15.818       14.894      465.085      250.212      221.836        0.186        0.047       47.093        8.999        0.037      336.815        8.372      871.799
12/25/2013  16:21:00       46.303       26.035       24.125       29.522       20.884       19.068      871.564      436.156      363.574        0.254        0.084       53.121       14.573        0.075      336.806        8.355      871.809
12/25/2013  16:22:00       60.038       37.697       22.213       30.302       17.853       20.251      918.200      318.715      410.113        0.358        0.082       70.892       10.144        0.020      336.812        8.365      871.805
12/25/2013  16:23:00       30.061       22.354       20.868       23.274       12.255       13.586      541.665      150.174      184.573        0.136        0.044       37.461       10.592        0.080      336.802        8.349      871.807
12/25/2013  16:24:00       44.689       21.856       13.833       25.247       20.895       16.680      637.418      436.606      278.228        0.201        0.068       49.748       12.969        0.068      336.769        8.292      871.808
12/25/2013  16:25:00       62.365       35.740        5.819       22.620       12.853       13.142      511.650      165.191      172.707        0.302        0.042       71.880        5.160        0.005      336.827        8.390      871.798
12/25/2013  16:26:00       59.705       40.706        8.882       17.959       14.350       15.995      322.541      205.930      255.855        0.304        0.039       72.261       11.983        0.028      336.811        8.364      871.802
12/25/2013  16:27:00       41.160       28.085       18.874       19.699       14.079       16.832      388.036      198.218      283.310        0.185        0.043       49.829        8.783        0.031      336.842        8.416      871.801
12/25/2013  16:28:00       47.850       36.012       30.280       22.997       15.993       14.508      528.848      255.766      210.485        0.275        0.050       59.888       10.521        0.031      336.822        8.382      871.791
12/25/2013  16:29:00       27.080       20.868       40.710       27.053       26.101       20.565      731.876      681.282      422.922        0.233        0.092       34.188       18.630        0.297      336.766        8.290      871.775
12/25/2013  16:30:00       15.344       33.496       37.187       23.855       20.053       20.992      569.081      402.116      440.656        0.208        0.071       36.843       19.914        0.292      336.842        8.414      871.753
12/25/2013  16:31:00        9.568       19.832       33.304       17.784       21.170       17.367      316.266      448.168      301.626        0.133        0.053       22.019       14.293        0.421      336.702        8.182      871.738
12/25/2013  16:32:00       21.920       23.772       37.395       29.323       21.590       16.125      859.867      466.120      260.031        0.201        0.079       32.336       12.421        0.148      336.721        8.213      871.730
12/25/2013  16:33:00       25.392      -22.051       20.343       32.197       42.772       25.836     1036.658     1829.476      667.497        0.254        0.177       33.630       24.793        0.544      336.839        8.410      871.724
12/25/2013  16:34:00       18.068       42.195       57.565       21.995       24.305       13.314      483.787      590.757      177.254        0.334        0.063       45.900       10.920        0.057      336.772        8.300      871.722
12/25/2013  16:35:00        1.260       27.116       53.548       13.750       24.735       12.928      189.066      611.833      167.134        0.229        0.048       27.146       14.451        0.283      336.830        8.395      871.727
12/25/2013  16:36:00       13.444       43.015       58.918       15.842       24.770       10.195      250.982      613.556      103.940        0.324        0.048       45.067       10.329        0.053      336.787        8.324      871.728
12/25/2013  16:37:00       35.349       25.788       24.985       27.626       21.447       16.415      763.222      459.956      269.463        0.202        0.075       43.756       13.145        0.090      336.800        8.346      871.721
12/25/2013  16:38:00       24.135       25.831       30.098       28.073       19.912       15.390      788.103      396.493      236.862        0.179        0.071       35.351       10.224        0.084      336.795        8.338      871.713
12/25/2013  16:39:00       -8.082       -7.231        5.251       24.931       17.059       20.695      621.566      290.997      428.285        0.074        0.067       10.844       18.698        2.973      336.690        8.163      871.720
12/25/2013  16:40:00      -60.733      -27.231        1.111       49.037       19.910       18.409     2404.669      396.397      338.894        0.379        0.157       66.558       20.401        0.094      336.542        7.915      871.718
12/25/2013  16:41:00      -89.605      -65.455        0.949       37.035       38.002       26.582     1371.617     1444.141      706.592        0.792        0.176      110.966       22.090        0.040      336.493        7.831      871.708
12/25/2013  16:42:00      -75.012     -110.230        3.864       36.504       54.028       22.537     1332.512     2919.018      507.915        1.128        0.238      133.332       24.041        0.033      336.421        7.710      871.710
12/25/2013  16:43:00     -116.836     -111.720       -6.090       69.866       37.494       28.799     4881.272     1405.815      829.398        1.664        0.356      161.653       35.774        0.049      336.386        7.651      871.713
12/25/2013  16:44:00     -110.759      -86.186      -12.569       30.901       25.194       15.935      954.846      634.725      253.930        1.085        0.092      140.341        8.848        0.004      336.359        7.611      871.718
12/25/2013  16:45:00      -74.345      -79.141       -4.375       39.328       30.745       21.580     1546.697      945.277      465.680        0.738        0.148      108.584       19.929        0.034      336.381        7.645      871.716
12/25/2013  16:46:00      -75.381     -112.185       -3.611       32.400       40.937       22.247     1049.771     1675.841      494.914        1.075        0.161      135.159       21.784        0.026      336.349        7.590      871.704
12/25/2013  16:47:00     -101.296      -73.945       -2.145       45.139       41.267       27.937     2037.515     1702.957      780.495        1.013        0.226      125.414       23.471        0.035      336.264        7.449      871.702
12/25/2013  16:48:00      -65.805      -82.176        2.318       42.331       36.024       25.259     1791.927     1297.753      638.042        0.741        0.186      105.277       21.951        0.043      336.237        7.403      871.683
12/25/2013  16:49:00      -86.034      -70.814       -5.533       60.302       33.641       28.715     3636.291     1131.709      824.554        0.902        0.280      111.430       22.520        0.041      336.195        7.332      871.672
12/25/2013  16:50:00      -81.528      -67.248        3.476       54.138       41.523       24.900     2930.971     1724.182      619.988        0.823        0.264      105.684       25.685        0.059      336.168        7.289      871.667
12/25/2013  16:51:00      -47.579      -61.425        2.379       48.639       58.077       31.530     2365.710     3372.957      994.142        0.639        0.337       77.697       34.321        0.195      336.161        7.277      871.662
12/25/2013  16:52:00      -58.805      -64.687        0.326       52.713       26.695       23.002     2778.647      712.645      529.114        0.583        0.201       87.421       17.310        0.039      336.157        7.270      871.658
12/25/2013  16:53:00      -69.841      -57.316       -0.744       48.332       34.419       26.231     2336.011     1184.700      688.053        0.619        0.210       90.348       16.035        0.031      336.111        7.194      871.656
12/25/2013  16:54:00      -49.869      -46.309       14.034       52.601       28.564       29.852     2766.869      815.917      891.164        0.465        0.224       68.054       33.286        0.239      336.006        7.018      871.657
12/25/2013  16:55:00      -79.673      -65.284        7.370       49.068       35.618       24.784     2407.680     1268.646      614.254        0.748        0.215      103.004       25.875        0.063      335.993        6.997      871.653
12/25/2013  16:56:00      -68.167      -86.554       -0.154       49.311       40.428       26.126     2431.598     1634.440      682.573        0.844        0.237      110.174       22.142        0.040      335.947        6.918      871.644
12/25/2013  16:57:00      -63.342      -74.555        1.721       37.963       27.336       17.315     1441.214      747.248      299.805        0.603        0.124       97.830       19.856        0.041      335.973        6.963      871.644
12/25/2013  16:58:00      -94.482      -55.729       -9.712       36.771       21.825       13.952     1352.115      476.312      194.646        0.707        0.101      109.694       11.403        0.011      335.952        6.928      871.643
12/25/2013  16:59:00      -68.464      -52.075       -5.755       29.969       21.949       19.811      898.128      481.770      392.477        0.460        0.089       86.018       12.540        0.021      335.916        6.869      871.641
12/25/2013  17:00:00      -80.583      -70.291      -12.661       17.940       17.207       13.722      321.848      296.087      188.305        0.620        0.040      106.932        5.653        0.003      335.893        6.829      871.637
12/25/2013  17:01:00      -74.117      -95.156       -8.960       26.681       27.665       17.429      711.894      765.339      303.765        0.820        0.089      120.615       13.375        0.012      335.931        6.893      871.643
12/25/2013  17:02:00      -45.618      -64.155       -9.977       36.370       32.689       19.012     1322.801     1068.549      361.457        0.452        0.138       78.720       20.660        0.069      335.913        6.865      871.643
12/25/2013  17:03:00      -40.950      -26.118        4.707       37.591       23.500       19.906     1413.061      552.244      396.268        0.237        0.118       48.570       17.197        0.125      335.792        6.663      871.643
12/25/2013  17:04:00       -6.153      -12.304        7.029       23.322       19.824       13.034      543.929      392.981      169.898        0.067        0.055       13.756       13.152        0.914      335.847        6.754      871.646
12/25/2013  17:05:00       -3.855       14.825        6.415       14.306       11.124       12.720      204.662      123.740      161.791        0.038        0.025       15.318        8.389        0.300      335.808        6.689      871.661
12/25/2013  17:06:00      -20.050      -27.480        4.195       25.963       31.135       21.510      674.076      969.407      462.673        0.164        0.105       34.017        9.605        0.080      335.903        6.846      871.665
12/25/2013  17:07:00      -41.116      -25.704       -5.416       28.482       20.338       14.350      811.235      413.633      205.913        0.191        0.072       48.489        8.747        0.033      335.900        6.842      871.670
12/25/2013  17:08:00      -38.129      -25.820        1.180       52.228       24.512       18.396     2727.765      600.827      338.427        0.289        0.183       46.048       25.461        0.306      335.932        6.895      871.669
12/25/2013  17:09:00      -18.008      -14.803        6.734       27.372       21.813       18.748      749.250      475.815      351.474        0.108        0.079       23.311       13.805        0.351      335.776        6.636      871.671
12/25/2013  17:10:00      -43.215      -56.822       -0.200       42.633       49.710       16.524     1817.570     2471.039      273.044        0.483        0.228       71.388       23.976        0.113      335.825        6.716      871.681
12/25/2013  17:11:00      -48.786      -81.118        5.470       31.347       42.598       20.704      982.658     1814.611      428.662        0.611        0.161       94.659       23.138        0.060      335.871        6.792      871.693
12/25/2013  17:12:00      -32.658      -64.744        1.823       30.325       27.580       18.603      919.610      760.633      346.059        0.364        0.101       72.515       13.225        0.033      335.883        6.815      871.698
12/25/2013  17:13:00      -51.789      -42.225        1.496       28.639       24.540       15.452      820.187      602.220      238.764        0.306        0.083       66.821       12.731        0.036      335.853        6.764      871.704
12/25/2013  17:14:00      -74.034      -44.538       -0.200       23.493       22.555       15.520      551.944      508.747      240.882        0.438        0.065       86.398       13.722        0.025      335.788        6.657      871.706
12/25/2013  17:15:00      -64.297      -26.597       -6.450       16.029       19.397       10.957      256.924      376.259      120.060        0.282        0.038       69.581        5.543        0.006      335.687        6.487      871.712
12/25/2013  17:16:00      -32.311      -18.789        0.345       19.527       16.412        9.962      381.321      269.358       99.245        0.107        0.037       37.377        9.090        0.059      335.574        6.299      871.718
12/25/2013  17:17:00      -42.248        4.440       -2.998       13.930        9.958       12.645      194.059       99.162      159.908        0.113        0.023       42.481        3.193        0.006      335.634        6.398      871.714
12/25/2013  17:18:00      -10.958       -3.139       -2.537       14.967       13.666        7.582      224.008      186.765       57.484        0.030        0.023       11.399        6.705        0.346      335.537        6.237      871.718
12/25/2013  17:19:00       -3.190       21.486       -5.597        8.975        8.262        7.237       80.550       68.255       52.381        0.035        0.010       21.721        5.581        0.066      335.643        6.414      871.725
12/25/2013  17:20:00       -5.320       30.858       -0.704       12.973       12.937       13.586      168.311      167.366      184.588        0.075        0.026       31.313       13.487        0.186      335.864        6.782      871.720
12/25/2013  17:21:00      -27.382        8.410      -12.855       10.485       29.280        6.950      109.937      857.324       48.307        0.100        0.051       28.645        9.543        0.111      335.937        6.903      871.722
12/25/2013  17:22:00      -37.701      -25.097       -8.474       10.956       10.857        6.942      120.036      117.874       48.192        0.120        0.014       45.290        5.703        0.016      336.028        7.054      871.713
12/25/2013  17:23:00      -42.967      -22.170       -8.570        9.857        8.399        7.675       97.164       70.550       58.913        0.132        0.011       48.349        4.847        0.010      335.965        6.950      871.722
12/25/2013  17:24:00      -25.164      -15.669        2.287       22.921       10.422        7.899      525.366      108.620       62.397        0.079        0.035       29.644       10.276        0.120      335.839        6.739      871.735
12/25/2013  17:25:00       11.055       23.459        2.887       18.436       11.564        6.350      339.869      133.736       40.321        0.060        0.026       25.934        6.101        0.055      335.496        6.168      871.746
12/25/2013  17:26:00       -7.361        4.405       -3.724        7.193        7.050        5.818       51.744       49.706       33.852        0.011        0.007        8.578        4.569        0.284      335.344        5.914      871.765
12/25/2013  17:27:00      -15.817        5.129       -0.473       13.026        5.799        5.530      169.677       33.629       30.584        0.026        0.012       16.628        2.994        0.032      335.417        6.036      871.766
12/25/2013  17:28:00      -12.260       24.425       -1.055       13.212       15.974        7.444      174.555      255.165       55.408        0.062        0.024       27.330        7.800        0.081      335.839        6.740      871.776
12/25/2013  17:29:00      -19.808       18.508        9.858       18.863        9.475        8.070      355.797       89.766       65.121        0.067        0.026       27.109        1.020        0.001      335.731        6.560      871.774
12/25/2013  17:30:00      -57.068       -6.285       -7.726        9.111       10.568        7.456       83.010      111.691       55.589        0.180        0.013       57.413        5.759        0.010      335.166        5.619      871.774
12/25/2013  17:31:00      -55.736      -21.793       -8.350        8.888        7.218        7.763       78.996       52.094       60.261        0.192        0.010       59.845        4.684        0.006      334.969        5.292      871.786
12/25/2013  17:32:00      -15.479        8.315       -6.666       18.383       17.489        5.901      337.941      305.862       34.825        0.052        0.034       17.571        5.312        0.091      335.569        6.289      871.796
12/25/2013  17:33:00        6.110       19.903        0.759       11.368       11.077        6.240      129.236      122.696       38.939        0.036        0.015       20.820        5.887        0.080      335.714        6.532      871.802
12/25/2013  17:34:00       -0.779        8.904        2.340        5.797       10.602        5.152       33.603      112.411       26.543        0.013        0.009        8.938        4.217        0.223      335.568        6.290      871.809
12/25/2013  17:35:00       11.591        5.465       -0.550       10.897        9.928       11.012      118.741       98.571      121.268        0.025        0.017       12.815        5.928        0.214      335.656        6.433      871.816
12/25/2013  17:36:00        1.675        2.687       -2.512       11.381       10.792        5.119      129.536      116.458       26.202        0.014        0.014        3.166        4.165        1.731      335.665        6.450      871.835
12/25/2013  17:37:00       -2.651        2.872       -3.624        8.279       17.022        5.762       68.536      289.760       33.203        0.021        0.020        3.908        4.298        1.209      335.641        6.410      871.839
12/25/2013  17:38:00       -5.564        8.488        6.152       14.284       16.560        8.211      204.046      274.241       67.415        0.034        0.027       10.149        7.700        0.576      335.502        6.179      871.857
12/25/2013  17:39:00        1.143       22.943       -0.211        7.285        9.777        4.210       53.068       95.594       17.726        0.035        0.008       22.972        1.467        0.004      335.653        6.430      871.867
12/25/2013  17:40:00      -12.655       35.626        0.962       12.809       16.058        8.165      164.067      257.858       66.667        0.096        0.024       37.807        9.150        0.059      335.608        6.357      871.875
12/25/2013  17:41:00        1.173       55.272       -6.748       17.059       16.610        9.346      291.025      275.905       87.350        0.188        0.033       55.284        9.488        0.029      335.729        6.558      871.892
12/25/2013  17:42:00        2.411       55.052       -4.140       21.121       16.114        7.439      446.076      259.669       55.333        0.191        0.038       55.105        6.701        0.015      335.551        6.261      871.901
12/25/2013  17:43:00       14.339       64.953       -3.167       21.281       25.828       15.577      452.885      667.078      242.631        0.290        0.068       66.517       14.286        0.046      335.417        6.038      871.923
12/25/2013  17:44:00        0.115       97.077       -4.761       20.940       28.771       13.952      438.496      827.795      194.669        0.545        0.073       97.077       13.905        0.021      335.485        6.150      871.937
12/25/2013  17:45:00        1.289      106.367       -8.565       13.698       27.139       12.512      187.638      736.504      156.555        0.623        0.054      106.374       16.499        0.024      335.488        6.157      871.942
12/25/2013  17:46:00       -4.756      125.723      -12.693        9.950       17.414        6.754       99.002      303.236       45.615        0.822        0.022      125.813        4.917        0.002      335.515        6.200      871.943
12/25/2013  17:47:00       -8.757      101.238      -13.286       12.610       13.015        7.417      159.001      169.401       55.017        0.544        0.019      101.616        5.912        0.003      335.510        6.192      871.947
12/25/2013  17:48:00        7.051       77.936       -6.602       10.523       10.842        6.590      110.726      117.539       43.425        0.322        0.014       78.254        4.994        0.004      335.515        6.200      871.955
12/25/2013  17:49:00      -33.912        6.419       -0.127       19.809       20.121       13.060      392.382      404.867      170.558        0.108        0.048       34.514        9.737        0.080      334.742        4.915      871.964
12/25/2013  17:50:00      -12.563        7.348      -13.746       31.176       24.740       14.777      971.954      612.044      218.363        0.110        0.090       14.554       11.887        0.667      334.897        5.172      871.974
12/25/2013  17:51:00      -46.947       -6.476       -8.267       23.438       13.927       11.423      549.354      193.954      130.484        0.159        0.044       47.392        7.619        0.026      334.595        4.669      871.982
12/25/2013  17:52:00      -44.166       -3.902      -13.162       27.630       11.123       10.511      763.431      123.710      110.474        0.157        0.050       44.338       13.230        0.089      334.704        4.852      872.003
12/25/2013  17:53:00      -40.063      -21.801       -7.991       13.540        9.757       10.791      183.328       95.197      116.438        0.127        0.020       45.610        7.676        0.028      334.715        4.871      872.022
12/25/2013  17:54:00      -35.553      -20.242        3.202       17.800       10.132       17.264      316.836      102.651      298.059        0.120        0.036       40.911       10.399        0.065      334.707        4.856      872.056
12/25/2013  17:55:00      -35.522       -2.200        3.522       17.914       14.614       15.688      320.926      213.566      246.116        0.103        0.039       35.590        6.130        0.030      334.677        4.807      872.072
12/25/2013  17:56:00      -57.499      -12.909      -10.904       14.593        9.589        7.333      212.954       91.949       53.778        0.198        0.018       58.930        6.016        0.010      334.434        4.404      872.101
12/25/2013  17:57:00      -69.839      -15.148      -11.296        8.961        8.233        8.412       80.300       67.783       70.763        0.273        0.011       71.463        4.783        0.004      334.330        4.232      872.108
12/25/2013  17:58:00      -45.666      -22.188      -14.145        9.991        6.434        6.204       99.827       41.398       38.484        0.148        0.009       50.771        3.206        0.004      334.310        4.199      872.128
12/25/2013  17:59:00      -53.124       -4.354       -8.253       25.742       14.898       12.801      662.673      221.945      163.869        0.198        0.052       53.302        7.958        0.022      334.461        4.449      872.145
12/25/2013  18:00:00      -40.794        6.724       -8.516       16.731       11.533       10.779      279.926      133.018      116.177        0.116        0.026       41.344        8.088        0.038      334.363        4.286      872.162
12/25/2013  18:01:00       12.700       70.224      -15.805       21.950       28.198       11.191      481.783      795.136      125.238        0.337        0.070       71.363       11.391        0.025      335.043        5.416      872.163
12/25/2013  18:02:00       18.866       26.863        3.720       15.810       16.583       12.558      249.965      274.996      157.705        0.089        0.034       32.826        8.757        0.071      334.885        5.154      872.161
12/25/2013  18:03:00       20.330       36.029        0.084       11.437       19.647       10.153      130.801      386.014      103.085        0.117        0.031       41.369        9.850        0.057      334.909        5.193      872.154
12/25/2013  18:04:00       17.785       24.471        1.636       14.756       13.598       12.377      217.747      184.911      153.196        0.074        0.028       30.251        7.520        0.062      334.883        5.149      872.156
12/25/2013  18:05:00       17.020       47.571        0.206       18.909       30.141       11.815      357.536      908.475      139.594        0.198        0.070       50.524       13.145        0.068      334.939        5.243      872.148
12/25/2013  18:06:00       19.665       81.200      -10.052       20.051       20.045        9.678      402.051      401.789       93.655        0.399        0.045       83.548        9.457        0.013      335.044        5.417      872.162
12/25/2013  18:07:00       12.604       89.554       -9.549       20.143       15.447       12.361      405.742      238.596      152.800        0.453        0.040       90.437        9.826        0.012      335.061        5.445      872.163
12/25/2013  18:08:00       10.540      111.741      -16.938       19.981       22.686       11.099      399.238      514.676      123.180        0.696        0.052      112.237       11.767        0.011      335.092        5.498      872.185
12/25/2013  18:09:00        6.146      102.329      -15.308       17.671       18.074        9.524      312.252      326.672       90.712        0.574        0.036      102.513        8.342        0.007      335.070        5.461      872.189
12/25/2013  18:10:00       14.294      106.341      -15.549       18.303       15.441        8.018      334.994      238.422       64.291        0.620        0.032      107.298        7.682        0.005      335.007        5.355      872.200
12/25/2013  18:11:00       -2.449      117.701      -17.206       15.556       18.314        8.657      241.987      335.421       74.949        0.740        0.033      117.726        6.142        0.003      335.022        5.382      872.211
12/25/2013  18:12:00      -18.805      113.652      -15.169       23.285       19.869       11.250      542.183      394.767      126.558        0.728        0.053      115.197        9.564        0.007      334.978        5.308      872.221
12/25/2013  18:13:00      -10.415      103.953      -12.127       23.556       18.973       12.305      554.894      359.973      151.401        0.606        0.053      104.473        3.600        0.001      334.926        5.220      872.226
12/25/2013  18:14:00      -10.374       92.516       -8.856       26.867       27.035       12.526      721.861      730.913      156.908        0.518        0.080       93.096        9.487        0.010      334.876        5.138      872.244
12/25/2013  18:15:00      -10.373       99.016      -14.369       16.659       18.828       12.168      277.531      354.510      148.068        0.545        0.039       99.558        7.540        0.006      334.911        5.196      872.240
12/25/2013  18:16:00      -15.996       98.720      -14.310       23.215       15.353       12.569      538.957      235.715      157.978        0.557        0.047      100.008        7.266        0.005      334.896        5.171      872.255
12/25/2013  18:17:00      -12.995       44.867       -7.114       22.788       23.285       12.861      519.291      542.197      165.402        0.173        0.061       46.711        7.263        0.024      334.715        4.871      872.251
12/25/2013  18:18:00      -32.776       -3.547       -8.090       13.748       11.410        8.518      188.997      130.190       72.563        0.077        0.020       32.967        3.893        0.014      334.401        4.349      872.250
12/25/2013  18:19:00      -12.745       32.501       -9.546       30.092       27.890       19.842      905.518      777.849      393.701        0.169        0.104       34.910       13.202        0.143      334.621        4.714      872.241
12/25/2013  18:20:00       -9.518       13.536       -1.333       23.059       20.980       13.963      531.730      440.169      194.972        0.072        0.058       16.547       13.951        0.711      334.548        4.592      872.240
12/25/2013  18:21:00      -22.436        7.173       -4.896       18.403       17.853       10.156      338.676      318.725      103.135        0.067        0.038       23.555        6.937        0.087      334.525        4.556      872.237
12/25/2013  18:22:00      -16.921       -7.149       -5.708       15.086       14.742        8.100      227.575      217.334       65.607        0.044        0.026       18.369        2.109        0.013      334.359        4.279      872.251
12/25/2013  18:23:00        6.666       42.051       -4.710       17.735       20.230       13.134      314.531      409.245      172.501        0.137        0.045       42.576        9.491        0.050      334.739        4.911      872.257
12/25/2013  18:24:00       20.864       78.218       -7.744       12.931       11.944        9.436      167.208      142.653       89.046        0.351        0.020       80.953        5.445        0.005      334.799        5.010      872.270
12/25/2013  18:25:00       22.901       71.896       -4.271       12.142       18.206       10.769      147.429      331.472      115.972        0.315        0.030       75.456        9.271        0.015      334.678        4.808      872.277
12/25/2013  18:26:00       18.259       58.867       -5.026       11.431       15.037        6.641      130.670      226.115       44.101        0.211        0.020       61.634        3.595        0.003      334.693        4.834      872.270
12/25/2013  18:27:00       16.115       42.289       -3.414       13.298       25.237        8.696      176.848      636.915       75.617        0.147        0.044       45.256       12.153        0.072      334.685        4.821      872.280
12/25/2013  18:28:00       11.890       49.410       -2.577        9.552        9.736        5.872       91.234       94.780       34.483        0.140        0.011       50.821        4.577        0.008      334.764        4.952      872.276
12/25/2013  18:29:00        5.621       41.147       -6.556       11.153       14.511        5.428      124.393      210.571       29.464        0.107        0.018       41.529        4.641        0.012      334.759        4.944      872.284
12/25/2013  18:30:00        5.123       24.932       -5.242       13.672       12.484        8.877      186.933      155.848       78.804        0.055        0.021       25.453        5.766        0.051      334.784        4.984      872.280
12/25/2013  18:31:00        0.062       11.591       -1.539       17.590       16.287        9.454      309.417      265.282       89.369        0.040        0.033       11.591        7.686        0.440      334.684        4.820      872.279
12/25/2013  18:32:00      -61.062       -9.542      -11.870        7.051        7.776        7.189       49.710       60.468       51.681        0.206        0.008       61.803        4.752        0.006      333.991        3.671      872.270
12/25/2013  18:33:00      -63.523        5.337       -8.106       11.225       12.564        7.402      125.991      157.847       54.793        0.223        0.017       63.747        4.597        0.005      334.007        3.696      872.257
12/25/2013  18:34:00      -82.548        2.088      -11.387       13.568       10.812       10.797      184.089      116.892      116.585        0.368        0.021       82.574        6.749        0.007      333.865        3.463      872.259
12/25/2013  18:35:00      -59.522      -14.701      -11.194       15.768       13.554        8.388      248.625      183.718       70.359        0.219        0.025       61.311        4.371        0.005      333.924        3.560      872.254
12/25/2013  18:36:00      -20.150      -11.872       -1.320       12.002       14.567        7.474      144.052      212.188       55.864        0.048        0.021       23.388        8.178        0.122      334.144        3.924      872.254
12/25/2013  18:37:00       12.453       18.388       -3.001       12.434       14.982        6.709      154.598      224.472       45.016        0.046        0.021       22.208        4.885        0.048      334.600        4.681      872.248
12/25/2013  18:38:00       11.370       28.477        1.060        8.113       19.733        6.079       65.826      389.392       36.952        0.072        0.025       30.663        7.417        0.059      334.541        4.582      872.235
12/25/2013  18:39:00       41.660       32.899       -2.556       18.919       15.369       14.012      357.938      236.203      196.348        0.181        0.040       53.084        9.062        0.029      334.663        4.784      872.243
12/25/2013  18:40:00       48.194       25.781        3.998       18.158       16.317       13.340      329.707      266.256      177.957        0.189        0.039       54.656        8.458        0.024      334.643        4.751      872.238
12/25/2013  18:41:00       29.600       28.882        1.447       17.044       16.040       13.360      290.503      257.274      178.494        0.122        0.036       41.356        9.488        0.053      334.582        4.651      872.227
12/25/2013  18:42:00       28.570       27.583       -5.386       14.668       12.653       12.465      215.154      160.111      155.381        0.107        0.027       39.713        8.835        0.049      334.605        4.687      872.222
12/25/2013  18:43:00       18.371       30.042       -2.088       12.011       16.660        9.731      144.274      277.567       94.695        0.088        0.026       35.214        9.161        0.068      334.571        4.633      872.206
12/25/2013  18:44:00       18.639       25.236       -2.268       15.297       19.804        9.129      233.995      392.206       83.340        0.085        0.035       31.373       10.605        0.114      334.546        4.590      872.200
12/25/2013  18:45:00       25.951       26.099       -0.893       22.627       14.619       12.642      511.993      213.717      159.818        0.112        0.044       36.805       10.416        0.080      334.560        4.614      872.198
12/25/2013  18:46:00       19.465       46.115       -6.606       14.676       19.024       10.742      215.391      361.914      115.381        0.162        0.035       50.055        9.936        0.039      334.510        4.530      872.195
12/25/2013  18:47:00       27.699       39.814        0.138       14.768       22.112       16.537      218.085      488.943      273.464        0.167        0.049       48.502       15.671        0.104      334.470        4.464      872.187
12/25/2013  18:48:00       25.326       73.566       -9.524       21.561       18.601       11.205      464.898      346.005      125.550        0.354        0.047       77.803       10.271        0.017      334.514        4.535      872.187
12/25/2013  18:49:00       16.900       98.967      -14.459       13.681       18.114        9.335      187.175      328.105       87.149        0.545        0.030      100.399        7.796        0.006      334.537        4.573      872.193
12/25/2013  18:50:00       17.848      130.389      -25.056       24.879       21.046       12.193      618.989      442.939      148.669        0.958        0.061      131.605       12.731        0.009      334.569        4.628      872.213
12/25/2013  18:51:00        9.664      145.733      -24.198       19.469       28.388       10.542      379.060      805.866      111.133        1.161        0.065      146.053        7.879        0.003      334.564        4.619      872.225
12/25/2013  18:52:00       23.388      154.465      -24.111       32.512       35.360       17.536     1057.032     1250.298      307.502        1.380        0.131      156.225       14.405        0.009      334.572        4.633      872.228
12/25/2013  18:53:00      -15.814      154.915      -21.390       20.334       23.281       11.966      413.462      542.005      143.193        1.290        0.055      155.720        7.648        0.002      334.538        4.576      872.250
12/25/2013  18:54:00       -5.058      166.530      -22.421       27.878       27.606       13.569      777.165      762.081      184.119        1.499        0.086      166.606       14.794        0.008      334.528        4.559      872.269
12/25/2013  18:55:00        4.509      164.351      -27.182       23.013       27.369       12.947      529.599      749.067      167.629        1.461        0.072      164.413       12.587        0.006      334.463        4.451      872.279
12/25/2013  18:56:00       -8.473      180.402      -24.022       20.408       21.099       12.613      416.470      445.152      159.080        1.711        0.051      180.601        7.560        0.002      334.382        4.317      872.303
12/25/2013  18:57:00       16.561      190.339      -30.449       24.982       25.443       12.696      624.108      647.327      161.187        1.943        0.072      191.058       11.655        0.004      334.476        4.474      872.313
12/25/2013  18:58:00        7.589      177.677      -25.518       20.850       33.917       16.320      434.709     1150.341      266.355        1.706        0.093      177.839       17.837        0.010      334.424        4.387      872.306
12/25/2013  18:59:00       -0.395      165.339      -22.507       21.674       25.791       13.938      469.746      665.180      194.256        1.459        0.066      165.339        9.730        0.003      334.364        4.288      872.303
12/25/2013  19:00:00        4.196      166.414      -24.611       31.359       23.533       17.445      983.383      553.825      304.314        1.508        0.092      166.467       13.978        0.007      334.421        4.382      872.305
12/25/2013  19:01:00       10.583      155.578      -21.572       28.002       24.254       15.583      784.098      588.237      242.815        1.320        0.081      155.938       15.038        0.009      334.426        4.390      872.309
12/25/2013  19:02:00        1.758      140.730      -20.126       15.322       23.728        9.896      234.749      563.012       97.935        1.055        0.045      140.741        7.462        0.003      334.365        4.290      872.310
12/25/2013  19:03:00        7.762      151.210      -20.781       28.299       24.064       12.178      800.842      579.085      148.304        1.244        0.076      151.409        6.006        0.002      334.463        4.452      872.309
12/25/2013  19:04:00       27.143      152.696      -19.416       31.280       34.619       18.319      978.443     1198.478      335.585        1.347        0.126      155.090       17.379        0.013      334.533        4.567      872.303
12/25/2013  19:05:00       50.500       59.950        4.171       48.487       29.642       28.513     2351.025      878.677      813.012        0.510        0.202       78.385       19.785        0.064      334.376        4.309      872.306
12/25/2013  19:06:00       11.265       63.049       -5.398       18.890       20.690       14.207      356.842      428.063      201.834        0.256        0.049       64.047       11.936        0.035      334.345        4.259      872.304
12/25/2013  19:07:00       18.829       64.960       -9.195       20.580       27.423       15.281      423.554      752.024      233.512        0.303        0.070       67.634       11.477        0.029      334.343        4.252      872.295
12/25/2013  19:08:00       14.641       44.616        1.230       16.126       28.912       16.207      260.039      835.876      262.683        0.178        0.068       46.957       14.058        0.090      334.295        4.173      872.296
12/25/2013  19:09:00       22.780       57.497       -3.764       18.440       27.338       13.178      340.018      747.388      173.670        0.255        0.063       61.845        9.256        0.022      334.325        4.224      872.290
12/25/2013  19:10:00       21.013       35.842       -3.349       15.883       16.327        9.198      252.277      266.557       84.600        0.117        0.030       41.547        7.883        0.036      334.314        4.206      872.284
12/25/2013  19:11:00       13.123       24.544       -5.615       14.663       16.653       10.105      215.008      277.332      102.110        0.070        0.030       27.832       10.082        0.131      334.282        4.152      872.291
12/25/2013  19:12:00       10.398        4.546        5.245        9.847       20.351        7.906       96.956      414.145       62.504        0.036        0.029       11.349        3.119        0.076      334.278        4.146      872.284
12/25/2013  19:13:00        5.018       22.940       -3.663       11.394       18.475        8.189      129.825      341.310       67.062        0.055        0.027       23.483        9.681        0.170      334.309        4.196      872.292
12/25/2013  19:14:00        7.417       15.377       -3.612       10.787       27.882        8.154      116.354      777.421       66.491        0.063        0.048       17.072        9.745        0.326      334.336        4.243      872.308
12/25/2013  19:15:00        9.003       80.012       -8.429       18.207       19.644        9.748      331.479      385.900       95.024        0.368        0.041       80.517        9.935        0.015      334.337        4.244      872.309
12/25/2013  19:16:00       11.488       81.667      -13.720       11.684        9.362        6.159      136.524       87.646       37.928        0.363        0.013       82.471        2.740        0.001      334.364        4.288      872.312
12/25/2013  19:17:00       -1.778       85.881      -10.532       22.048       37.575       16.007      486.115     1411.892      256.232        0.482        0.108       85.899       20.384        0.056      334.432        4.401      872.318
12/25/2013  19:18:00       -2.587       75.856       -3.521       26.130       24.355       18.231      682.771      593.148      332.369        0.369        0.080       75.900       15.861        0.044      334.426        4.391      872.315
12/25/2013  19:19:00       10.025      107.595      -12.081       23.461       30.260       14.044      550.429      915.670      197.237        0.674        0.083      108.061       15.779        0.021      334.452        4.433      872.314
12/25/2013  19:20:00       11.916      120.685      -17.830       20.885       26.033       13.108      436.174      677.714      171.816        0.815        0.064      121.272       11.834        0.010      334.327        4.227      872.310
12/25/2013  19:21:00       15.244      112.359      -11.087       25.131       33.616       18.378      631.587     1130.059      337.742        0.754        0.105      113.389       15.183        0.018      334.204        4.022      872.309
12/25/2013  19:22:00       25.378      121.674      -19.168       22.642       34.516       16.973      512.651     1191.359      288.087        0.890        0.100      124.293       12.825        0.011      334.239        4.081      872.303
12/25/2013  19:23:00        6.483      116.768      -15.914       21.897       22.650       12.570      479.469      513.027      158.005        0.754        0.058      116.948       12.226        0.011      334.192        4.000      872.314
12/25/2013  19:24:00      -19.544       93.603      -11.969       31.365       40.831       19.291      983.762     1667.180      372.128        0.615        0.151       95.621        9.726        0.010      334.295        4.174      872.310
12/25/2013  19:25:00      -12.238       79.297       -8.412       29.555       53.374       24.292      873.472     2848.809      590.117        0.541        0.216       80.236       25.797        0.103      334.178        3.979      872.312
12/25/2013  19:26:00      -12.765       72.847       -5.161       19.329       33.289       15.470      373.623     1108.164      239.324        0.361        0.086       73.957       15.684        0.045      334.169        3.964      872.317
12/25/2013  19:27:00      -32.856       38.412      -11.009       25.993       30.738       16.236      675.646      944.814      263.612        0.228        0.094       50.547       12.966        0.066      333.902        3.522      872.325
12/25/2013  19:28:00      -37.854       46.393       -6.584       21.239       41.594       13.629      451.098     1730.043      185.754        0.300        0.118       59.877        8.987        0.023      334.020        3.718      872.320
12/25/2013  19:29:00      -37.160      -15.715       -5.767       11.113        9.574       10.737      123.488       91.668      115.292        0.100        0.017       40.346        6.317        0.025      333.640        3.087      872.322
12/25/2013  19:30:00      -62.087      -15.205      -11.810        8.609        8.207        9.868       74.120       67.362       97.368        0.223        0.012       63.922        4.147        0.004      333.645        3.094      872.324
12/25/2013  19:31:00      -54.314      -16.807       -4.173        8.030        8.276        7.399       64.475       68.486       54.750        0.172        0.009       56.855        1.958        0.001      333.593        3.009      872.341
12/25/2013  19:32:00      -48.337      -20.246       -9.270       16.811       12.289       15.526      282.622      151.023      241.070        0.175        0.034       52.406       11.577        0.049      333.695        3.177      872.356
12/25/2013  19:33:00      -33.402      -14.239       -3.076        6.892        9.543        5.207       47.503       91.078       27.117        0.075        0.008       36.310        2.742        0.006      333.782        3.324      872.369
12/25/2013  19:34:00      -28.973        2.633       -8.419       19.003       16.337        8.839      361.096      266.906       78.130        0.081        0.035       29.092        7.805        0.072      333.774        3.309      872.398
12/25/2013  19:35:00      -32.759       -9.158       -4.991       12.606       15.791       13.098      158.922      249.356      171.545        0.088        0.029       34.015        9.692        0.081      333.760        3.286      872.425
12/25/2013  19:36:00      -35.154      -20.566       -8.948       11.127       12.753       11.833      123.814      162.649      140.021        0.108        0.021       40.728       11.145        0.075      333.765        3.294      872.443
12/25/2013  19:37:00      -29.668      -26.832       -9.744       13.020        9.719        8.912      169.517       94.467       79.431        0.102        0.017       40.001        5.167        0.017      333.605        3.030      872.454
12/25/2013  19:38:00      -60.619      -19.984      -11.126       14.892       15.866        9.623      221.773      251.715       92.603        0.238        0.028       63.828        7.444        0.014      333.516        2.881      872.465
12/25/2013  19:39:00      -62.330      -22.824      -11.200       16.376       18.605       14.402      268.181      346.140      207.404        0.268        0.041       66.377        8.677        0.017      333.403        2.695      872.474
12/25/2013  19:40:00      -57.802      -21.529       -7.483       28.104       16.363       20.686      789.836      267.762      427.910        0.267        0.074       61.682       21.497        0.121      333.298        2.521      872.488
12/25/2013  19:41:00      -80.899      -25.491       -3.045       23.503       29.078       18.551      552.398      845.530      344.143        0.447        0.087       84.820       18.271        0.046      333.285        2.499      872.476
12/25/2013  19:42:00      -70.975      -27.632       -5.050       12.717       16.725       13.532      161.729      279.712      183.112        0.323        0.031       76.164        7.639        0.010      333.275        2.483      872.464
12/25/2013  19:43:00      -78.262      -19.173      -12.280       16.921       13.481       13.715      286.329      181.740      188.105        0.365        0.033       80.576        9.783        0.015      333.251        2.443      872.469
12/25/2013  19:44:00      -68.544      -22.088      -10.455       13.714       13.085       10.279      188.072      171.209      105.665        0.288        0.023       72.015        7.724        0.012      333.275        2.483      872.481
12/25/2013  19:45:00      -60.008      -25.020      -11.846       20.584       24.077       19.782      423.698      579.693      391.346        0.288        0.070       65.015        8.436        0.017      333.354        2.613      872.492
12/25/2013  19:46:00      -79.532       -7.032      -12.186       18.033       15.377        7.324      325.186      236.456       53.638        0.357        0.031       79.842        6.107        0.006      333.348        2.604      872.506
12/25/2013  19:47:00      -73.651       -0.711      -16.423        9.955       12.492       10.088       99.109      156.056      101.765        0.303        0.018       73.654        1.586        0.000      333.348        2.603      872.530
12/25/2013  19:48:00      -61.407      -14.674      -11.665       11.587        9.960        8.240      134.270       99.205       67.892        0.221        0.015       63.136        5.089        0.006      333.336        2.583      872.547
12/25/2013  19:49:00      -58.695      -21.696       -7.846       13.611       14.606       10.573      185.270      213.341      111.788        0.224        0.026       62.577        5.517        0.008      333.245        2.432      872.556
12/25/2013  19:50:00      -62.687      -25.122      -16.954       16.390       23.325       11.044      268.642      544.066      121.976        0.289        0.047       67.534        5.950        0.008      333.166        2.301      872.561
12/25/2013  19:51:00      -67.487      -23.904       -6.712       24.755       18.540       15.711      612.801      343.714      246.845        0.319        0.060       71.596       12.283        0.029      333.095        2.186      872.575
12/25/2013  19:52:00      -83.645      -20.312      -19.002       16.289       15.325       10.577      265.340      234.845      111.865        0.419        0.031       86.076        6.278        0.005      333.081        2.164      872.576
12/25/2013  19:53:00      -86.131      -19.585      -23.397       19.101       26.974       11.422      364.850      727.602      130.453        0.479        0.061       88.330        4.576        0.003      333.079        2.161      872.565
12/25/2013  19:54:00      -79.221      -25.507      -14.304       21.690       18.252       16.124      470.466      333.148      259.997        0.410        0.053       83.226       12.873        0.024      333.061        2.130      872.577
12/25/2013  19:55:00      -66.497      -47.043       -9.487       11.444       15.965       10.164      130.959      254.885      103.312        0.361        0.024       81.455        3.749        0.002      333.129        2.243      872.571
12/25/2013  19:56:00      -55.625      -26.382       -8.905       19.479       15.916       17.173      379.430      253.330      294.928        0.240        0.046       61.564       13.943        0.051      333.211        2.375      872.568
12/25/2013  19:57:00      -83.582      -18.192      -24.559       25.145       18.852       12.853      632.257      355.391      165.195        0.454        0.058       85.539       13.909        0.026      333.328        2.570      872.573
12/25/2013  19:58:00      -96.871       -3.184      -15.193       15.278       11.701       11.589      233.409      136.911      134.304        0.506        0.025       96.923        6.758        0.005      333.373        2.645      872.584
12/25/2013  19:59:00      -59.689      -25.011      -14.031       17.746       21.273       17.521      314.908      452.550      306.990        0.273        0.054       64.717       15.559        0.058      333.319        2.556      872.592
12/25/2013  20:00:00      -51.712      -31.759      -13.545       14.390       14.615        8.100      207.085      213.591       65.614        0.218        0.024       60.685        7.064        0.014      333.218        2.387      872.602
12/25/2013  20:01:00      -83.200      -12.823      -12.032       27.549       23.268       12.208      758.949      541.413      149.039        0.434        0.072       84.182       12.574        0.022      333.210        2.373      872.624
12/25/2013  20:02:00     -102.088       -1.204      -14.060       18.174       19.865       12.260      330.309      394.616      150.299        0.575        0.044      102.095        9.063        0.008      333.188        2.339      872.640
12/25/2013  20:03:00      -90.976        1.094      -14.467       24.161       17.810       14.703      583.748      317.212      216.174        0.480        0.056       90.982        7.890        0.008      333.148        2.271      872.652
12/25/2013  20:04:00      -67.303       -3.088      -10.496       14.377       17.062       14.563      206.704      291.110      212.081        0.268        0.035       67.374        9.804        0.021      333.120        2.227      872.674
12/25/2013  20:05:00      -54.411      -19.534       -7.824       26.125       12.924        9.757      682.514      167.035       95.192        0.217        0.047       57.812        7.817        0.018      333.134        2.251      872.681
12/25/2013  20:06:00      -64.105      -21.241       -6.771       13.299       12.970       11.893      176.860      168.229      141.451        0.255        0.024       67.533        5.010        0.006      333.147        2.270      872.676
12/25/2013  20:07:00      -73.613      -15.699      -13.538       18.861       20.884       15.220      355.735      436.158      231.660        0.344        0.051       75.269        8.978        0.014      333.111        2.210      872.670
12/25/2013  20:08:00      -65.110      -28.694       -8.861       16.417       17.370       12.990      269.505      301.710      168.732        0.294        0.037       71.152        9.881        0.019      333.134        2.247      872.674
12/25/2013  20:09:00      -91.527      -16.894      -12.463       25.062       14.340       13.256      628.125      205.634      175.711        0.491        0.050       93.073        8.986        0.009      333.187        2.337      872.674
12/25/2013  20:10:00      -91.753      -12.129      -14.026       19.947       18.889       16.502      397.867      356.793      272.314        0.489        0.051       92.551       12.371        0.018      333.132        2.246      872.678
12/25/2013  20:11:00     -104.941        5.358      -15.840       25.478       18.839       15.361      649.136      354.906      235.956        0.627        0.062      105.078       11.762        0.013      333.147        2.270      872.690
12/25/2013  20:12:00      -93.685        7.483      -12.423       28.815       23.095       18.269      830.308      533.362      333.753        0.534        0.085       93.983       14.656        0.024      333.232        2.412      872.706
12/25/2013  20:13:00     -120.921        8.795      -17.121       34.495       25.406       21.120     1189.917      645.467      446.034        0.864        0.114      121.241       13.907        0.013      333.232        2.411      872.704
12/25/2013  20:14:00      -77.488        3.145       -8.503       43.725       27.167       23.250     1911.875      738.070      540.585        0.464        0.160       77.552       18.690        0.058      333.141        2.261      872.709
12/25/2013  20:15:00      -65.912       -8.960      -17.763       35.979       20.173       15.052     1294.521      406.941      226.565        0.333        0.096       66.518       15.874        0.057      333.160        2.294      872.719
12/25/2013  20:16:00      -49.589      -21.437      -10.980       27.063       29.397       17.871      732.429      864.178      319.388        0.248        0.096       54.024       19.606        0.132      333.113        2.217      872.712
12/25/2013  20:17:00      -43.329      -15.797       -4.965       38.799       22.134       16.771     1505.340      489.919      281.252        0.221        0.114       46.119       19.135        0.172      333.099        2.193      872.714
12/25/2013  20:18:00      -86.558        0.826      -10.404       30.903       23.142       17.871      954.980      535.569      319.370        0.471        0.090       86.562       15.820        0.033      333.137        2.255      872.730
12/25/2013  20:19:00      -77.189        8.158       -8.370       25.531       21.912       20.471      651.807      480.149      419.067        0.382        0.078       77.619       16.443        0.045      333.183        2.330      872.737
12/25/2013  20:20:00      -80.057        7.078       -5.526       28.044       23.910       17.569      786.476      571.687      308.655        0.408        0.083       80.369       18.929        0.055      333.224        2.398      872.741
12/25/2013  20:21:00     -103.902       14.005      -17.486       26.838       20.470       13.271      720.273      419.020      176.133        0.631        0.066      104.842        9.509        0.008      333.234        2.416      872.749
12/25/2013  20:22:00     -100.949        6.649      -11.689       26.579       17.361       18.564      706.446      301.396      344.605        0.586        0.068      101.168       16.851        0.028      333.298        2.520      872.766
12/25/2013  20:23:00     -100.546      -10.976       -9.711       18.699       16.261       16.226      349.664      264.420      263.293        0.560        0.044      101.144       11.316        0.013      333.295        2.516      872.773
12/25/2013  20:24:00      -82.816      -15.640       -4.944       27.507       24.450       16.502      756.626      597.792      272.310        0.438        0.081       84.280       10.982        0.017      333.227        2.402      872.761
12/25/2013  20:25:00      -56.408      -30.627      -10.573       16.907       19.565        9.308      285.854      382.787       86.645        0.249        0.038       64.186        5.111        0.006      333.200        2.358      872.764
12/25/2013  20:26:00      -28.478      -39.686        7.278       25.824       17.545       18.578      666.885      307.826      345.128        0.188        0.066       48.847       17.989        0.136      333.210        2.374      872.762
12/25/2013  20:27:00      -85.080      -41.534       -8.469       21.562       11.387        9.067      464.931      129.674       82.207        0.486        0.034       94.677        9.623        0.010      333.190        2.342      872.760
12/25/2013  20:28:00      -70.592      -43.300       -6.500       24.884       14.565        9.485      619.214      212.137       89.971        0.391        0.046       82.814        2.923        0.001      333.185        2.334      872.760
12/25/2013  20:29:00     -105.883      -56.715      -11.093       15.879       12.389        9.945      252.147      153.496       98.900        0.753        0.025      120.116        4.970        0.002      333.208        2.370      872.769
12/25/2013  20:30:00     -108.621      -54.452       -7.958       22.394       18.198        9.829      501.502      331.175       96.617        0.788        0.046      121.505        5.897        0.002      333.156        2.288      872.787
12/25/2013  20:31:00      -92.467      -48.210        5.607       35.610       21.587       17.764     1268.044      466.005      315.548        0.648        0.102      104.280       16.343        0.025      333.065        2.137      872.799
12/25/2013  20:32:00     -106.342      -50.090       -3.573       19.336       17.993       12.177      373.864      323.759      148.274        0.734        0.042      117.549        9.012        0.006      333.079        2.159      872.830
12/25/2013  20:33:00     -101.368      -43.805       -4.592       20.083       26.337       17.403      403.317      693.623      302.875        0.681        0.070      110.428       16.767        0.023      333.055        2.120      872.840
12/25/2013  20:34:00     -102.327      -63.183       -8.642       16.869       16.202       13.404      284.564      262.510      179.674        0.763        0.036      120.262        9.549        0.006      332.987        2.006      872.850
12/25/2013  20:35:00      -98.736      -60.890       -4.368       27.564       21.531       20.063      759.800      463.567      402.534        0.755        0.081      116.002       18.697        0.026      332.890        1.847      872.865
12/25/2013  20:36:00      -75.111      -53.130       -1.344       29.940       25.883       19.315      896.425      669.953      373.080        0.520        0.097       92.002       14.300        0.024      332.853        1.786      872.861
12/25/2013  20:37:00      -89.087      -82.286       -7.756       41.434       32.673       25.016     1716.799     1067.498      625.784        0.909        0.171      121.274       26.696        0.048      332.944        1.936      872.856
12/25/2013  20:38:00      -94.593      -74.417       -1.059       36.586       24.950       20.102     1338.562      622.525      404.090        0.843        0.118      120.357       21.035        0.031      332.906        1.874      872.853
12/25/2013  20:39:00      -91.155      -61.389        2.153       38.109       26.345       16.785     1452.318      694.076      281.746        0.725        0.121      109.899       19.807        0.032      332.871        1.816      872.865
12/25/2013  20:40:00     -105.396      -70.287       -7.569       19.783       16.334       13.990      391.365      266.815      195.733        0.848        0.043      126.683       10.156        0.006      332.869        1.813      872.873
12/25/2013  20:41:00      -96.180      -57.799       -4.513       22.852       25.313       20.266      522.193      640.737      410.703        0.709        0.079      112.211       13.773        0.015      332.858        1.795      872.886
12/25/2013  20:42:00     -107.036      -84.084       -6.734       39.624       31.890       19.116     1570.067     1016.989      365.428        1.076        0.148      136.113       17.996        0.017      332.852        1.785      872.899
12/25/2013  20:43:00     -128.995      -76.613       -6.665       27.068       25.033       21.704      732.678      626.676      471.070        1.219        0.092      150.030       20.265        0.018      332.833        1.754      872.909
12/25/2013  20:44:00      -88.536      -63.379       -3.764       29.099       27.197       17.109      846.766      739.702      292.701        0.687        0.094      108.884        8.762        0.006      332.878        1.828      872.905
12/25/2013  20:45:00      -90.762      -67.681       -1.279       27.100       31.155       15.835      734.418      970.654      250.736        0.739        0.098      113.219        9.399        0.007      332.797        1.694      872.913
12/25/2013  20:46:00      -87.981      -71.449        1.642       32.415       27.438       20.418     1050.760      752.832      416.876        0.753        0.111      113.338       17.255        0.023      332.732        1.585      872.924
12/25/2013  20:47:00     -105.300      -56.863        2.427       42.461       32.770       21.972     1802.906     1073.854      482.789        0.884        0.168      119.672       21.296        0.032      332.716        1.561      872.929
12/25/2013  20:48:00      -81.570      -57.395        1.533       28.842       22.456       19.566      831.876      504.281      382.823        0.583        0.086       99.739       14.659        0.022      332.778        1.663      872.922
12/25/2013  20:49:00      -99.489      -62.668       -2.431       31.458       29.207       21.880      989.624      853.033      478.720        0.808        0.116      117.582       20.787        0.031      332.740        1.600      872.926
12/25/2013  20:50:00      -72.594      -51.897        3.283       46.936       32.471       22.590     2203.029     1054.354      510.288        0.587        0.188       89.236       22.249        0.062      332.723        1.572      872.927
12/25/2013  20:51:00      -62.497      -63.295        6.399       58.005       49.010       27.378     3364.543     2401.949      749.554        0.723        0.326       88.950       29.510        0.110      332.804        1.706      872.921
12/25/2013  20:52:00     -104.524      -63.967        4.352       64.279       41.850       32.998     4131.727     1751.457     1088.873        1.100        0.349      122.544       29.662        0.059      332.869        1.813      872.913
12/25/2013  20:53:00     -118.519      -72.142        7.476       63.295       36.615       23.655     4006.234     1340.690      559.564        1.261        0.295      138.749       20.720        0.022      332.874        1.821      872.916
12/25/2013  20:54:00     -155.780      -73.362       -2.534       41.107       32.958       20.854     1689.787     1086.236      434.903        1.643        0.161      172.190       19.891        0.013      332.969        1.978      872.925
12/25/2013  20:55:00     -136.431      -60.777        1.016       44.042       29.571       27.652     1939.656      874.422      764.612        1.294        0.179      149.356       29.248        0.038      332.921        1.899      872.925
12/25/2013  20:56:00     -116.233      -57.852        3.821       51.872       35.225       28.660     2690.696     1240.790      821.401        1.081        0.238      129.835       28.852        0.049      332.980        1.995      872.927
12/25/2013  20:57:00     -106.576      -60.043        4.595       50.781       31.590       24.207     2578.671      997.934      585.974        0.957        0.208      122.326       24.022        0.039      332.978        1.993      872.937
12/25/2013  20:58:00     -149.495      -68.039        2.755       40.532       24.720       23.899     1642.818      611.089      571.181        1.490        0.141      164.250       22.557        0.019      333.022        2.065      872.938
12/25/2013  20:59:00     -102.271      -56.592        1.365       42.582       39.044       22.306     1813.252     1524.435      497.536        0.875        0.192      116.884       22.234        0.036      333.018        2.058      872.934
12/25/2013  21:00:00     -106.402      -40.364       -1.412       38.210       25.286       19.416     1460.033      639.367      376.968        0.771        0.124      113.801       20.909        0.034      332.962        1.966      872.927
12/25/2013  21:01:00     -119.296      -27.938       -3.256       36.945       23.145       13.948     1364.927      535.686      194.535        0.856        0.105      122.524       13.562        0.012      332.796        1.692      872.927
12/25/2013  21:02:00     -127.309      -22.406       -6.567       29.588       18.141       19.815      875.421      329.093      392.639        0.917        0.080      129.265       18.834        0.021      332.679        1.499      872.933
12/25/2013  21:03:00     -120.724      -30.199       -5.221       25.847       20.911       17.477      668.084      437.275      305.431        0.846        0.071      124.444       13.823        0.012      332.699        1.532      872.937
12/25/2013  21:04:00     -134.079      -42.096       -0.521       25.862       26.977       15.947      668.861      727.746      254.301        1.070        0.083      140.532       14.157        0.010      332.607        1.379      872.929
12/25/2013  21:05:00     -145.951      -44.392       -4.480       19.964       20.482       12.085      398.551      419.503      146.042        1.213        0.048      152.553       10.007        0.004      332.659        1.467      872.918
12/25/2013  21:06:00     -112.660      -36.430        0.475       26.705       21.081       15.938      713.177      444.427      254.018        0.772        0.071      118.404       13.859        0.014      332.689        1.515      872.906
12/25/2013  21:07:00      -90.780      -44.163        5.064       35.770       22.732       19.464     1279.500      516.721      378.863        0.620        0.109      100.953       19.312        0.037      332.723        1.571      872.892
12/25/2013  21:08:00      -94.744      -35.038       -2.081       26.234       20.377       16.655      688.238      415.214      277.386        0.579        0.069      101.015       13.712        0.018      332.739        1.599      872.877
12/25/2013  21:09:00      -98.719      -32.776       -0.546       23.107       19.309       13.873      533.940      372.849      192.469        0.596        0.055      104.017       13.603        0.017      332.729        1.583      872.861
12/25/2013  21:10:00      -95.429      -19.190        1.917       33.729       23.104       13.659     1137.667      533.776      186.575        0.567        0.093       97.339       16.032        0.027      332.670        1.484      872.852
12/25/2013  21:11:00     -101.388      -28.008       -1.358       22.677       21.459       12.415      514.260      460.478      154.141        0.610        0.056      105.186        8.940        0.007      332.646        1.445      872.842
12/25/2013  21:12:00     -114.433      -50.399      -10.120       13.545       20.236       13.188      183.460      409.513      173.929        0.825        0.038      125.040        7.917        0.004      332.419        1.070      872.837
12/25/2013  21:13:00     -100.809      -51.798       -6.409       24.741       18.698       16.299      612.100      349.622      265.647        0.706        0.061      113.338       14.481        0.016      332.401        1.039      872.825
12/25/2013  21:14:00     -106.251      -45.448       -4.478       20.093       17.285       11.873      403.747      298.755      140.958        0.711        0.042      115.563        5.248        0.002      332.506        1.213      872.818
12/25/2013  21:15:00      -97.518      -52.428        0.648       26.872       22.054       14.733      722.128      486.362      217.058        0.684        0.071      110.718       15.960        0.021      332.365        0.980      872.812
12/25/2013  21:16:00     -119.101      -53.258      -13.568       16.750       19.762       17.048      280.571      390.548      290.639        0.908        0.048      130.466       13.618        0.011      332.403        1.043      872.810
12/25/2013  21:17:00     -102.962      -32.575       -3.439       24.323       21.069       15.515      591.592      443.885      240.701        0.647        0.064      107.992       12.334        0.013      332.379        1.003      872.816
12/25/2013  21:18:00     -117.737      -32.170       -7.806       24.623       17.655       12.778      606.299      311.681      163.273        0.802        0.054      122.053       12.434        0.010      332.417        1.065      872.804
12/25/2013  21:19:00     -100.251      -25.850        0.952       25.351       21.875       17.854      642.654      478.527      318.749        0.608        0.072      103.530       15.341        0.022      332.383        1.009      872.798
12/25/2013  21:20:00     -113.529      -39.934       -5.736       28.093       19.859       16.978      789.194      394.374      288.260        0.799        0.074      120.348       16.639        0.019      332.366        0.982      872.795
12/25/2013  21:21:00     -114.845      -42.555       -6.251       19.633       20.759       13.303      385.473      430.923      176.966        0.802        0.050      122.476       10.981        0.008      332.286        0.849      872.790
12/25/2013  21:22:00     -120.708      -20.408      -14.061       34.783       19.093       17.878     1209.885      364.529      319.611        0.854        0.095      122.421       11.758        0.009      332.194        0.698      872.793
12/25/2013  21:23:00      -79.183       10.722       -4.138       51.522       26.374       27.810     2654.490      695.595      773.419        0.526        0.206       79.905       29.845        0.140      332.295        0.865      872.792
12/25/2013  21:24:00     -105.124      -16.440       -2.397       40.587       32.135       21.837     1647.306     1032.688      476.876        0.724        0.158      106.402       21.304        0.040      332.353        0.958      872.787
12/25/2013  21:25:00     -102.382      -15.084       -0.141       40.720       31.344       23.356     1658.133      982.470      545.487        0.695        0.159      103.487       17.394        0.028      332.306        0.882      872.778
12/25/2013  21:26:00      -76.084       -9.928       -4.585       35.161       38.846       28.011     1236.290     1508.997      784.635        0.472        0.176       76.729       21.200        0.076      332.377        0.999      872.782
12/25/2013  21:27:00      -75.531       23.579       -2.845       49.006       35.892       29.261     2401.590     1288.218      856.209        0.541        0.227       79.126       19.510        0.061      332.459        1.135      872.788
12/25/2013  21:28:00     -110.423       35.068      -12.423       51.270       31.982       28.191     2628.612     1022.832      794.753        0.901        0.222      115.857       24.678        0.045      332.426        1.080      872.787
12/25/2013  21:29:00      -91.356       26.749       -3.450       49.045       31.124       27.334     2405.401      968.685      747.135        0.660        0.206       95.192       28.182        0.088      332.438        1.100      872.789
12/25/2013  21:30:00     -117.765       25.941       -8.926       45.696       30.417       25.657     2088.126      925.209      658.299        0.915        0.184      120.588       17.606        0.021      332.492        1.189      872.797
12/25/2013  21:31:00     -118.061      -13.073       -6.410       35.342       39.959       21.693     1249.040     1596.699      470.602        0.873        0.166      118.783       14.240        0.014      332.406        1.048      872.806
12/25/2013  21:32:00     -114.282       -9.163      -24.769       29.342       38.912       19.051      860.942     1514.144      362.947        0.825        0.137      114.648        8.938        0.006      332.348        0.951      872.813
12/25/2013  21:33:00     -112.309      -22.797      -12.166       39.980       47.436       22.650     1598.388     2250.221      513.036        0.882        0.218      114.600       18.926        0.027      332.361        0.973      872.818
12/25/2013  21:34:00      -87.210      -30.405       -0.866       49.018       41.556       28.344     2402.767     1726.924      803.386        0.673        0.247       92.358       10.572        0.013      332.301        0.876      872.821
12/25/2013  21:35:00      -77.628      -54.124      -11.560       56.534       30.480       21.306     3196.131      929.059      453.949        0.683        0.229       94.633       24.494        0.067      332.263        0.813      872.827
12/25/2013  21:36:00        3.013      -18.171       -5.089       13.013       20.126       15.091      169.331      405.051      227.751        0.058        0.040       18.419       10.397        0.319      332.313        0.893      872.829
12/25/2013  21:37:00       -9.108       -7.917       -3.042       33.782       23.429       12.785     1141.240      548.897      163.457        0.100        0.093       12.068        9.375        0.603      332.326        0.914      872.823
12/25/2013  21:38:00      -51.775       -9.741       -6.306       19.156       12.951       19.855      366.940      167.734      394.224        0.187        0.046       52.684        9.980        0.036      332.504        1.210      872.838
12/25/2013  21:39:00      -56.415      -17.459       -7.335       24.464       15.540       12.242      598.469      241.480      149.872        0.227        0.049       59.055        6.091        0.011      332.413        1.058      872.846
12/25/2013  21:40:00      -57.041      -24.495      -13.896       22.580       22.489       17.446      509.843      505.760      304.348        0.268        0.066       62.078        8.347        0.018      332.408        1.052      872.836
12/25/2013  21:41:00      -78.811      -32.695      -15.461       14.264       18.587       13.715      203.472      345.466      188.108        0.413        0.037       85.324        6.212        0.005      332.291        0.858      872.822
12/25/2013  21:42:00      -82.762      -36.825      -20.858       17.996       18.993       16.818      323.856      360.751      282.845        0.480        0.048       90.585       11.907        0.017      332.229        0.756      872.835
12/25/2013  21:43:00      -47.179      -20.344       -6.193       25.676       17.304       14.622      659.255      299.439      213.798        0.193        0.059       51.379       11.147        0.047      332.290        0.857      872.847
12/25/2013  21:44:00      -14.779        0.681       -5.889       12.591       13.202       14.958      158.537      174.286      223.756        0.040        0.028       14.795       12.399        0.702      332.306        0.883      872.855
12/25/2013  21:45:00        5.773      -24.444      -10.519        7.126       21.843       10.177       50.777      477.103      103.575        0.069        0.032       25.117       12.326        0.241      332.456        1.130      872.859
12/25/2013  21:46:00      -17.019      -18.188       -5.088       16.391       18.698       13.114      268.658      349.617      171.974        0.072        0.040       24.909       10.688        0.184      332.313        0.893      872.863
12/25/2013  21:47:00      -66.686      -51.770      -13.056       16.206       14.788       12.733      262.642      218.694      162.136        0.397        0.032       84.423        8.611        0.010      332.318        0.901      872.876
12/25/2013  21:48:00      -86.992      -16.564      -12.253       15.991       13.381        8.675      255.703      179.063       75.247        0.425        0.026       88.555        4.515        0.003      332.208        0.722      872.869
12/25/2013  21:49:00      -98.691      -11.364      -15.897       11.073       10.836        7.274      122.602      117.425       52.910        0.521        0.015       99.343        2.757        0.001      332.114        0.567      872.875
12/25/2013  21:50:00      -87.341      -16.256      -20.127        9.113        8.546        6.959       83.050       73.039       48.431        0.425        0.010       88.841        2.296        0.001      332.133        0.599      872.871
12/25/2013  21:51:00      -83.508      -16.296      -12.328       13.111       12.400        9.987      171.908      153.770       99.745        0.391        0.021       85.083        7.637        0.008      332.162        0.643      872.879
12/25/2013  21:52:00      -95.679      -15.839      -12.428       11.378        8.621        7.829      129.462       74.321       61.288        0.491        0.013       96.981        5.193        0.003      332.133        0.596      872.894
12/25/2013  21:53:00      -98.635      -44.239      -11.600       20.059       22.085       12.327      402.375      487.762      151.943        0.643        0.052      108.102        6.399        0.004      332.120        0.577      872.919
12/25/2013  21:54:00      -98.102      -42.872      -17.036       18.203       20.995       15.329      331.348      440.806      234.988        0.638        0.050      107.060        6.303        0.003      332.106        0.553      872.931
12/25/2013  21:55:00      -66.509      -49.664      -13.322       27.402       24.451       16.196      750.875      597.855      262.300        0.434        0.081       83.006        9.122        0.012      332.176        0.669      872.943
12/25/2013  21:56:00     -102.867      -36.736      -11.820       26.181       12.927       14.388      685.465      167.116      207.009        0.657        0.053      109.230        6.660        0.004      332.154        0.632      872.961
12/25/2013  21:57:00     -103.242      -47.436       -7.515       14.923       12.209        7.620      222.708      149.050       58.070        0.670        0.021      113.619        4.197        0.001      332.138        0.606      872.972
12/25/2013  21:58:00      -93.761      -50.556      -11.869        9.608       12.095        9.113       92.318      146.287       83.047        0.590        0.016      106.523        3.206        0.001      332.114        0.565      872.982
12/25/2013  21:59:00     -100.678      -38.840      -17.429        9.871        9.658        7.219       97.428       93.269       52.115        0.610        0.012      107.911        4.107        0.001      332.189        0.691      872.987
12/25/2013  22:00:00      -92.160      -37.613      -10.101       10.843        8.031        7.353      117.575       64.498       54.066        0.512        0.012       99.540        5.434        0.003      332.178        0.675      872.996
12/25/2013  22:01:00      -98.207      -43.198       -9.042       13.942        7.271        6.661      194.389       52.867       44.364        0.594        0.015      107.288        4.113        0.001      332.231        0.761      873.000
12/25/2013  22:02:00      -88.922      -42.931      -10.030       13.271       10.135       12.067      176.106      102.708      145.617        0.514        0.021       98.743        9.800        0.010      332.119        0.575      873.016
12/25/2013  22:03:00      -79.792      -61.211       -8.717       22.842       16.015       12.384      521.759      256.490      153.351        0.556        0.047      100.566        5.298        0.003      332.154        0.633      873.029
12/25/2013  22:04:00      -82.880      -53.952      -13.141       20.609       16.217       12.277      424.740      262.985      150.717        0.540        0.042       98.893        5.122        0.003      332.141        0.611      873.031
12/25/2013  22:05:00      -83.459      -43.001      -15.193       16.461       13.976       11.137      270.949      195.331      124.032        0.482        0.030       93.885        6.262        0.004      332.060        0.477      873.023
12/25/2013  22:06:00      -87.620      -40.099       -6.680       11.347       12.785        8.194      128.752      163.461       67.143        0.484        0.018       96.360        5.205        0.003      332.085        0.518      873.027
12/25/2013  22:07:00      -93.498      -37.771       -8.148        8.365       10.132        6.235       69.976      102.654       38.872        0.522        0.011      100.839        4.178        0.002      332.088        0.522      873.043
12/25/2013  22:08:00      -89.164      -33.881       -6.218       17.156       10.769        8.306      294.333      115.982       68.994        0.481        0.024       95.384        8.236        0.007      332.104        0.551      873.043
12/25/2013  22:09:00      -88.195      -40.563      -12.615       13.115       14.597        9.091      172.013      213.082       82.651        0.503        0.023       97.076        7.114        0.005      332.131        0.595      873.039
12/25/2013  22:10:00      -88.571      -34.723       -7.352       19.925       12.176        9.625      397.020      148.252       92.640        0.487        0.032       95.134        9.706        0.010      332.078        0.507      873.032
12/25/2013  22:11:00      -89.085      -29.584      -10.669       15.640       12.910        9.007      244.619      166.675       81.122        0.471        0.025       93.869        5.842        0.004      332.098        0.540      873.032
12/25/2013  22:12:00      -72.593      -25.143       -6.415       16.389       11.989       12.860      268.600      143.744      165.390        0.326        0.029       76.824        9.606        0.016      332.108        0.557      873.041
12/25/2013  22:13:00      -81.866      -44.878       -7.053        9.589       14.717        9.344       91.951      216.586       87.303        0.458        0.020       93.360        3.955        0.002      332.065        0.486      873.044
12/25/2013  22:14:00     -100.020      -45.368      -13.354       11.711       15.764       10.043      137.151      248.503      100.862        0.636        0.024      109.828        6.840        0.004      332.100        0.544      873.046
12/25/2013  22:15:00      -95.475      -44.390      -13.843       22.419       16.373       13.144      502.593      268.067      172.757        0.611        0.047      105.289       11.904        0.013      332.082        0.515      873.047
12/25/2013  22:16:00     -118.645      -33.762       -8.962       22.981       16.763       12.018      528.122      280.994      144.443        0.813        0.048      123.355        9.815        0.006      332.080        0.510      873.069
12/25/2013  22:17:00     -118.543      -34.424       -8.719       23.358       16.120       11.453      545.598      259.853      131.163        0.812        0.047      123.440        8.560        0.005      332.064        0.484      873.091
12/25/2013  22:18:00     -118.370      -38.223      -12.241       10.684       14.336        9.267      114.145      205.519       85.876        0.801        0.020      124.388        5.933        0.002      332.023        0.415      873.106
12/25/2013  22:19:00     -105.189      -38.291      -12.604       12.034       10.413        7.185      144.807      108.424       51.629        0.650        0.015      111.941        5.484        0.002      332.033        0.432      873.108
12/25/2013  22:20:00     -101.445      -25.249      -14.388       15.713       13.738        9.945      246.899      188.740       98.913        0.583        0.027      104.540        7.994        0.006      332.019        0.411      873.108
12/25/2013  22:21:00      -95.187      -22.225      -14.168       13.323       10.791        7.464      177.503      116.442       55.705        0.505        0.017       97.747        4.802        0.002      332.028        0.424      873.110
12/25/2013  22:22:00      -80.394      -18.477      -16.192       12.581        9.162       10.469      158.278       83.945      109.608        0.371        0.018       82.490        4.345        0.003      332.046        0.453      873.114
12/25/2013  22:23:00      -81.370      -24.848      -10.619       13.620       14.484        8.363      185.494      209.779       69.943        0.391        0.023       85.079        6.639        0.006      332.056        0.471      873.127
12/25/2013  22:24:00      -80.220      -33.024      -15.224       15.815       13.032       11.090      250.126      169.828      122.987        0.415        0.027       86.752        7.935        0.008      332.078        0.507      873.129
12/25/2013  22:25:00     -101.533      -29.504      -14.124       10.779       14.788        9.740      116.178      218.700       94.867        0.590        0.021      105.733        4.847        0.002      332.092        0.530      873.131
12/25/2013  22:26:00      -91.243      -37.397       -7.291       14.259       15.112        8.412      203.326      228.376       70.756        0.514        0.025       98.610        7.055        0.005      332.038        0.442      873.132
12/25/2013  22:27:00      -81.332      -37.126       -4.036       22.632       14.639       14.261      512.226      214.292      203.377        0.447        0.046       89.405       15.127        0.029      332.043        0.449      873.136
12/25/2013  22:28:00     -103.273      -44.014       -8.742       11.755        7.578        7.177      138.170       57.431       51.508        0.646        0.012      112.261        1.544        0.000      332.038        0.441      873.143
12/25/2013  22:29:00      -85.909      -36.712       -8.311       16.145       13.813        9.140      260.653      190.807       83.546        0.467        0.027       93.425        7.816        0.007      332.049        0.459      873.150
12/25/2013  22:30:00      -70.770      -36.312       -5.084       20.595       16.866        9.870      424.149      284.446       97.417        0.358        0.040       79.542        5.673        0.005      332.030        0.428      873.152
12/25/2013  22:31:00      -83.123      -37.348       -3.337       21.078       13.965        9.054      444.292      195.013       81.976        0.452        0.036       91.128       10.538        0.013      332.050        0.460      873.158
12/25/2013  22:32:00      -92.627      -34.428      -10.347       11.324       10.209        7.402      128.229      104.223       54.788        0.508        0.014       98.818        4.667        0.002      332.039        0.443      873.161
12/25/2013  22:33:00      -77.566      -39.119       -6.435       15.038       12.745        9.074      226.149      162.435       82.330        0.403        0.024       86.872        6.421        0.005      331.991        0.363      873.163
12/25/2013  22:34:00      -93.178      -42.478      -13.048        8.154        6.209        7.429       66.486       38.549       55.185        0.541        0.008      102.404        4.641        0.002      331.965        0.319      873.158
12/25/2013  22:35:00      -93.998      -50.479      -13.220        9.731       12.175       10.194       94.690      148.233      103.921        0.595        0.017      106.695        3.742        0.001      331.969        0.328      873.151
12/25/2013  22:36:00      -84.230      -50.041      -15.746       21.359       10.716        9.810      456.203      114.822       96.236        0.526        0.033       97.973        6.969        0.005      331.962        0.315      873.147
12/25/2013  22:37:00      -90.481      -57.037      -13.010       17.324       12.302       10.306      300.125      151.335      106.217        0.608        0.028      106.959        2.473        0.001      331.952        0.299      873.151
12/25/2013  22:38:00      -82.369      -51.907       -8.861       12.789       15.457        8.038      163.561      238.916       64.611        0.501        0.023       97.361        4.900        0.003      331.932        0.267      873.148
12/25/2013  22:39:00      -78.970      -40.392      -12.767        9.402        8.865        8.652       88.400       78.587       74.860        0.414        0.012       88.700        4.620        0.003      331.918        0.242      873.156
12/25/2013  22:40:00      -77.756      -46.822      -13.279        9.876        9.122        9.192       97.529       83.218       84.487        0.434        0.013       90.765        5.411        0.004      331.954        0.302      873.169
12/25/2013  22:41:00      -79.613      -50.863       -9.971       12.984       11.524        7.923      168.584      132.802       62.774        0.469        0.018       94.474        4.741        0.003      331.956        0.305      873.164
12/25/2013  22:42:00      -80.456      -50.189       -9.264       15.992       11.828       10.378      255.748      139.913      107.705        0.479        0.025       94.827        3.824        0.002      331.963        0.316      873.157
12/25/2013  22:43:00      -78.463      -46.884       -4.621       14.030       11.424       10.758      196.848      130.515      115.731        0.441        0.022       91.403        7.775        0.007      331.993        0.366      873.150
12/25/2013  22:44:00      -51.950      -28.415       -2.758       21.087       13.367       11.533      444.678      178.686      133.012        0.213        0.038       59.213       10.648        0.032      331.949        0.295      873.139
12/25/2013  22:45:00      -68.391      -37.359       -4.227        9.899        9.912        8.644       97.983       98.255       74.723        0.318        0.014       77.930        5.764        0.005      331.956        0.305      873.126
12/25/2013  22:46:00      -62.027      -38.210       -2.251       19.202       10.594        8.409      368.714      112.232       70.704        0.293        0.028       72.852        8.508        0.014      331.999        0.376      873.127
12/25/2013  22:47:00      -69.684      -44.205       -6.556       15.847       15.108        9.457      251.119      228.240       89.426        0.371        0.028       82.522        3.839        0.002      331.974        0.335      873.138
12/25/2013  22:48:00      -65.510      -45.065       -1.846       21.795       12.694       10.589      475.027      161.141      112.120        0.354        0.037       79.513        7.206        0.008      331.962        0.316      873.137
12/25/2013  22:49:00      -66.608      -44.064       -2.968       25.535       14.247       14.457      652.040      202.981      209.002        0.373        0.053       79.864       14.786        0.034      331.871        0.165      873.145
12/25/2013  22:50:00      -49.845      -32.987       -0.739       17.628       12.207       14.610      310.738      149.007      213.451        0.212        0.034       59.772       13.324        0.050      331.927        0.259      873.158
12/25/2013  22:51:00      -52.884      -28.823       -3.408       24.600       15.512       10.230      605.147      240.636      104.651        0.229        0.048       60.228       14.091        0.055      331.877        0.176      873.170
12/25/2013  22:52:00      -64.454      -36.253       -0.111       31.760       14.298       12.107     1008.669      204.431      146.571        0.341        0.068       73.950       11.954        0.026      331.797        0.043      873.179
12/25/2013  22:53:00      -53.629      -38.556        3.341       28.534       23.531       18.122      814.169      553.688      328.407        0.303        0.085       66.050       16.916        0.066      331.814        0.072      873.185
12/25/2013  22:54:00      -72.884      -40.610        1.208       37.539       23.816       20.645     1409.190      567.196      426.230        0.468        0.120       83.434       23.417        0.079      331.803        0.053      873.196
12/25/2013  22:55:00      -87.626      -57.342        0.546       35.853       28.891       18.950     1285.440      834.697      359.089        0.672        0.124      104.720       12.453        0.014      331.831        0.099      873.208
12/25/2013  22:56:00      -72.226      -39.870        0.127       27.496       22.676       18.274      756.018      514.178      333.940        0.420        0.080       82.500       12.964        0.025      331.821        0.084      873.215
12/25/2013  22:57:00      -78.002      -38.842        3.300       29.805       21.593       17.577      888.321      466.247      308.938        0.463        0.083       87.138       15.527        0.032      331.794        0.039      873.218
12/25/2013  22:58:00      -49.745      -34.167        6.564       29.933       26.412       18.638      895.971      697.588      347.368        0.281        0.097       60.349       17.085        0.080      331.767       -0.005      873.224
12/25/2013  22:59:00      -79.312      -33.376        4.003       44.567       20.403       16.065     1986.202      416.301      258.086        0.504        0.133       86.048       18.584        0.047      331.867        0.158      873.223
12/25/2013  23:00:00      -82.674      -36.757       -0.309       21.788       20.249       13.440      474.706      410.029      180.642        0.463        0.053       90.477        9.775        0.012      331.858        0.146      873.215
12/25/2013  23:01:00      -76.983      -40.777        5.993       37.576       17.205       14.404     1411.943      296.017      207.477        0.477        0.096       87.115       15.521        0.032      331.880        0.180      873.209
12/25/2013  23:02:00      -62.754      -31.391        7.135       38.041       22.833       16.002     1447.135      521.335      256.064        0.360        0.111       70.167       19.919        0.081      331.868        0.160      873.197
12/25/2013  23:03:00      -71.424      -29.955       -2.356       25.135       20.697       14.604      631.773      428.352      213.280        0.364        0.064       77.451       12.315        0.025      331.849        0.129      873.191
12/25/2013  23:04:00      -70.579      -41.661       -7.401       24.241       12.353       13.396      587.628      152.607      179.448        0.385        0.046       81.958       12.341        0.023      331.820        0.083      873.183
12/25/2013  23:05:00      -46.136      -29.228        4.263       36.458       15.548       17.614     1329.167      241.728      310.240        0.244        0.094       54.615       19.260        0.124      331.749       -0.035      873.179
12/25/2013  23:06:00      -65.296      -37.836        4.936       44.158       29.717       17.361     1949.886      883.082      301.400        0.443        0.157       75.466       21.333        0.080      331.783        0.021      873.185
12/25/2013  23:07:00      -38.010      -39.305       10.321       33.997       22.798       16.575     1155.770      519.748      274.742        0.252        0.098       54.678       16.782        0.094      331.842        0.118      873.188
12/25/2013  23:08:00      -39.483      -33.889        9.340       40.479       25.045       16.015     1638.577      627.255      256.486        0.266        0.126       52.033       21.460        0.170      331.838        0.110      873.183
12/25/2013  23:09:00      -25.914      -16.692        3.258       27.133       15.469       14.236      736.223      239.299      202.673        0.107        0.059       30.824       14.521        0.222      331.756       -0.023      873.185
12/25/2013  23:10:00      -30.699      -16.098        5.523       31.287       20.188       15.054      978.899      407.552      226.617        0.142        0.081       34.664       15.573        0.202      331.767       -0.008      873.179
12/25/2013  23:11:00      -34.352      -27.300        3.684       22.846       12.793       12.414      521.934      163.654      154.095        0.139        0.042       43.879       12.954        0.087      331.763       -0.012      873.172
12/25/2013  23:12:00      -28.856      -22.843        1.386       20.786       20.830       14.742      432.076      433.898      217.320        0.122        0.054       36.803       12.485        0.115      331.733       -0.060      873.167
12/25/2013  23:13:00      -18.821      -15.560        8.800       23.178       15.265       11.922      537.228      233.033      142.124        0.079        0.046       24.420       11.390        0.218      331.762       -0.015      873.166
12/25/2013  23:14:00      -51.460      -28.398        3.152       24.355       18.607       14.434      593.142      346.206      208.329        0.231        0.057       58.776       12.617        0.046      331.703       -0.111      873.166
12/25/2013  23:15:00      -79.784      -45.158       -6.572       18.017       14.802       13.960      324.623      219.090      194.885        0.459        0.037       91.677        7.823        0.007      331.682       -0.143      873.151
12/25/2013  23:16:00      -67.281      -34.422        4.672       32.348       21.462       15.821     1046.364      460.628      250.291        0.375        0.088       75.575       14.719        0.038      331.657       -0.187      873.136
12/25/2013  23:17:00      -49.492      -32.003        4.059       32.474       26.494       18.580     1054.546      701.930      345.218        0.280        0.105       58.938       17.729        0.090      331.652       -0.194      873.124
12/25/2013  23:18:00      -61.852      -47.196        3.037       23.361       28.773       21.333      545.722      827.883      455.118        0.395        0.091       77.802       13.953        0.032      331.664       -0.175      873.103
12/25/2013  23:19:00      -58.947      -37.835        2.998       31.623       29.333       16.653     1000.019      860.431      277.313        0.353        0.107       70.045       11.432        0.027      331.680       -0.148      873.099
12/25/2013  23:20:00      -60.603      -44.005        6.228       24.958       23.864       17.006      622.878      569.496      289.203        0.356        0.074       74.894        5.370        0.005      331.658       -0.185      873.092
12/25/2013  23:21:00      -47.857      -35.698        4.788       33.850       25.759       17.353     1145.818      663.525      301.126        0.285        0.106       59.705       16.733        0.079      331.662       -0.178      873.079
12/25/2013  23:22:00      -53.551      -34.716        4.041       32.525       19.276       16.273     1057.869      371.546      264.818        0.289        0.085       63.819       17.423        0.075      331.609       -0.266      873.062
12/25/2013  23:23:00      -60.518      -36.108        5.489       31.302       19.902       16.601      979.822      396.071      275.590        0.332        0.083       70.471       16.096        0.052      331.612       -0.260      873.055
12/25/2013  23:24:00      -56.721      -32.267        2.043       19.969       20.486       15.093      398.754      419.669      227.795        0.265        0.052       65.256       11.984        0.034      331.617       -0.251      873.038
12/25/2013  23:25:00      -67.410      -31.409        1.923       28.837       21.781       15.497      831.545      474.408      240.161        0.354        0.077       74.368       16.198        0.047      331.607       -0.268      873.027
12/25/2013  23:26:00      -85.130      -30.786       -6.579       11.349       10.245        8.124      128.793      104.953       65.994        0.427        0.015       90.526        5.220        0.003      331.592       -0.294      873.014
12/25/2013  23:27:00      -81.947      -28.887       -8.153       10.459       10.557        7.896      109.399      111.448       62.349        0.395        0.014       86.889        6.411        0.005      331.590       -0.297      872.996
12/25/2013  23:28:00      -92.744      -40.332      -12.202        8.328        8.200        7.614       69.351       67.244       57.968        0.529        0.010      101.135        2.470        0.001      331.534       -0.390      872.991
12/25/2013  23:29:00      -98.687      -30.233       -5.785       15.326       17.761        9.350      234.876      315.455       87.418        0.566        0.032      103.214        8.066        0.006      331.563       -0.342      872.986
12/25/2013  23:30:00      -83.115      -36.766       -2.559       22.675       15.227       10.567      514.134      231.854      111.654        0.456        0.043       90.884        9.427        0.011      331.526       -0.403      872.975
12/25/2013  23:31:00      -91.286      -33.182       -4.259       17.142       14.791       12.101      293.849      218.785      146.438        0.506        0.033       97.130        9.558        0.010      331.546       -0.370      872.972
12/25/2013  23:32:00     -105.363      -25.842       -8.334       17.638       17.681       11.682      311.088      312.629      136.470        0.630        0.038      108.486       10.015        0.009      331.527       -0.400      872.973
12/25/2013  23:33:00      -96.073      -53.340       -6.532       15.306       18.835        9.703      234.270      354.746       94.147        0.640        0.034      109.887        5.287        0.002      331.497       -0.450      872.979
12/25/2013  23:34:00      -98.679      -51.564       -3.965       17.171       15.443       12.521      294.844      238.474      156.780        0.655        0.035      111.339        9.990        0.008      331.481       -0.476      872.994
12/25/2013  23:35:00      -94.362      -40.741       -8.408       16.783       13.780       12.471      281.656      189.886      155.536        0.563        0.031      102.782       11.041        0.012      331.499       -0.447      873.004
12/25/2013  23:36:00      -81.322      -41.194        1.875       22.925       19.736       12.104      525.566      389.502      146.503        0.469        0.053       91.160       10.331        0.013      331.465       -0.503      873.008
12/25/2013  23:37:00      -73.373      -22.507       -1.606       25.752       21.581       15.538      663.151      465.733      241.437        0.363        0.069       76.748       14.392        0.035      331.450       -0.528      873.004
12/25/2013  23:38:00      -92.445      -41.077       -5.507       20.743       14.554       11.353      430.284      211.827      128.895        0.552        0.039      101.160        9.626        0.009      331.430       -0.561      872.988
12/25/2013  23:39:00      -94.860      -47.703       -4.145       19.975       15.909       13.980      398.992      253.085      195.427        0.607        0.042      106.179       11.725        0.012      331.418       -0.582      872.979
12/25/2013  23:40:00      -94.732      -38.853       -5.105       28.083       16.395       11.164      788.636      268.788      124.631        0.585        0.059      102.390       12.063        0.014      331.489       -0.464      872.973
12/25/2013  23:41:00     -107.718      -45.263      -13.955       12.045       12.693       10.727      145.072      161.116      115.065        0.713        0.021      116.841        6.742        0.003      331.409       -0.595      872.973
12/25/2013  23:42:00      -96.965      -46.862      -12.372       15.363       21.471       15.522      236.027      461.008      240.921        0.634        0.047      107.695       12.227        0.013      331.355       -0.683      872.979
12/25/2013  23:43:00     -102.368      -34.923      -12.039       25.623       15.717       14.809      656.517      247.012      219.315        0.648        0.056      108.161        5.349        0.002      331.348       -0.694      872.971
12/25/2013  23:44:00      -87.587      -48.977      -13.008       38.119       18.426       17.706     1453.045      339.534      313.492        0.617        0.105      100.351       20.249        0.041      331.395       -0.618      872.967
12/25/2013  23:45:00      -82.578      -44.592       -9.196       33.389       21.678       16.069     1114.832      469.957      258.214        0.537        0.092       93.849        6.600        0.005      331.355       -0.683      872.953
12/25/2013  23:46:00      -78.930      -48.937       -5.675       36.839       34.054       22.577     1357.115     1159.693      509.713        0.584        0.151       92.869       22.323        0.058      331.332       -0.721      872.940
12/25/2013  23:47:00      -78.258      -37.785      -13.753       30.323       18.109       16.344      919.463      327.942      267.117        0.463        0.076       86.903       14.282        0.027      331.352       -0.688      872.934
12/25/2013  23:48:00      -88.800      -18.743      -13.661       23.251       26.601       16.997      540.591      707.631      288.903        0.498        0.077       90.757       14.583        0.026      331.355       -0.684      872.926
12/25/2013  23:49:00      -94.298      -24.764      -18.072       23.244       23.261       18.260      540.281      541.087      333.440        0.562        0.071       97.495       10.580        0.012      331.362       -0.671      872.915
12/25/2013  23:50:00      -86.655      -22.180      -11.299       21.476       30.592       13.883      461.201      935.875      192.728        0.486        0.079       89.448        5.622        0.004      331.378       -0.646      872.907
12/25/2013  23:51:00      -86.417      -22.268       -5.291       19.870       19.525       15.394      394.822      381.219      236.977        0.450        0.051       89.240       11.007        0.015      331.396       -0.617      872.906
12/25/2013  23:52:00     -113.276       -8.591      -22.368       26.436       24.433       16.156      698.878      596.988      261.030        0.748        0.078      113.601       13.462        0.014      331.363       -0.670      872.910
12/25/2013  23:53:00      -98.194      -24.311      -11.025       23.425       24.294       17.925      548.715      590.183      321.300        0.591        0.073      101.159       13.449        0.018      331.308       -0.758      872.901
12/25/2013  23:54:00      -95.794      -21.208       -8.191       17.986       26.620       16.474      323.490      708.627      271.402        0.550        0.065       98.114       12.001        0.015      331.290       -0.789      872.888
12/25/2013  23:55:00      -77.965      -24.488      -16.666       21.934       25.402       16.049      481.111      645.278      257.582        0.417        0.069       81.720       11.187        0.019      331.391       -0.625      872.879
12/25/2013  23:56:00      -94.542        2.421      -10.586       26.780       33.038       21.112      717.176     1091.491      445.724        0.565        0.113       94.573        9.452        0.010      331.433       -0.554      872.871
12/25/2013  23:57:00      -88.074      -21.319      -19.652       23.373       20.028       16.107      546.317      401.128      259.431        0.490        0.060       90.617       13.431        0.022      331.405       -0.602      872.871
12/25/2013  23:58:00      -97.662       10.219      -16.082       28.211       21.915       17.099      795.885      480.248      292.370        0.573        0.078       98.195       11.921        0.015      331.384       -0.635      872.864
12/25/2013  23:59:00      -81.505      -17.346      -12.136       22.489       21.192       10.413      505.755      449.115      108.434        0.408        0.053       83.331        9.624        0.013      331.319       -0.742      872.860
